[[{"header":{"parameterUnit":"m.s-1","parameterCategory":1,"la1":31.0,"la2":29.5877,"lo1":-88.7671,"lo2":-86.6584,"dy":0.0162,"dx":0.0185,"nx":115,"ny":88,"refTime":"2026-05-14T00:00:00:Z","depth":0,"parameterNumber":2,"parameterNumberName":"U-component_of_WINDS"},"data":[0.0,0.0,0.0,0.0,0.0,0.0,0.0,0.0,0.0,0.0,0.0,0.0,0.0,0.0,0.0,0.0,0.0,0.0,0.0,0.0,0.0,0.0,0.0,0.0,0.0,0.0,0.0,0.0,0.0,0.0,0.0,0.0,0.0,0.0,0.0,0.0,0.0,0.0,0.0,0.0,0.0,0.0,0.0,0.0,0.0,0.0,0.0,0.0,0.0,0.0,0.0,0.0,0.0,0.0,0.0,0.0,0.0,0.0,0.0,0.0,0.0,0.0,0.0,0.0,0.0,0.0,0.0,0.0,0.0,0.0,0.0,0.0,0.0,0.0,0.0,0.0,0.0,0.0,0.0,0.0,0.0,0.0,0.0,0.0,0.0,0.0,0.0,0.0,0.0,0.0,0.0,0.0,0.0,0.0,0.0,0.0,0.0,0.0,0.0,0.0,0.0,0.0,0.0,0.0,0.0,0.0,0.0,0.0,0.0,0.0,0.0,0.0,0.0,0.0,0.0,0.0,0.0,0.0,0.0,0.0,0.0,0.0,0.0,0.0,0.0,0.0,0.0,0.0,0.0,0.0,0.0,0.0,0.0,0.0,0.0,0.0,0.0,0.0,0.0,0.0,0.0,0.0,0.0,0.0,0.0,0.0,0.0,0.0,0.0,0.0,0.0,0.0,0.0,0.0,0.0,0.0,0.0,0.0,0.0,0.0,0.0,0.0,0.0,0.0,0.0,0.0,0.0,0.0,0.0,0.0,0.0,0.0,0.0,0.0,0.0,0.0,0.0,0.0,0.0,0.0,0.0,0.0,0.0,0.0,0.0,0.0,0.0,0.0,0.0,0.0,0.0,0.0,0.0,0.0,0.0,0.0,0.0,0.0,0.0,0.0,0.0,0.0,0.0,0.0,0.0,0.0,0.0,0.0,0.0,0.0,0.0,0.0,0.0,0.0,0.0,0.0,0.0,0.0,0.0,0.0,0.0,0.0,0.0,0.0,0.0,0.0,0.0,0.0,0.0,0.0,0.0,0.0,0.0,0.0,0.0,0.0,0.0,0.0,0.0,0.0,0.0,0.0,0.0,0.0,0.0,0.0,0.0,0.0,0.0,0.0,0.0,0.0,0.0,0.0,0.0,0.0,0.0,0.0,0.0,0.0,0.0,0.0,0.0,0.0,0.0,0.0,0.0,0.0,0.0,0.0,0.0,0.0,0.0,0.0,0.0,0.0,0.0,0.0,0.0,0.0,0.0,0.0,0.0,0.0,0.0,0.0,0.0,0.0,0.0,0.0,0.0,0.0,0.0,0.0,0.0,0.0,0.0,0.0,0.0,0.0,0.0,0.0,0.0,0.0,0.0,0.0,0.0,0.0,0.0,0.0,0.0,0.0,0.0,0.0,0.0,0.0,0.0,0.0,0.0,0.0,0.0,0.0,0.0,0.0,0.0,0.0,0.0,0.0,0.0,0.0,0.0,0.0,0.0,0.0,0.0,0.0,0.0,0.0,0.0,0.0,0.0,0.0,0.0,0.0,0.0,0.0,0.0,0.0,0.0,0.0,0.0,0.0,0.0,0.0,0.0,0.0,0.0,0.0,0.0,0.0,0.0,0.0,0.0,0.0,0.0,0.0,0.0,0.0,0.0,0.0,0.0,0.0,0.0,0.0,0.0,0.0,0.0,0.0,0.0,0.0,0.0,0.0,0.0,0.0,0.0,0.0,0.0,0.0,0.0,0.0,0.0,0.0,0.0,0.0,0.0,0.0,0.0,0.0,0.0,0.0,0.0,0.0,0.0,0.0,0.0,0.0,0.0,0.0,0.0,0.0,0.0,0.0,0.0,0.0,0.0,0.0,0.0,0.0,0.0,0.0,0.0,0.0,0.0,0.0,0.0,0.0,0.0,0.0,0.0,0.0,0.0,0.0,0.0,0.0,0.0,0.0,0.0,0.0,0.0,0.0,0.0,0.0,0.0,0.0,0.0,0.0,0.0,0.0,0.0,0.0,0.0,0.0,0.0,0.0,0.0,0.0,0.0,0.0,0.0,0.0,0.0,0.0,0.0,0.0,0.0,0.0,0.0,0.0,0.0,0.0,0.0,0.0,0.0,0.0,0.0,0.0,0.0,0.0,0.0,0.0,0.0,0.0,0.0,0.0,0.0,0.0,0.0,0.0,0.0,0.0,0.0,0.0,0.0,0.0,0.0,0.0,0.0,0.0,0.0,0.0,0.0,0.0,0.0,0.0,0.0,0.0,0.0,0.0,0.0,0.0,0.0,0.0,0.0,0.0,0.0,0.0,0.0,0.0,0.0,0.0,0.0,0.0,0.0,0.0,0.0,0.0,0.0,0.0,0.0,0.0,0.0,0.0,0.0,0.0,0.0,0.0,0.0,0.0,0.0,0.0,0.0,0.0,0.0,0.0,0.0,0.0,0.0,0.0,0.0,0.0,0.0,0.0,0.0,0.0,0.0,0.0,0.0,0.0,0.0,0.0,0.0,0.0,0.0,0.0,0.0,0.0,0.0,0.0,0.0,0.0,0.0,0.0,0.0,0.0,0.0,0.0,0.0,0.0,0.0,0.0,0.0,0.0,0.0,0.0,0.0,0.0,0.0,0.0,0.0,0.0,0.0,0.0,0.0,0.0,0.0,0.0,0.0,0.0,0.0,0.0,0.0,0.0,0.0,0.0,0.0,0.0,0.0,0.0,0.0,0.0,0.0,0.0,0.0,0.0,0.0,0.0,0.0,0.0,0.0,0.0,0.0,0.0,0.0,0.0,0.0,0.0,0.0,0.0,0.0,0.0,0.0,0.0,0.0,0.0,0.0,0.0,0.0,0.0,0.0,0.0,0.0,0.0,0.0,0.0,0.0,0.0,0.0,0.0,0.0,0.0,0.0,0.0,0.0,0.0,0.0,0.0,0.0,0.0,0.0,0.0,0.0,0.0,0.0,0.0,0.0,0.0,0.0,0.0,0.0,0.0,0.0,0.0,0.0,0.0,0.0,0.0,0.0,0.0,0.0,0.0,0.0,0.0,0.0,0.0,0.0,0.0,0.0,0.0,0.0,0.0,0.0,0.0,0.0,0.0,0.0,0.0,0.0,0.0,0.0,0.0,0.0,0.0,0.0,0.0,0.0,0.0,0.0,0.0,0.0,0.0,0.0,0.0,0.0,0.0,0.0,0.0,0.0,0.0,0.0,0.0,0.0,0.0,0.0,0.0,0.0,0.0,0.0,0.0,0.0,0.0,0.0,0.0,0.0,0.0,0.0,0.0,0.0,0.0,0.0,0.0,0.0,0.0,0.0,0.0,0.0,0.0,0.0,0.0,0.0,0.0,0.0,0.0,0.0,0.0,0.0,0.0,0.0,0.0,0.0,0.0,0.0,0.0,0.0,0.0,0.0,0.0,0.0,0.0,0.0,0.0,0.0,0.0,0.0,0.0,0.0,0.0,0.0,0.0,0.0,0.0,0.0,0.0,0.0,0.0,0.0,0.0,0.0,0.0,0.0,0.0,0.0,0.0,0.0,0.0,0.0,0.0,0.0,0.0,0.0,0.0,0.0,0.0,0.0,0.0,0.0,0.0,0.0,0.0,0.0,0.0,0.0,0.0,0.0,0.0,0.0,0.0,0.0,0.0,0.0,0.0,0.0,0.0,0.0,0.0,0.0,0.0,0.0,0.0,0.0,0.0,0.0,0.0,0.0,0.0,0.0,0.0,0.0,0.0,0.0,0.0,0.0,0.0,0.0,0.0,0.0,0.0,0.0,0.0,0.0,0.0,0.0,0.0,0.0,0.0,0.0,0.0,0.0,0.0,0.0,0.0,0.0,0.0,0.0,0.0,0.0,0.0,0.0,0.0,0.0,0.0,0.0,0.0,0.0,0.0,0.0,0.0,0.0,0.0,0.0,0.0,0.0,0.0,0.0,0.0,0.0,0.0,0.0,0.0,0.0,0.0,0.0,0.0,0.0,0.0,0.0,0.0,0.0,0.0,0.0,0.0,0.0,0.0,0.0,0.0,0.0,0.0,0.0,0.0,0.0,0.0,0.0,0.0,0.0,0.0,0.0,0.0,0.0,0.0,0.0,0.0,0.0,0.0,0.0,0.0,0.0,0.0,0.0,0.0,0.0,0.0,0.0,0.0,0.0,0.0,0.0,0.0,0.0,0.0,0.0,0.0,0.0,0.0,0.0,0.0,0.0,0.0,0.0,0.0,0.0,0.0,0.0,0.0,0.0,0.0,0.0,0.0,0.0,0.0,0.0,0.0,0.0,0.0,0.0,0.0,0.0,0.0,-0.977,0.0,0.0,0.0,0.0,0.0,0.0,0.0,0.0,0.0,0.0,0.0,0.0,0.0,0.0,0.0,0.0,0.0,0.0,0.0,0.0,0.0,0.0,0.0,0.0,0.0,0.0,0.0,0.0,0.0,0.0,0.0,0.0,0.0,0.0,0.0,0.0,0.0,0.0,0.0,0.0,0.0,0.0,0.0,0.0,0.0,0.0,0.0,0.0,0.0,0.0,0.0,0.0,0.0,0.0,0.0,0.0,0.0,0.0,0.0,0.0,0.0,0.0,0.0,0.0,0.0,0.0,0.0,0.0,0.0,0.0,0.0,0.0,0.0,0.0,0.0,0.0,0.0,0.0,0.0,0.0,0.0,0.0,0.0,0.0,0.0,0.0,0.0,0.0,0.0,0.0,0.0,0.0,0.0,0.0,0.0,0.0,0.0,0.0,0.0,0.0,0.0,0.0,0.0,0.0,0.0,0.0,0.0,0.0,0.0,0.0,-0.9552,-0.9387,-0.8654,-0.8582,-0.9248,0.0,0.0,0.0,0.0,0.0,0.0,0.0,0.0,0.0,0.0,0.0,0.0,0.0,0.0,0.0,0.0,0.0,0.0,0.0,0.0,0.0,0.0,0.0,0.0,0.0,0.0,0.0,0.0,0.0,0.0,0.0,0.0,0.0,0.0,0.0,0.0,0.0,0.0,0.0,0.0,0.0,0.0,0.0,0.0,0.0,0.0,0.0,0.0,0.0,0.0,0.0,0.0,0.0,0.0,0.0,0.0,0.0,0.0,0.0,0.0,0.0,0.0,0.0,0.0,0.0,0.0,0.0,0.0,0.0,0.0,0.0,0.0,0.0,0.0,0.0,0.0,0.0,0.0,0.0,0.0,0.0,0.0,0.0,0.0,0.0,0.0,0.0,0.0,0.0,0.0,0.0,0.0,0.0,0.0,0.0,0.0,0.0,0.0,0.0,0.0,0.0,0.0,0.0,0.0,0.0,0.0,0.0,0.0,0.0,0.0,0.0,0.0,-0.9176,-0.906,-0.9021,0.0,0.0,0.0,0.0,0.0,0.0,0.0,0.0,0.0,0.0,0.0,0.0,0.0,0.0,0.0,0.0,0.0,0.0,0.0,0.0,0.0,0.0,0.0,0.0,0.0,0.0,0.0,0.0,0.0,0.0,0.0,0.0,0.0,0.0,0.0,0.0,0.0,0.0,0.0,0.0,0.0,0.0,0.0,0.0,0.0,0.0,0.0,0.0,0.0,0.0,0.0,0.0,0.0,0.0,0.0,0.0,0.0,0.0,0.0,0.0,0.0,0.0,0.0,0.0,0.0,0.0,0.0,0.0,0.0,0.0,0.0,0.0,0.0,0.0,0.0,0.0,0.0,0.0,0.0,0.0,0.0,0.0,0.0,0.0,0.0,0.0,0.0,0.0,0.0,0.0,0.0,0.0,0.0,0.0,0.0,0.0,0.0,0.0,0.0,0.0,0.0,0.0,0.0,0.0,0.0,0.0,0.0,0.0,0.0,0.0,-1.0433,-1.1124,-1.0331,0.0,-0.993,0.0,0.0,0.0,0.0,0.0,0.0,0.0,0.0,0.0,0.0,0.0,0.0,0.0,0.0,0.0,0.0,0.0,0.0,0.0,0.0,0.0,0.0,0.0,0.0,0.0,0.0,0.0,0.0,0.0,0.0,0.0,0.0,0.0,0.0,0.0,0.0,0.0,0.0,0.0,0.0,0.0,0.0,0.0,0.0,0.0,0.0,0.0,0.0,0.0,0.0,0.0,0.0,0.0,0.0,0.0,0.0,0.0,0.0,0.0,0.0,0.0,0.0,0.0,0.0,0.0,0.0,0.0,0.0,0.0,0.0,0.0,0.0,0.0,0.0,0.0,0.0,0.0,0.0,0.0,0.0,0.0,0.0,0.0,0.0,0.0,0.0,0.0,0.0,0.0,0.0,0.0,0.0,0.0,0.0,0.0,0.0,0.0,0.0,0.0,0.0,0.0,0.0,0.0,0.0,0.0,0.0,0.0,0.0,0.0,0.0,0.0,-1.1331,-1.0921,-1.0497,0.0,0.0,0.0,0.0,0.0,0.0,0.0,0.0,0.0,0.0,0.0,0.0,0.0,0.0,0.0,0.0,0.0,0.0,0.0,0.0,0.0,0.0,0.0,0.0,0.0,0.0,0.0,0.0,0.0,0.0,0.0,0.0,0.0,0.0,0.0,0.0,0.0,0.0,0.0,0.0,0.0,0.0,0.0,0.0,0.0,0.0,0.0,0.0,0.0,0.0,0.0,0.0,0.0,0.0,0.0,0.0,0.0,0.0,0.0,0.0,0.0,0.0,0.0,0.0,0.0,0.0,0.0,0.0,0.0,0.0,0.0,0.0,0.0,0.0,0.0,0.0,0.0,0.0,0.0,0.0,0.0,0.0,0.0,0.0,0.0,0.0,0.0,0.0,0.0,0.0,0.0,0.0,0.0,0.0,0.0,0.0,0.0,0.0,0.0,0.0,0.0,0.0,0.0,0.0,0.0,0.0,0.0,0.0,0.0,0.0,-1.0876,0.0,-1.1631,-1.1595,-1.106,-1.0044,0.0,0.0,0.0,0.0,0.0,0.0,0.0,0.0,0.0,0.0,0.0,0.0,0.0,0.0,0.0,0.0,0.0,0.0,0.0,0.0,0.0,0.0,0.0,0.0,0.0,0.0,0.0,0.0,0.0,0.0,0.0,0.0,0.0,0.0,0.0,0.0,0.0,0.0,0.0,0.0,0.0,0.0,0.0,0.0,0.0,0.0,0.0,0.0,0.0,0.0,0.0,0.0,0.0,0.0,0.0,0.0,0.0,0.0,0.0,0.0,0.0,0.0,0.0,0.0,0.0,0.0,0.0,0.0,0.0,0.0,0.0,0.0,0.0,0.0,0.0,0.0,0.0,0.0,0.0,0.0,0.0,0.0,0.0,0.0,0.0,0.0,0.0,0.0,0.0,0.0,0.0,0.0,0.0,0.0,0.0,0.0,0.0,0.0,0.0,0.0,0.0,0.0,0.0,0.0,0.0,0.0,0.0,0.0,0.0,-1.061,-1.0946,-1.2494,-1.2477,-1.1685,0.0,0.0,0.0,0.0,0.0,0.0,0.0,0.0,0.0,0.0,0.0,0.0,0.0,0.0,0.0,0.0,0.0,0.0,0.0,0.0,0.0,0.0,0.0,0.0,0.0,0.0,0.0,0.0,0.0,0.0,0.0,0.0,0.0,0.0,0.0,0.0,0.0,0.0,0.0,0.0,0.0,0.0,0.0,0.0,0.0,0.0,0.0,0.0,0.0,0.0,0.0,0.0,0.0,0.0,0.0,0.0,0.0,0.0,0.0,0.0,0.0,0.0,0.0,0.0,0.0,0.0,0.0,0.0,0.0,0.0,0.0,0.0,0.0,0.0,0.0,0.0,0.0,0.0,0.0,0.0,0.0,0.0,0.0,0.0,0.0,0.0,0.0,0.0,0.0,0.0,0.0,0.0,0.0,0.0,0.0,0.0,0.0,0.0,0.0,0.0,0.0,0.0,0.0,0.0,0.0,0.0,0.0,0.0,0.0,-1.0641,-1.0838,-1.17,-1.3227,-1.1778,-1.1266,0.0,0.0,0.0,0.0,0.0,0.0,0.0,0.0,0.0,0.0,0.0,0.0,0.0,0.0,0.0,0.0,0.0,0.0,0.0,0.0,0.0,0.0,0.0,0.0,0.0,0.0,0.0,0.0,0.0,0.0,0.0,0.0,0.0,0.0,0.0,0.0,0.0,0.0,0.0,0.0,0.0,0.0,0.0,0.0,0.0,0.0,0.0,0.0,0.0,0.0,0.0,0.0,0.0,0.0,0.0,0.0,0.0,0.0,0.0,0.0,0.0,0.0,0.0,0.0,0.0,0.0,0.0,0.0,0.0,0.0,0.0,0.0,0.0,0.0,0.0,0.0,0.0,0.0,0.0,0.0,0.0,0.0,0.0,0.0,0.0,0.0,0.0,0.0,0.0,0.0,0.0,0.0,0.0,0.0,0.0,0.0,0.0,0.0,0.0,0.0,0.0,0.0,0.0,0.0,0.0,0.0,0.0,0.0,0.0,-1.0622,0.0,-1.2627,0.0,-1.1506,-1.0754,0.0,0.0,0.0,0.0,0.0,0.0,0.0,0.0,0.0,0.0,0.0,0.0,0.0,0.0,0.0,0.0,0.0,0.0,0.0,0.0,0.0,0.0,0.0,0.0,0.0,0.0,0.0,0.0,0.0,0.0,0.0,0.0,0.0,0.0,0.0,0.0,0.0,0.0,0.0,0.0,0.0,0.0,0.0,0.0,0.0,0.0,0.0,0.0,0.0,0.0,0.0,0.0,0.0,0.0,0.0,0.0,0.0,0.0,0.0,0.0,0.0,0.0,0.0,0.0,0.0,0.0,0.0,0.0,0.0,0.0,0.0,0.0,0.0,0.0,0.0,0.0,0.0,0.0,0.0,0.0,0.0,0.0,0.0,0.0,0.0,0.0,0.0,0.0,0.0,0.0,0.0,0.0,0.0,0.0,0.0,0.0,0.0,0.0,0.0,0.0,0.0,0.0,0.0,0.0,0.0,0.0,0.0,0.0,0.0,-1.145,-1.3032,-1.3431,-1.2641,-1.1753,-1.0129,0.0,0.0,0.0,0.0,0.0,0.0,0.0,0.0,0.0,0.0,0.0,0.0,0.0,0.0,0.0,0.0,0.0,0.0,0.0,0.0,0.0,0.0,0.0,0.0,0.0,0.0,0.0,0.0,0.0,0.0,0.0,0.0,0.0,0.0,0.0,0.0,0.0,0.0,0.0,0.0,0.0,0.0,0.0,0.0,0.0,0.0,0.0,0.0,0.0,0.0,0.0,0.0,0.0,0.0,0.0,0.0,0.0,0.0,0.0,0.0,0.0,0.0,0.0,0.0,0.0,0.0,0.0,0.0,0.0,0.0,0.0,0.0,0.0,0.0,0.0,0.0,0.0,0.0,0.0,0.0,0.0,0.0,0.0,0.0,0.0,0.0,0.0,0.0,0.0,0.0,0.0,0.0,0.0,0.0,0.0,0.0,0.0,0.0,0.0,0.0,0.0,0.0,0.0,0.0,0.0,0.0,0.0,0.0,0.0,-1.1492,-1.2011,-1.267,-1.3363,-1.0961,-0.9129,0.0,0.0,0.0,0.0,0.0,0.0,0.0,0.0,0.0,0.0,0.0,0.0,0.0,0.0,0.0,0.0,0.0,0.0,0.0,0.0,0.0,0.0,0.0,0.0,0.0,0.0,0.0,0.0,0.0,0.0,0.0,0.0,0.0,0.0,0.0,0.0,0.0,0.0,0.0,0.0,0.0,0.0,0.0,0.0,0.0,0.0,0.0,0.0,0.0,0.0,0.0,0.0,0.0,0.0,0.0,0.0,0.0,0.0,0.0,0.0,0.0,0.0,0.0,0.0,0.0,0.0,0.0,0.0,0.0,0.0,0.0,0.0,0.0,0.0,0.0,0.0,0.0,0.0,0.0,0.0,0.0,0.0,0.0,0.0,0.0,0.0,0.0,0.0,0.0,0.0,0.0,0.0,0.0,0.0,0.0,0.0,0.0,0.0,0.0,0.0,0.0,0.0,0.0,0.0,0.0,0.0,0.0,0.0,0.0,-1.2892,-1.292,-1.3238,-1.3867,-1.0912,-0.9022,-0.8429,0.0,0.0,0.0,0.0,0.0,0.0,0.0,0.0,0.0,0.0,0.0,0.0,0.0,0.0,0.0,0.0,0.0,0.0,0.0,0.0,0.0,0.0,0.0,0.0,0.0,0.0,0.0,0.0,0.0,0.0,0.0,0.0,0.0,0.0,0.0,0.0,0.0,0.0,0.0,0.0,0.0,0.0,0.0,0.0,0.0,0.0,0.0,0.0,0.0,0.0,0.0,0.0,0.0,0.0,0.0,0.0,0.0,0.0,0.0,0.0,0.0,0.0,0.0,0.0,0.0,0.0,0.0,0.0,0.0,0.0,0.0,0.0,0.0,0.0,0.0,0.0,0.0,0.0,0.0,0.0,0.0,0.0,0.0,0.0,0.0,0.0,0.0,0.0,0.0,0.0,0.0,0.0,0.0,0.0,0.0,0.0,0.0,0.0,0.0,0.0,0.0,0.0,0.0,0.0,0.0,0.0,0.0,0.0,-1.526,-1.5391,-1.5004,-1.4074,-1.1588,-0.9801,0.0,0.0,0.0,0.0,0.0,0.0,0.0,0.0,0.0,0.0,0.0,0.0,0.0,0.0,0.0,0.0,0.0,0.0,0.0,0.0,0.0,0.0,0.0,0.0,0.0,0.0,0.0,0.0,0.0,0.0,0.0,0.0,0.0,0.0,0.0,0.0,0.0,0.0,0.0,0.0,0.0,0.0,0.0,0.0,0.0,0.0,0.0,0.0,0.0,0.0,0.0,0.0,0.0,0.0,0.0,0.0,0.0,0.0,0.0,0.0,0.0,0.0,0.0,0.0,0.0,0.0,0.0,0.0,0.0,0.0,0.0,0.0,0.0,0.0,0.0,0.0,0.0,0.0,0.0,0.0,0.0,0.0,0.0,0.0,0.0,0.0,0.0,0.0,0.0,0.0,0.0,0.0,0.0,0.0,0.0,0.0,0.0,0.0,0.0,0.0,0.0,0.0,0.0,0.0,0.0,0.0,0.0,0.0,0.0,-1.5246,-1.6502,-1.6717,-1.5796,-1.3315,-1.1527,0.0,0.0,0.0,0.0,0.0,0.0,0.0,0.0,0.0,0.0,0.0,0.0,0.0,0.0,0.0,0.0,0.0,0.0,0.0,0.0,0.0,0.0,0.0,0.0,0.0,0.0,0.0,0.0,0.0,0.0,0.0,0.0,0.0,0.0,0.0,0.0,0.0,0.0,0.0,0.0,0.0,0.0,0.0,0.0,0.0,0.0,0.0,0.0,0.0,0.0,0.0,0.0,0.0,0.0,0.0,0.0,0.0,0.0,0.0,0.0,0.0,0.0,0.0,0.0,0.0,0.0,0.0,0.0,0.0,0.0,0.0,0.0,0.0,0.0,0.0,0.0,0.0,0.0,0.0,0.0,0.0,0.0,0.0,0.0,0.0,0.0,0.0,0.0,0.0,0.0,0.0,0.0,0.0,0.0,0.0,0.0,0.0,0.0,0.0,0.0,0.0,0.0,0.0,0.0,0.0,0.0,0.0,0.0,-1.4434,-1.6808,-1.7837,-1.7902,-1.7035,-1.4497,-1.2568,0.0,0.0,0.0,0.0,0.0,0.0,0.0,0.0,0.0,0.0,0.0,0.0,0.0,0.0,0.0,0.0,0.0,0.0,0.0,0.0,0.0,0.0,0.0,0.0,0.0,0.0,0.0,0.0,0.0,0.0,0.0,0.0,0.0,0.0,0.0,0.0,0.0,0.0,0.0,0.0,0.0,0.0,0.0,0.0,0.0,0.0,0.0,0.0,0.0,0.0,0.0,0.0,0.0,0.0,0.0,0.0,0.0,0.0,0.0,0.0,0.0,0.0,0.0,0.0,0.0,0.0,0.0,0.0,0.0,0.0,0.0,0.0,0.0,0.0,0.0,0.0,0.0,0.0,0.0,0.0,0.0,0.0,0.0,0.0,0.0,0.0,0.0,0.0,0.0,0.0,0.0,0.0,0.0,0.0,0.0,0.0,0.0,0.0,0.0,0.0,0.0,0.0,0.0,0.0,0.0,0.0,0.0,0.0,-1.5557,-1.8531,-1.8924,-1.8641,-1.7687,-1.5312,-1.3202,0.0,0.0,0.0,0.0,0.0,0.0,0.0,0.0,0.0,0.0,0.0,0.0,0.0,0.0,0.0,0.0,0.0,0.0,0.0,0.0,0.0,0.0,0.0,0.0,0.0,0.0,0.0,0.0,0.0,0.0,0.0,0.0,0.0,0.0,0.0,0.0,0.0,0.0,0.0,0.0,0.0,0.0,0.0,0.0,0.0,0.0,0.0,0.0,0.0,0.0,0.0,0.0,0.0,0.0,0.0,0.0,0.0,0.0,0.0,0.0,0.0,0.0,0.0,0.0,0.0,0.0,0.0,0.0,0.0,0.0,0.0,0.0,0.0,0.0,0.0,0.0,0.0,0.0,0.0,0.0,0.0,0.0,0.0,0.0,0.0,0.0,0.0,0.0,0.0,0.0,0.0,0.0,0.0,0.0,0.0,0.0,0.0,0.0,0.0,0.0,0.0,0.0,0.0,0.0,0.0,0.0,0.0,0.0,-1.5295,-1.6014,-1.7979,-1.8595,-1.7725,-1.5843,-1.4022,0.0,0.0,0.0,0.0,0.0,0.0,0.0,0.0,0.0,0.0,0.0,0.0,0.0,0.0,0.0,0.0,0.0,0.0,0.0,0.0,0.0,0.0,0.0,0.0,0.0,0.0,0.0,0.0,0.0,0.0,0.0,0.0,0.0,0.0,0.0,0.0,0.0,0.0,0.0,0.0,0.0,0.0,0.0,0.0,0.0,0.0,0.0,0.0,0.0,0.0,0.0,0.0,0.0,0.0,0.0,0.0,0.0,0.0,0.0,0.0,0.0,0.0,0.0,0.0,0.0,0.0,0.0,0.0,0.0,0.0,0.0,0.0,0.0,0.0,0.0,0.0,0.0,0.0,0.0,0.0,0.0,0.0,0.0,0.0,0.0,0.0,0.0,0.0,0.0,0.0,0.0,0.0,0.0,0.0,0.0,0.0,0.0,0.0,0.0,0.0,0.0,0.0,0.0,0.0,0.0,0.0,0.0,0.0,-1.6188,-1.6984,-1.83,-1.8732,-1.8111,-1.5802,-1.3851,0.0,0.0,0.0,0.0,0.0,0.0,0.0,0.0,0.0,0.0,0.0,0.0,0.0,0.0,0.0,0.0,0.0,0.0,0.0,0.0,0.0,0.0,0.0,0.0,0.0,0.0,0.0,0.0,0.0,0.0,0.0,0.0,0.0,0.0,0.0,0.0,0.0,0.0,0.0,0.0,0.0,0.0,0.0,0.0,0.0,0.0,0.0,0.0,0.0,0.0,0.0,0.0,0.0,0.0,0.0,0.0,0.0,0.0,0.0,0.0,0.0,0.0,0.0,0.0,0.0,0.0,0.0,0.0,0.0,0.0,0.0,0.0,0.0,0.0,0.0,0.0,0.0,0.0,0.0,0.0,0.0,0.0,0.0,0.0,0.0,0.0,0.0,0.0,0.0,0.0,0.0,0.0,0.0,0.0,0.0,0.0,0.0,0.0,0.0,0.0,0.0,0.0,0.0,0.0,0.0,0.0,0.0,-1.5272,-1.7253,-1.8722,-1.8806,-1.877,-1.8659,-1.5396,-1.3277,-1.2549,0.0,0.0,0.0,0.0,0.0,0.0,0.0,0.0,0.0,0.0,0.0,0.0,0.0,0.0,0.0,0.0,0.0,0.0,0.0,0.0,0.0,0.0,0.0,0.0,0.0,0.0,0.0,0.0,0.0,0.0,0.0,0.0,0.0,0.0,0.0,0.0,0.0,0.0,-0.4767,-0.2252,0.0,0.0,0.0,0.0,0.0,0.0,0.0,0.0,-0.0346,0.0,0.0,0.0,0.0,0.0,0.0,0.0,0.0,0.0,0.0,0.0,0.0,0.0,0.0,0.0,0.0,0.0,0.0,0.0,0.0,0.0,0.0,0.0,0.0,0.0,0.0,0.0,0.0,0.0,0.0,0.0,0.0,0.0,0.0,0.0,0.0,0.0,0.0,0.0,0.0,0.0,0.0,0.0,0.0,0.0,0.0,0.0,0.0,0.0,0.0,0.0,0.0,0.0,0.0,0.0,0.0,-1.367,-1.5541,-1.6965,-1.7876,-1.7914,-1.816,-1.8564,-1.481,-1.2903,-1.3131,0.0,0.0,0.0,0.0,0.0,0.0,0.0,0.0,0.0,0.0,0.0,0.0,0.0,0.0,0.0,0.0,0.0,0.0,0.0,0.0,0.0,0.0,0.0,0.0,0.0,0.0,0.0,0.0,0.0,0.0,0.0,0.0,0.0,0.0,0.0,0.0,0.0,0.0,0.0,-0.3181,-0.1496,0.0,0.0,0.0,0.0,0.0,0.0,0.0,0.0,0.0,0.0,0.0,0.0,0.0,0.0,0.0,0.0,0.0,0.0,0.0,0.0,0.0,0.0,0.0,0.0,0.0,0.0,0.0,0.0,0.0,0.0,0.0,0.0,0.0,0.0,0.0,0.0,0.0,0.0,0.0,0.0,0.0,0.0,0.0,0.0,0.0,0.0,0.0,0.0,0.0,0.0,0.0,0.0,0.0,0.0,0.0,0.0,0.0,0.0,0.0,0.0,0.0,0.0,0.0,0.0,-1.3761,-1.517,-1.6445,-1.7638,-1.7696,-1.8026,-1.8601,-1.5125,-1.3486,0.0,0.0,0.0,0.0,0.0,0.0,0.0,0.0,0.0,0.0,0.0,0.0,0.0,0.0,0.0,0.0,0.0,0.0,0.0,0.0,0.0,0.0,0.0,0.0,0.0,0.0,0.0,0.0,0.0,0.0,0.0,0.0,0.0,0.0,0.0,0.0,0.0,0.0,0.0,0.0,-0.4237,-0.3459,-0.262,0.0,0.0,0.0,0.0,0.0,0.0,-0.3731,-0.2039,0.0,0.0,0.0,0.0,0.0,0.0,0.0,0.0,0.0,0.0,0.0,0.0,0.0,0.0,0.0,0.0,0.0,0.0,0.0,0.0,0.0,0.0,0.0,0.0,0.0,0.0,0.0,0.0,0.0,0.0,0.0,0.0,0.0,0.0,0.0,0.0,0.0,0.0,0.0,0.0,0.0,0.0,0.0,0.0,0.0,0.0,0.0,0.0,0.0,0.0,0.0,0.0,0.0,0.0,0.0,-1.3786,-1.4766,-1.6099,-1.7869,-1.7946,-1.8198,-1.861,-1.5676,-1.4106,0.0,0.0,0.0,0.0,0.0,0.0,0.0,0.0,0.0,0.0,0.0,0.0,0.0,0.0,0.0,0.0,0.0,0.0,0.0,0.0,0.0,0.0,0.0,0.0,0.0,0.0,0.0,0.0,0.0,0.0,0.0,0.0,0.0,0.0,0.0,0.0,0.0,0.0,0.0,0.0,0.0,-0.4963,-0.4844,-0.2662,0.0,0.0,0.0,0.0,-0.5099,-0.5099,0.0,0.0,0.0,0.0,0.0,0.0,0.0,0.0,0.0,0.0,0.0,0.0,0.0,0.0,0.0,0.0,0.0,0.0,0.0,0.0,0.0,0.0,0.0,0.0,0.0,0.0,0.0,0.0,0.0,0.0,0.0,0.0,0.0,0.0,0.0,0.0,0.0,0.0,0.0,0.0,0.0,0.0,0.0,0.0,0.0,0.0,0.0,0.0,0.0,0.0,0.0,0.0,0.0,0.0,0.0,0.0,-1.3747,-1.4766,-1.6388,-1.8703,-1.885,-1.8803,-1.8668,-1.6257,-1.4187,0.0,0.0,0.0,0.0,0.0,0.0,0.0,0.0,0.0,0.0,0.0,0.0,0.0,0.0,0.0,0.0,0.0,0.0,0.0,0.0,0.0,0.0,0.0,0.0,0.0,0.0,0.0,0.0,0.0,0.0,0.0,0.0,0.0,0.0,0.0,0.0,0.0,0.0,0.0,0.0,0.0,-0.4997,-0.4974,-0.4721,-0.3444,0.0,0.0,-0.5099,-0.5099,-0.5099,0.0,0.0,0.0,0.0,0.0,0.0,0.0,0.0,0.0,0.0,0.0,0.0,0.0,0.0,0.0,0.0,0.0,0.0,0.0,0.0,0.0,0.0,0.0,0.0,0.0,0.0,0.0,0.0,0.0,0.0,0.0,0.0,0.0,0.0,0.0,0.0,0.0,0.0,0.0,0.0,0.0,0.0,0.0,0.0,0.0,0.0,0.0,0.0,0.0,0.0,0.0,0.0,0.0,0.0,0.0,-0.9929,-1.444,-1.4536,-1.5945,-1.8876,-1.9011,-1.8666,-1.7966,-1.6731,-1.4848,0.0,0.0,0.0,0.0,0.0,0.0,0.0,0.0,0.0,0.0,0.0,0.0,0.0,0.0,0.0,0.0,0.0,0.0,0.0,0.0,0.0,0.0,0.0,0.0,0.0,0.0,0.0,0.0,0.0,0.0,0.0,0.0,0.0,0.0,0.0,0.0,0.0,0.0,0.0,0.0,0.0,0.0,-0.5049,-0.5093,0.0,0.0,0.0,-0.5099,-0.5099,0.0,0.0,0.0,0.0,0.0,0.0,0.0,0.0,0.0,0.0,0.0,0.0,0.0,0.0,0.0,0.0,0.0,0.0,0.0,0.0,0.0,0.0,0.0,0.0,0.0,0.0,0.0,0.0,0.0,0.0,0.0,0.0,0.0,0.0,0.0,0.0,0.0,0.0,0.0,0.0,0.0,0.0,0.0,0.0,0.0,0.0,0.0,0.0,0.0,0.0,0.0,0.0,0.0,0.0,0.0,0.0,0.0,-1.5041,-1.4574,-1.5888,-1.9177,-1.9319,-1.8723,-1.7463,-1.6965,0.0,0.0,0.0,0.0,0.0,0.0,0.0,0.0,0.0,0.0,0.0,0.0,0.0,0.0,0.0,0.0,0.0,0.0,0.0,0.0,0.0,0.0,0.0,0.0,0.0,0.0,0.0,0.0,0.0,0.0,0.0,0.0,0.0,0.0,0.0,0.0,0.0,0.0,0.0,0.0,0.0,0.0,-0.5071,-0.5093,-0.51,-0.6035,0.0,0.0,-0.5101,-0.5096,-0.5095,-0.5091,0.0,0.0,0.0,0.0,0.0,0.0,0.0,0.0,0.0,0.0,0.0,0.0,0.0,0.0,0.0,0.0,0.0,0.0,0.0,0.0,0.0,0.0,0.0,0.0,0.0,0.0,0.0,0.0,0.0,0.0,0.0,0.0,0.0,0.0,0.0,0.0,0.0,0.0,0.0,0.0,0.0,0.0,0.0,0.0,0.0,0.0,0.0,0.0,0.0,0.0,0.0,0.0,0.0,0.0,0.0,-1.4984,-1.5157,-1.6766,-2.0062,-2.0215,-1.9356,-1.7548,-1.6867,-1.4454,0.0,0.0,0.0,0.0,0.0,0.0,0.0,0.0,0.0,0.0,0.0,0.0,0.0,0.0,0.0,0.0,0.0,0.0,0.0,0.0,0.0,0.0,0.0,0.0,0.0,0.0,0.0,0.0,0.0,0.0,0.0,0.0,0.0,0.0,0.0,0.0,0.0,0.0,0.0,0.0,0.0,-0.5039,-0.5093,-0.5101,-0.5196,0.0,0.0,-0.5088,-0.5093,-0.509,-0.51,-0.5105,0.0,0.0,0.0,0.0,0.0,0.0,0.0,0.0,0.0,0.0,0.0,0.0,0.0,0.0,0.0,0.0,0.0,0.0,0.0,0.0,0.0,0.0,0.0,0.0,0.0,0.0,0.0,0.0,0.0,0.0,0.0,0.0,0.0,0.0,0.0,0.0,0.0,0.0,0.0,0.0,0.0,0.0,0.0,0.0,0.0,0.0,0.0,0.0,0.0,0.0,0.0,0.0,0.0,-1.0656,-1.5132,-1.5715,-1.7407,-2.0131,-1.9773,-1.8889,-1.7598,-1.6866,-1.4641,0.0,0.0,0.0,0.0,0.0,0.0,0.0,0.0,0.0,0.0,0.0,0.0,0.0,0.0,0.0,0.0,0.0,0.0,0.0,0.0,0.0,0.0,0.0,0.0,0.0,0.0,0.0,0.0,0.0,0.0,0.0,0.0,0.0,0.0,0.0,0.0,0.0,0.0,0.0,0.0,0.0,-0.6265,-0.6635,-0.5793,0.0,0.0,-0.5093,-0.5093,-0.5089,-0.51,-0.5091,-0.5104,-0.3966,0.0,0.0,0.0,0.0,0.0,0.0,0.0,0.0,0.0,0.0,0.0,0.0,0.0,0.0,0.0,0.0,0.0,0.0,0.0,0.0,0.0,0.0,0.0,0.0,0.0,0.0,0.0,0.0,0.0,0.0,0.0,0.0,0.0,0.0,0.0,0.0,0.0,0.0,0.0,0.0,0.0,0.0,0.0,0.0,0.0,0.0,0.0,0.0,0.0,0.0,0.0,0.0,-1.0998,-1.5157,-1.6061,-1.7734,-2.0246,-1.9446,-1.8559,-1.7619,-1.6827,-1.4751,0.0,0.0,0.0,0.0,0.0,0.0,0.0,0.0,0.0,0.0,0.0,0.0,0.0,0.0,0.0,0.0,0.0,0.0,0.0,0.0,0.0,0.0,0.0,0.0,0.0,0.0,0.0,0.0,0.0,0.0,0.0,0.0,0.0,0.0,0.0,0.0,0.0,0.0,0.0,0.0,0.0,-0.6435,-0.6846,-0.5871,-0.5092,-0.5091,-0.5093,-0.5093,-0.5093,-0.5087,-0.5102,-0.5105,0.0,0.0,0.0,0.0,0.0,0.0,0.0,0.0,0.0,0.0,0.0,0.0,0.0,0.0,0.0,0.0,0.0,0.0,0.0,0.0,0.0,0.0,0.0,0.0,0.0,0.0,0.0,0.0,0.0,0.0,-0.9647,0.0,0.0,0.0,0.0,0.0,0.0,0.0,0.0,0.0,0.0,0.0,0.0,0.0,0.0,0.0,0.0,0.0,0.0,0.0,0.0,0.0,0.0,0.0,-1.5112,-1.608,-1.7734,-2.015,-1.9439,-1.8532,-1.7608,-1.6698,-1.4584,-1.121,0.0,0.0,0.0,0.0,0.0,0.0,0.0,0.0,0.0,0.0,0.0,0.0,0.0,0.0,0.0,0.0,0.0,0.0,0.0,0.0,0.0,0.0,0.0,0.0,0.0,0.0,0.0,0.0,0.0,0.0,0.0,0.0,0.0,0.0,0.0,0.0,0.0,0.0,0.0,-0.5675,-0.5144,-0.5194,-0.5123,-0.5088,-0.5104,-0.5149,-0.5152,-0.5171,-0.5152,-0.5093,0.0,0.0,0.0,0.0,0.0,0.0,0.0,0.0,0.0,0.0,0.0,0.0,0.0,0.0,0.0,0.0,0.0,0.0,0.0,0.0,0.0,0.0,0.0,0.0,0.0,0.0,0.0,-1.3346,-1.2132,0.0,0.0,0.0,0.0,0.0,0.0,0.0,0.0,0.0,0.0,0.0,-1.4297,-1.5188,0.0,0.0,0.0,0.0,0.0,0.0,0.0,0.0,0.0,0.0,0.0,0.0,-1.2079,-1.5094,-1.6592,-1.7982,-1.9373,-1.8573,-1.7727,-1.69,-1.5876,-1.3985,-1.1125,0.0,0.0,0.0,0.0,0.0,0.0,0.0,0.0,0.0,0.0,0.0,0.0,0.0,0.0,0.0,0.0,0.0,0.0,0.0,0.0,0.0,0.0,0.0,0.0,0.0,0.0,0.0,0.0,0.0,0.0,0.0,0.0,0.0,0.0,0.0,0.0,0.0,-0.6519,-0.5656,-0.5791,-0.575,-0.5183,-0.5106,-0.5089,0.0,0.0,0.0,0.0,0.0,0.0,0.0,0.0,0.0,0.0,0.0,0.0,0.0,0.0,-0.7592,-0.9876,-0.8412,-0.5972,-0.3123,0.0,0.0,0.0,0.0,0.0,0.0,0.0,0.0,0.0,0.0,0.0,0.0,0.0,0.0,-1.5931,0.0,-1.4683,0.0,0.0,0.0,0.0,0.0,0.0,0.0,0.0,-1.6455,-1.7081,-1.694,-1.7813,-1.7689,0.0,-1.6521,-1.4717,0.0,0.0,0.0,0.0,0.0,0.0,0.0,0.0,-1.2944,-1.5178,-1.7149,-1.8386,-1.8782,-1.8086,-1.7317,-1.6484,-1.5171,-1.3402,-1.1106,-0.9574,-0.816,0.0,0.0,0.0,0.0,0.0,0.0,0.0,0.0,0.0,0.0,0.0,0.0,0.0,0.0,0.0,0.0,0.0,0.0,0.0,0.0,0.0,0.0,0.0,0.0,0.0,0.0,0.0,0.0,0.0,0.0,0.0,0.0,0.0,-0.6349,-0.7119,-0.7512,-0.6979,-0.6685,-0.6198,-0.5243,0.0,0.0,0.0,0.0,0.0,0.0,0.0,-0.8618,-0.8598,-0.7874,-0.6819,-0.5345,-0.5093,-0.5093,-0.5093,0.0,0.0,-0.929,-0.8919,-0.7534,-0.453,-0.4883,-0.566,-0.5518,-0.6645,-0.7671,0.0,0.0,0.0,0.0,0.0,0.0,0.0,0.0,-1.839,-1.8353,0.0,-1.7422,0.0,0.0,0.0,0.0,0.0,-1.6906,0.0,0.0,-2.059,-2.1809,-2.1248,-2.1919,-2.1597,-2.026,-2.09,-1.9601,-1.6411,-1.3175,0.0,0.0,0.0,0.0,0.0,0.0,-1.3588,-1.5306,-1.772,-1.8823,-1.8486,-1.7968,-1.727,-1.6347,-1.462,-1.2912,-1.1229,-1.0296,-0.9331,-0.8228,-0.6134,0.0,0.0,0.0,0.0,0.0,0.0,0.0,0.0,0.0,0.0,0.0,0.0,0.0,0.0,0.0,0.0,0.0,0.0,0.0,0.0,-0.0078,0.0,0.0,0.0,0.0,0.0,0.0,0.0,0.0,0.0,0.0,-0.867,-0.8087,-0.836,-0.9977,0.0,0.0,0.0,0.0,-0.7538,-1.426,-1.539,-1.5351,-1.5312,-1.2528,-1.0367,-1.0367,0.0,0.0,-0.5731,-0.5189,-0.5093,-0.5093,-0.521,-0.562,-0.7339,-0.6382,-0.5505,-0.6133,-0.6484,-0.6659,-0.6452,-0.6832,-0.747,-2.5406,0.0,0.0,0.0,0.0,-2.1599,-2.2263,-2.3327,-2.3309,-2.2336,-2.0721,-2.0501,0.0,0.0,0.0,0.0,0.0,0.0,-1.9286,-1.9792,-2.076,-2.14,-2.1803,-2.2206,-2.217,-2.1738,-2.15,-2.0604,-1.9019,-1.7469,-1.4641,-1.0689,0.0,0.0,0.0,0.0,-1.5241,-1.69,-1.8233,-1.8605,-1.7938,-1.7764,-1.6941,-1.5364,-1.4179,-1.3025,-1.1924,-1.1092,-0.9972,-0.8551,-0.7701,0.0,0.0,0.0,0.0,0.0,0.0,0.0,0.0,0.0,0.0,0.0,0.0,0.0,0.0,0.0,0.0,0.0,0.0,0.0,-0.3635,-0.1451,0.0,0.0,0.0,0.0,0.0,0.0,0.0,0.0,0.0,0.0,-0.9003,-0.8731,-0.8809,0.0,0.0,-0.6838,-0.6937,-0.5903,-0.7538,-1.4396,0.0,0.0,0.0,-1.3541,-1.208,-1.2082,-1.0893,-0.9665,-0.8944,-0.6762,-0.5105,-0.5125,-0.509,-0.5269,-0.566,-0.5484,-0.5426,-0.619,-0.6465,-0.6269,-0.5678,-0.5703,-0.5856,-2.9283,-2.6313,-2.5169,-2.5004,-2.539,-2.5054,-2.5456,-2.6319,-2.6007,-2.5236,-2.4153,-2.3841,-2.2428,-2.0225,-1.9271,0.0,0.0,0.0,-2.1189,-2.1779,-2.2156,-2.2619,-2.3082,-2.3294,-2.3228,-2.2918,-2.2577,-2.1932,-2.1091,-2.027,-1.8024,-1.4424,0.0,0.0,-1.3391,-1.5196,-1.6739,-1.7928,-1.8926,-1.8762,-1.7378,-1.685,-1.6059,-1.4971,-1.4306,-1.343,-1.2277,-1.176,-1.0732,-0.9151,-0.8606,-0.7496,0.0,0.0,0.0,0.0,0.0,0.0,0.0,0.0,0.0,0.0,0.0,0.0,0.0,0.0,0.0,0.0,-0.3817,-0.5277,-0.5977,-0.3597,0.0,0.0,0.0,0.0,0.0,0.0,0.0,-1.0287,-1.0286,-1.0071,-0.9587,-0.9509,-0.9743,-1.0404,-0.9956,-0.9838,-1.0638,0.0,-1.0675,-1.4827,-1.5409,-1.5409,-1.539,-1.4513,-1.3619,-1.2896,-1.1984,-1.1029,-1.0308,-0.8494,-0.7227,-0.7149,-0.7154,-0.6948,-0.6249,-0.6133,-0.5992,-0.5897,-0.5879,-0.5681,-0.5169,-0.509,-0.5101,-3.2357,-3.1549,-3.0026,-2.9287,-2.9104,-2.8393,-2.8044,-2.7934,-2.72,-2.7218,-2.7732,-2.7016,-2.6245,-2.5366,-2.3198,0.0,-2.1254,-2.2827,-2.3556,-2.3641,-2.4426,-2.4779,-2.4738,-2.4847,-2.4549,-2.3828,-2.3881,-2.3498,-2.2658,-2.1808,-2.0623,-1.9085,-1.7489,-1.6636,-1.6548,-1.7367,-1.8067,-1.8635,-1.9673,-1.9118,-1.6926,-1.5589,-1.4912,-1.4992,-1.4738,-1.3868,-1.2362,-1.2157,-1.1391,-0.9875,-0.9021,-0.7969,-0.6655,0.0,0.0,0.0,0.0,0.0,0.0,0.0,0.0,0.0,0.0,0.0,0.0,0.0,0.0,0.0,-0.5315,0.0,-0.7433,-0.6187,0.0,0.0,0.0,-0.8656,-0.5814,-0.8275,-1.0219,-1.0281,0.0,0.0,-1.0287,0.0,-1.099,-1.2586,-1.3325,-1.4123,-1.5253,-1.5195,-1.5409,-1.539,-1.5409,-1.5409,-1.5409,-1.5312,-1.4691,-1.3093,-1.2781,-1.2138,-1.0679,-1.023,-1.023,-1.0094,-1.0289,-0.9777,-0.8164,-0.7907,-0.7381,-0.5742,-0.5409,-0.5365,-0.5282,-0.528,-0.5252,-3.4312,-3.4064,-3.3073,-3.1953,-3.0834,-3.0613,-3.0191,-2.9622,-2.942,-2.876,-2.7787,-2.7603,-2.7053,-2.6303,-2.5874,-2.5597,-2.5447,-2.6014,-2.5909,-2.5358,-2.5672,-2.5508,-2.4879,-2.5063,-2.503,-2.4801,-2.4194,-2.3804,-2.3537,-2.2114,-2.1197,-2.0757,-1.9735,-1.8589,-1.7393,-1.8185,-1.896,-1.9716,-2.003,-1.9328,-1.7509,-1.5857,-1.4933,-1.4837,-1.4102,-1.3198,-1.2188,-1.1551,-1.0774,-0.9854,-0.9033,-0.8149,-0.7165,-0.5717,0.0,0.0,0.0,0.0,0.0,0.0,0.0,0.0,0.0,-0.1082,-0.3606,0.0,-0.6071,0.0,-0.8035,-0.77,-0.8141,-0.7425,0.0,0.0,-0.6532,-0.6982,-0.8772,-0.9699,-1.0202,-1.0219,-1.0202,-1.0215,-1.0219,-1.081,-1.1612,-1.2664,-1.3305,-1.4104,-1.5214,-1.5409,-1.5409,-1.5409,-1.5409,-1.5409,-1.5409,-1.5409,-1.4805,-1.3074,-1.2781,-1.2216,-1.0601,-1.0308,-1.0308,-1.0308,-1.0308,-1.011,-0.9721,-0.9677,-0.9015,-0.7515,-0.7066,-0.6871,-0.6247,-0.6091,-0.5904,-3.4789,-3.4449,-3.399,-3.3275,-3.243,-3.21,-3.1678,-3.1237,-3.0522,-2.9696,-2.8851,-2.8503,-2.7897,-2.7145,-2.7255,-2.7113,-2.678,-2.6897,-2.6729,-2.6332,-2.6078,-2.5728,-2.5328,-2.5164,-2.5057,-2.505,-2.466,-2.4473,-2.4396,-2.3135,-2.2314,-2.1923,-2.1091,-2.0021,-1.878,-1.92,-1.9658,-2.0069,-1.939,-1.8584,-1.7643,-1.5887,-1.4914,-1.4873,-1.4289,-1.343,-1.2224,-1.1708,-1.0924,-0.9865,-0.9379,-0.8736,-0.7932,-0.704,-0.626,0.0,0.0,0.0,0.0,0.0,0.0,0.0,0.0,0.0,0.0,0.0,-0.777,0.0,-0.8788,-0.8485,-0.8517,-0.8623,-0.8642,-0.8666,-0.787,-0.8096,-0.9999,-1.0196,-1.0196,-1.0196,-1.0202,-1.0202,-1.0213,-1.098,-1.1665,-1.2158,-1.284,-1.3812,-1.5097,-1.5409,-1.5409,-1.5409,-1.5409,-1.5409,-1.5409,-1.5078,-1.4377,-1.3112,-1.2489,-1.1788,-1.0541,-1.0308,-1.0308,-1.0308,-1.0308,-1.0321,-1.031,-1.032,-0.9947,-0.921,-0.886,-0.839,-0.7238,-0.6693,-0.6142,-3.4761,-3.41,-3.3899,-3.3807,-3.3752,-3.3054,-3.2706,-3.2504,-3.1127,-3.0393,-3.0155,-2.9475,-2.8723,-2.7952,-2.7978,-2.7592,-2.6967,-2.6969,-2.7021,-2.7028,-2.6191,-2.5851,-2.5866,-2.5192,-2.4902,-2.4915,-2.5113,-2.521,-2.5172,-2.432,-2.3518,-2.2753,-2.1846,-2.1025,-2.0289,-2.0174,-2.0108,-2.0069,-1.8444,-1.7611,-1.7581,-1.5841,-1.4957,-1.4968,-1.471,-1.3849,-1.2367,-1.2151,-1.1442,-1.0043,-0.9957,-0.9576,-0.8805,-0.865,-0.8049,0.0,-0.5833,0.0,0.0,0.0,0.0,0.0,0.0,0.0,0.0,-0.9674,-0.9551,-0.8443,-0.867,-0.8864,-0.8874,-0.9615,-1.0091,-1.0112,-1.0166,-1.0196,-1.0196,-1.0196,-1.0196,-1.0196,-1.0186,-1.0202,-1.0224,-1.0952,-1.1501,-1.1801,-1.2544,-1.3517,-1.4708,-1.5214,-1.5409,-1.5409,-1.5409,-1.5409,-1.5331,-1.4669,-1.3853,-1.2957,-1.2119,-1.1244,-1.0464,-1.0308,-1.0308,-1.0308,-1.0308,-1.0322,-1.031,-1.0324,-1.0324,-1.0187,-1.0147,-0.9675,-0.8225,-0.7216,-0.6286,-3.5973,-3.5697,-3.4376,-3.3807,-3.3788,-3.3642,-3.322,-3.2596,-3.2284,-3.1421,-3.021,-3.0044,-2.9531,-2.8796,-2.8941,-2.8915,-2.8788,-2.8949,-2.8671,-2.7997,-2.7191,-2.6495,-2.5871,-2.521,-2.4902,-2.4915,-2.5113,-2.521,-2.5191,-2.432,-2.3823,-2.3632,-2.2142,-2.1311,-2.112,0.0,0.0,0.0,-1.8455,-1.7603,-1.7546,-1.5945,-1.5023,-1.4912,-1.4208,0.0,-1.2285,-1.2142,-1.169,-1.0846,-1.0772,0.0,0.0,0.0,0.0,0.0,0.0,0.0,0.0,0.0,0.0,0.0,-0.8186,-0.7215,-0.6041,-0.8385,-0.9627,-0.8746,-0.9319,-0.9751,-0.9768,-0.9886,-1.0063,-1.017,-1.0193,-1.0196,-1.0196,-1.0196,-1.0196,-1.0196,-1.0186,-1.0213,-1.0277,-1.095,-1.1757,-1.2365,-1.3286,-1.3647,-1.3344,-1.4554,-1.537,-1.5409,-1.5409,-1.5409,-1.5409,-1.4669,-1.3833,-1.2937,-1.208,-1.1244,-1.0503,-1.0308,-1.0308,-1.0308,-1.0308,-1.0321,-1.031,-1.0324,-1.0324,-1.0322,-1.032,-0.9988,-0.8954,-0.8061,-0.6991,-3.6046,0.0,-3.4321,-3.3807,0.0,-3.3807,-3.3568,-3.3183,-3.2779,-3.1916,-3.0779,-3.0375,-2.9971,-2.9567,-2.9277,-2.916,-2.916,-2.9249,-2.9132,-2.8745,-2.7942,-2.7176,-2.6456,-2.5744,-2.5186,-2.4808,-2.4912,-2.494,-2.4953,-2.4569,-2.4188,-2.3788,-2.2598,-2.1808,-2.1388,-2.0537,-2.0108,-2.0088,-1.8875,-1.8234,-1.8168,-1.6543,-1.5608,-1.5529,0.0,0.0,0.0,0.0,0.0,0.0,0.0,0.0,0.0,0.0,0.0,-0.9015,-0.8997,-0.9232,-0.9727,-0.9294,-0.922,-0.9727,-0.9003,-0.8186,-0.7369,-0.8948,-0.9752,-0.9349,-0.973,-1.0179,-1.0593,-1.0798,-1.0688,-1.0181,-1.0147,-1.0196,-1.0196,-1.0196,-1.0196,-1.0196,-1.0202,-1.034,-1.0795,-1.1197,-1.1649,-1.2118,-1.2887,-1.3328,-1.305,-1.4301,-1.539,-1.5409,-1.5409,-1.5409,-1.5331,-1.4688,-1.4007,-1.3424,-1.2353,-1.1262,-1.0425,-1.0308,-1.0308,-1.0308,-1.0308,-1.032,-1.0312,-1.0309,-1.0324,-1.0322,-1.0321,-1.0203,-0.9696,-0.8943,-0.7971,-3.6009,-3.5155,-3.4357,-3.3917,-3.3807,-3.3807,-3.3807,-3.3752,0.0,0.0,0.0,-3.0779,-3.0338,-3.0136,-2.9365,-2.8975,-2.8975,-2.8975,-2.9093,-2.9193,-2.8355,-2.764,-2.6988,-2.6219,-2.5431,-2.466,-2.4692,-2.4673,-2.4707,-2.4804,-2.452,-2.3871,-2.3106,-2.225,-2.1308,-2.0459,-2.0021,-2.0002,-1.9259,-1.8858,-1.8783,-1.7074,-1.6166,-1.6166,-1.5215,-1.4284,-1.3439,-1.3471,-1.3143,-1.2344,-1.2317,-1.2059,-1.1457,-1.1203,-1.0803,-1.0283,-1.0235,-1.0098,-0.9838,-0.9975,-0.9994,-0.9801,-1.0358,-1.0525,-1.0272,-1.02,-1.0232,-1.0314,-1.0388,-1.0713,-1.143,-1.176,-1.155,-1.0557,-1.0285,-1.0173,-1.0212,-1.0505,-1.0718,-1.0641,-1.0718,-1.0915,-1.1606,-1.1573,-1.1657,-1.1967,-1.2562,-1.2987,-1.3335,-1.4511,-1.5387,-1.5382,-1.5387,-1.5409,-1.529,-1.4669,-1.4143,-1.3987,-1.2606,-1.1242,-1.0542,-1.0308,-1.0308,-1.0308,-1.0308,-1.0315,-1.0308,-1.0312,-1.0308,-1.0307,-1.0323,-1.0321,-1.0262,-0.9746,-0.901,-3.6835,-3.6046,-3.5202,-3.4431,-3.3807,-3.3807,-3.3807,-3.3788,-3.366,-3.3183,-3.2394,-3.1586,-3.0834,-3.0155,-2.9342,-2.8975,-2.8975,-2.8975,-2.9017,0.0,-2.8217,-2.7429,-2.6661,-2.5968,-2.5224,-2.4497,-2.461,-2.4673,-2.4707,-2.4723,-2.4663,-2.4456,-2.3719,-2.2515,-2.1029,-2.0164,-1.975,-1.9762,-1.906,-1.8693,-1.8527,-1.6908,-1.6034,-1.5986,-1.5173,-1.4303,-1.3449,-1.3995,-1.396,-1.3182,-1.2924,-1.288,-1.3011,-1.1991,-1.1498,-1.1824,-1.1861,-1.1267,-0.9931,-1.0636,-1.0774,-1.0061,-1.2399,-1.3402,-1.1991,-1.1501,-1.1472,-1.1888,-1.1944,-1.2105,-1.2258,-1.2387,-1.2405,-1.2153,-1.0926,-1.0096,-1.0318,-1.1547,-1.234,-1.2359,-1.2355,-1.232,-1.244,-1.196,-1.2096,-1.316,-1.3121,-1.3296,-1.4497,-1.5182,-1.536,-1.5345,-1.5357,-1.5404,-1.5302,-1.4684,-1.4238,-1.4104,-1.2721,-1.1357,-1.0659,-1.0386,-1.0328,-1.0308,-1.0308,-1.031,-1.0315,-1.031,-1.0312,-1.0312,-1.0309,-1.0325,-1.0324,-1.0145,-0.9998,-3.7019,-3.6211,-3.5357,-3.4559,-3.3807,-3.3807,-3.3807,-3.3807,-3.3807,-3.3605,-3.3146,-3.1953,-3.1182,-3.076,-2.9544,-2.8975,-2.8975,-2.8975,-2.8975,-2.898,-2.8613,-2.7787,-2.6649,-2.6291,-2.5484,-2.4358,-2.4375,-2.4429,-2.4428,-2.4512,-2.4526,-2.4505,-2.3764,-2.2557,-2.0982,-2.0532,-2.0094,-1.9612,-1.9369,-1.9204,-1.9138,-1.7905,-1.703,-1.662,-1.5718,-1.4855,-1.4024,-1.432,-1.4334,-1.3971,-1.3882,-1.37,-1.3409,-1.3262,-1.2882,-1.227,-1.2214,-1.201,-1.1572,-1.2575,-1.2993,-1.2557,-1.3829,-1.4404,-1.3625,-1.2816,-1.2346,-1.2306,-1.2319,-1.2565,-1.3025,-1.3036,-1.306,-1.3244,-1.2971,-1.2488,-1.1851,-1.3062,-1.4085,-1.4022,-1.3268,-1.2897,-1.3361,-1.2668,-1.2591,-1.3709,-1.3508,-1.3795,-1.5063,-1.5311,-1.5338,-1.5323,-1.533,-1.5349,-1.5316,-1.5054,-1.4784,-1.4745,-1.3325,-1.2204,-1.161,-1.1049,-1.0386,-1.0308,-1.0308,-1.0308,-1.0308,-1.0323,-1.031,-1.0312,-1.0312,-1.031,-1.031,-1.0307,-1.0275,-3.7165,-3.6229,-3.5587,-3.4724,-3.3825,-3.3807,-3.3807,-3.3807,-3.3807,-3.3807,-3.3587,-3.2118,-3.1403,-3.1219,-2.9732,-2.8975,-2.8975,-2.8975,-2.8975,-2.8975,-2.8975,-2.8172,-2.6722,-2.6612,-2.5768,-2.4355,-2.419,-2.419,-2.4209,-2.4321,-2.4355,-2.4263,-2.3489,-2.2376,-2.111,-2.0718,-2.0173,-1.9495,-1.954,-1.9593,-1.9593,-1.8719,-1.785,-1.7071,-1.6177,-1.5307,-1.4561,-1.4488,-1.4488,-1.4488,-1.4552,-1.4298,-1.3729,-1.4317,-1.4107,-1.291,-1.2743,-1.2938,-1.3374,-1.4192,-1.4712,-1.4712,-1.4712,-1.4712,-1.4637,-1.3961,-1.329,-1.2918,-1.2934,-1.3217,-1.3783,-1.3774,-1.375,-1.4072,-1.4789,-1.4589,-1.359,-1.4468,-1.5284,-1.5129,-1.41,-1.3616,-1.3964,-1.3535,-1.3303,-1.3786,-1.3984,-1.4394,-1.511,-1.5284,-1.5284,-1.5284,-1.5284,-1.5166,-1.5082,-1.4976,-1.4843,-1.4805,-1.3445,-1.262,-1.2284,-1.1355,-1.0424,-1.0308,-1.0308,-1.0308,-1.031,-1.0318,-1.0306,-1.031,-1.0312,-1.0312,-1.0312,-1.0309,-1.028,-3.7679,-3.6395,-3.6174,-3.5257,-3.3862,-3.3807,-3.3807,-3.3807,-3.3807,-3.3807,-3.3642,-3.2118,-3.1403,-3.1182,-2.9732,-2.9012,-2.9017,-2.8975,-2.8975,-2.8975,-2.8975,-2.8154,-2.6741,-2.6612,-2.5768,-2.4373,-2.4226,-2.419,-2.419,-2.4228,-2.4228,-2.4044,-2.2701,-2.1927,-2.1559,-2.0252,-1.9427,-1.932,-1.9335,-1.9335,-1.928,-1.8548,-1.7743,-1.6954,-1.6127,-1.5307,-1.4579,-1.4488,-1.4488,-1.4488,-1.4517,-1.4492,-1.4434,-1.4603,-1.4579,-1.4354,-1.4394,-1.4526,-1.4534,-1.4645,-1.4712,-1.4712,-1.4712,-1.4712,-1.4712,-1.46,-1.4526,-1.4387,-1.4474,-1.4504,-1.4691,-1.4635,-1.4595,-1.4652,-1.5018,-1.5207,-1.5023,-1.5187,-1.5284,-1.5284,-1.5013,-1.5091,-1.4955,-1.437,-1.396,-1.4095,-1.4626,-1.4994,-1.5211,-1.5284,-1.5284,-1.5284,-1.5284,-1.4983,-1.4485,-1.4173,-1.4063,-1.3325,-1.2315,-1.2085,-1.2129,-1.1443,-1.0307,-1.0298,-1.0304,-1.0304,-1.0308,-1.0318,-1.0284,-1.0305,-1.0308,-1.0312,-1.0312,-1.031,-1.0301,-3.7771,-3.6303,-3.6285,-3.533,-3.3899,-3.3807,-3.3807,-3.3807,-3.3807,-3.3807,-3.3678,-3.2614,-3.1843,-3.1329,-3.021,-2.9457,-2.9012,-2.8975,-2.8975,-2.8975,-2.8975,-2.8393,-2.7365,-2.6814,-2.5988,-2.4924,-2.4447,-2.419,-2.419,-2.419,-2.419,-2.4153,-2.3511,-2.2758,-2.1839,-2.1123,-2.0315,-1.9323,-1.9286,-1.9286,-1.9268,-1.8977,-1.8427,-1.7638,-1.683,-1.6022,-1.5252,-1.4774,-1.4488,-1.4488,-1.4488,-1.4499,-1.4504,-1.4556,-1.4589,-1.4614,-1.4672,-1.4712,-1.4712,-1.4712,-1.4712,-1.4712,-1.4712,-1.4712,-1.4712,-1.4712,-1.4712,-1.4712,-1.4751,-1.4743,-1.4753,-1.4744,-1.4775,-1.4821,-1.4917,-1.5033,-1.5275,-1.5284,-1.5284,-1.5284,-1.5265,-1.526,-1.526,-1.4994,-1.4781,-1.48,-1.5129,-1.5265,-1.5284,-1.5284,-1.5284,-1.5284,-1.5284,-1.5173,-1.4755,-1.4295,-1.3915,-1.3411,-1.2365,-1.1783,-1.1925,-1.1194,-1.0251,-1.0254,-1.0256,-1.0241,-1.0228,-1.0284,-1.0276,-1.0276,-1.0303,-1.0309,-1.0312,-1.0311,-1.0324,-3.7753,-3.634,-3.5826,-3.4926,-3.3825,-3.3807,-3.3807,-3.3807,-3.3807,-3.3807,-3.3752,-3.3183,-3.2485,-3.1659,-3.0668,-2.9879,-2.9365,-2.9104,-2.8975,-2.8975,-2.8975,-2.8576,-2.7787,-2.7218,-2.6374,-2.5458,-2.4814,-2.4428,-2.4226,-2.419,-2.419,-2.4171,-2.3988,-2.318,-2.1914,-2.1619,-2.0739,-1.9433,-1.9286,-1.9286,-1.9286,-1.9286,-1.8904,-1.8133,-1.7458,-1.667,-1.5741,-1.494,-1.4488,-1.4488,-1.4488,-1.4499,-1.4492,-1.4499,-1.4515,-1.4603,-1.4643,-1.4672,-1.4701,-1.4712,-1.4712,-1.4712,-1.4712,-1.4712,-1.4712,-1.4712,-1.4712,-1.4712,-1.4712,-1.4712,-1.4712,-1.4712,-1.4716,-1.4757,-1.4726,-1.485,-1.5082,-1.5204,-1.5289,-1.5234,-1.5193,-1.521,-1.5265,-1.526,-1.5226,-1.5245,-1.5265,-1.5284,-1.5284,-1.5284,-1.5284,-1.5284,-1.5284,-1.5284,-1.5245,-1.4568,-1.4037,-1.3171,-1.2092,-1.1608,-1.1759,-1.0908,-1.0215,-1.0216,-1.0202,-1.0202,-1.0202,-1.0246,-1.0261,-1.0242,-1.0251,-1.0285,-1.0289,-1.0293,-1.031,-3.7771,-3.6138,-3.4578,-3.3935,-3.3807,-3.3807,-3.3807,-3.3807,-3.3807,-3.3807,-3.3807,-3.3733,-3.3293,-3.2467,-3.0962,-3.0191,-3.0026,-2.9347,-2.8975,-2.8975,-2.8975,-2.8576,-2.7824,-2.7732,-2.6924,-2.5678,-2.5328,-2.4907,-2.4226,-2.419,-2.419,-2.4171,-2.3547,-2.2685,-2.1804,-2.1088,-2.0189,-1.9399,-1.9286,-1.9286,-1.9286,-1.9286,-1.8922,-1.8225,-1.7807,-1.7073,-1.5876,-1.4958,-1.4524,-1.4506,-1.4506,-1.4488,-1.4488,-1.4488,-1.4533,-1.4592,-1.4585,-1.4643,-1.4683,-1.4712,-1.4712,-1.4712,-1.4712,-1.4712,-1.4712,-1.4712,-1.4712,-1.4712,-1.4712,-1.4712,-1.4712,-1.4712,-1.4712,-1.4703,-1.4722,-1.4732,-1.4744,-1.508,-1.5176,-1.5075,-1.5114,-1.5164,-1.518,-1.5246,-1.5275,-1.5299,-1.5284,-1.5284,-1.5284,-1.5284,-1.5284,-1.5284,-1.5284,-1.5284,-1.5226,-1.4564,-1.338,-1.2707,-1.2378,-1.1624,-1.1392,-1.1102,-1.0641,-1.0215,-1.0196,-1.0199,-1.0183,-1.0197,-1.0198,-1.0209,-1.0205,-1.0219,-1.0263,-1.0288,-1.0292,-3.6964,-3.5385,-3.4284,-3.3807,-3.3807,-3.3807,-3.3807,-3.3807,-3.3807,-3.3807,-3.3807,-3.3807,-3.3642,-3.3293,-3.1696,-3.0687,-3.0155,-2.9384,-2.8975,-2.8975,-2.8975,-2.8851,-2.8558,-2.8062,-2.7548,-2.6869,-2.5878,-2.4999,-2.4281,-2.419,-2.419,-2.4171,-2.3914,-2.3125,-2.1969,-2.1492,-2.0684,-1.9452,-1.9286,-1.9286,-1.9286,-1.9286,-1.9143,-1.8867,-1.8265,-1.7748,-1.7252,-1.5967,-1.527,-1.527,-1.4793,-1.4488,-1.4488,-1.4499,-1.4504,-1.4549,-1.4563,-1.4643,-1.4683,-1.4712,-1.4712,-1.4712,-1.4712,-1.4712,-1.4712,-1.4712,-1.4712,-1.4712,-1.4712,-1.4712,-1.4712,-1.4712,-1.4712,-1.4712,-1.4712,-1.4712,-1.4714,-1.4832,-1.4917,-1.495,-1.5018,-1.5059,-1.5047,-1.5108,-1.5168,-1.518,-1.525,-1.5289,-1.5284,-1.5284,-1.5284,-1.5284,-1.5284,-1.5284,-1.5284,-1.4564,-1.3709,-1.3264,-1.2823,-1.2243,-1.1875,-1.1988,-1.1682,-1.1047,-1.076,-1.0644,-1.0783,-1.0573,-1.0515,-1.0472,-1.0448,-1.0592,-1.0227,-1.0375,-1.0381,-3.6688,-3.5404,-3.4541,-3.4027,-3.3825,-3.3807,-3.3807,-3.3807,-3.3807,-3.3807,-3.3807,-3.3807,-3.3807,-3.3532,-3.21,-3.1127,-3.0485,-2.9531,-2.8975,-2.8975,-2.8975,-2.8975,-2.8925,-2.8448,-2.8026,-2.7567,-2.6174,-2.5109,-2.4612,-2.4318,-2.4208,-2.419,-2.419,-2.3529,-2.2354,-2.1932,-2.1086,-1.9913,-1.9455,-1.9286,-1.9286,-1.9286,-1.9286,-1.9216,-1.8757,-1.8353,-1.8115,-1.727,-1.6573,-1.6041,-1.5086,-1.4738,-1.5197,-1.5025,-1.489,-1.492,-1.4966,-1.4881,-1.4738,-1.4712,-1.4691,-1.4659,-1.468,-1.4712,-1.4712,-1.4712,-1.4712,-1.4712,-1.4712,-1.4712,-1.4712,-1.4712,-1.4712,-1.4712,-1.4712,-1.4712,-1.4712,-1.4712,-1.4746,-1.4822,-1.49,-1.4917,-1.4917,-1.4992,-1.5062,-1.5101,-1.5188,-1.524,-1.5294,-1.5284,-1.5284,-1.5284,-1.5284,-1.5284,-1.5284,-1.4835,-1.4231,-1.3786,-1.3577,-1.2978,-1.2649,-1.2784,-1.2707,-1.2034,-1.167,-1.1496,-1.1283,-1.1073,-1.0986,-1.0961,-1.1263,-1.1563,-1.1088,-1.0594,-1.0604,-3.7,-3.6156,-3.5339,-3.4541,-3.3954,-3.3844,-3.3807,-3.3807,-3.3807,-3.3807,-3.3807,-3.3807,-3.3807,-3.3495,-3.2228,-3.1421,-3.1035,-2.9787,-2.9067,-2.9017,-2.8975,-2.8975,-2.8975,-2.8925,-2.8484,-2.7732,-2.6211,-2.5439,-2.5254,-2.4557,-2.419,-2.419,-2.419,-2.3749,-2.296,-2.2226,-2.1418,-2.0482,-1.9748,-1.936,-1.9286,-1.9286,-1.9286,-1.9286,-1.9231,-1.8867,-1.8207,-1.8757,-1.8335,-1.6927,-1.5478,-1.5313,-1.6395,-1.6096,-1.5723,-1.5766,-1.5778,-1.542,-1.4802,-1.4701,-1.4629,-1.4563,-1.4637,-1.4691,-1.4672,-1.4701,-1.4701,-1.4701,-1.4683,-1.4683,-1.4701,-1.4712,-1.4712,-1.4712,-1.4712,-1.4712,-1.4712,-1.4712,-1.4712,-1.4724,-1.4766,-1.4821,-1.4883,-1.496,-1.5004,-1.5049,-1.5089,-1.5157,-1.5265,-1.5279,-1.5284,-1.5284,-1.5231,-1.5188,-1.5231,-1.5226,-1.4719,-1.4269,-1.4177,-1.3868,-1.3635,-1.3655,-1.3926,-1.3504,-1.3698,-1.3524,-1.2769,-1.2537,-1.2154,-1.2129,-1.2407,-1.2397,-1.1985,-1.1477,-1.0966,-3.7019,-3.6211,-3.5385,-3.4862,-3.4559,-3.4045,-3.3807,-3.3807,-3.3807,-3.3807,-3.3807,-3.3807,-3.3807,-3.3587,-3.2687,-3.1916,-3.1311,-3.0283,-2.9549,-2.9067,-2.8975,-2.8975,-2.8975,-2.8975,-2.8553,-2.775,-2.6741,-2.5915,-2.5348,-2.4593,-2.419,-2.419,-2.419,-2.3768,-2.307,-2.2721,-2.1969,-2.0647,-2.0262,-1.9877,-1.936,-1.9286,-1.9286,-1.9286,-1.9286,-1.9143,-1.8959,-1.9161,-1.879,-1.7752,-1.6725,-1.6395,-1.6762,-1.667,-1.6542,-1.65,-1.606,-1.5416,-1.4703,-1.4618,-1.4596,-1.4522,-1.4533,-1.4596,-1.4611,-1.4622,-1.4622,-1.4614,-1.4614,-1.4643,-1.4701,-1.4712,-1.4701,-1.4712,-1.4712,-1.4712,-1.4712,-1.4712,-1.4712,-1.4712,-1.4705,-1.4736,-1.4775,-1.4841,-1.4883,-1.4904,-1.4999,-1.514,-1.5196,-1.5236,-1.5246,-1.5299,-1.5176,-1.5061,-1.5114,-1.5188,-1.4959,-1.4719,-1.4657,-1.4603,-1.4452,-1.4414,-1.4704,-1.4917,-1.5168,-1.5033,-1.4336,-1.3794,-1.3311,-1.2947,-1.2881,-1.2814,-1.275,-1.2493,-1.2136,-3.7459,-3.6652,-3.5844,-3.5265,-3.4899,-3.4137,-3.3807,-3.3807,-3.3807,-3.3807,-3.3807,-3.3807,-3.3807,-3.3587,-3.2669,-3.1898,-3.1311,-3.0265,-2.9494,-2.9072,-2.8975,-2.8975,-2.8975,-2.8975,-2.8773,-2.8136,-2.7126,-2.6355,-2.5805,-2.4759,-2.419,-2.419,-2.419,-2.3969,-2.3437,-2.3125,-2.2299,-2.1143,-2.0649,-2.0115,-1.9455,-1.9286,-1.9286,-1.9286,-1.9286,-1.9286,-1.9286,-1.9286,-1.9051,-1.85,-1.777,-1.7477,-1.7715,-1.7532,-1.7348,-1.7238,-1.6862,-1.6072,-1.4774,-1.4545,-1.4545,-1.4517,-1.4488,-1.4511,-1.4556,-1.4556,-1.4549,-1.4592,-1.4603,-1.4622,-1.4643,-1.4672,-1.4672,-1.4712,-1.4712,-1.4712,-1.4712,-1.4712,-1.4712,-1.4712,-1.4712,-1.4712,-1.4732,-1.4744,-1.4785,-1.4803,-1.4898,-1.5073,-1.5139,-1.5204,-1.524,-1.5176,-1.4989,-1.495,-1.4985,-1.5061,-1.514,-1.5118,-1.5113,-1.5067,-1.4989,-1.4975,-1.5129,-1.511,-1.5284,-1.5284,-1.4704,-1.4433,-1.4027,-1.374,-1.3551,-1.3849,-1.4035,-1.3965,-1.3671,-3.8248,-3.7507,-3.6633,-3.5807,-3.5045,-3.4192,-3.3807,-3.3807,-3.3807,-3.3807,-3.3807,-3.3807,-3.3807,-3.3458,-3.2467,-3.1751,-3.1164,-3.0118,-2.9287,-2.9085,-2.8994,-2.8994,-2.8975,-2.8975,-2.8943,-2.8663,-2.7438,-2.6704,-2.6392,-2.5089,-2.4226,-2.4208,-2.419,-2.419,-2.3969,-2.3419,-2.274,-2.1896,-2.107,-2.028,-1.9473,-1.9305,-1.9286,-1.9286,-1.9286,-1.9286,-1.9286,-1.9286,-1.9286,-1.9194,-1.8519,-1.8445,-1.8941,-1.8555,-1.817,-1.8151,-1.8133,-1.7014,-1.5368,-1.4995,-1.4719,-1.4554,-1.4488,-1.4488,-1.4499,-1.4511,-1.4522,-1.4578,-1.4589,-1.4581,-1.4603,-1.4614,-1.4632,-1.4701,-1.4712,-1.4712,-1.4712,-1.4712,-1.4712,-1.4712,-1.4712,-1.4712,-1.4712,-1.4703,-1.4736,-1.4776,-1.4813,-1.4923,-1.5033,-1.5107,-1.5177,-1.5092,-1.4919,-1.4832,-1.4857,-1.4938,-1.4999,-1.5094,-1.5165,-1.5218,-1.527,-1.5284,-1.5284,-1.5284,-1.5275,-1.5275,-1.5207,-1.4859,-1.4781,-1.4684,-1.4805,-1.5216,-1.5147,-1.4865,-1.4675,-3.8579,-3.8248,-3.689,-3.6174,-3.5752,-3.4449,-3.3807,-3.3807,-3.3807,-3.3807,-3.3807,-3.3807,-3.3807,-3.3752,-3.333,-3.254,-3.1476,-3.0889,-3.0026,-2.9104,-2.8929,-2.897,-2.8975,-2.8975,-2.8975,-2.8833,-2.7934,-2.7163,-2.6576,-2.5529,-2.474,-2.4208,-2.419,-2.419,-2.4135,-2.3969,-2.3474,-2.2703,-2.1877,-2.1051,-2.0244,-1.962,-1.9305,-1.9286,-1.9323,-1.9323,-1.9305,-1.9286,-1.9286,-1.9286,-1.9124,-1.9051,-1.925,-1.9066,-1.8904,-1.8849,-1.8427,-1.8225,-1.7821,-1.6848,-1.579,-1.4634,-1.4488,-1.4488,-1.4488,-1.4488,-1.4511,-1.4533,-1.4526,-1.4549,-1.4581,-1.4581,-1.4622,-1.4701,-1.4712,-1.4712,-1.4712,-1.4712,-1.4712,-1.4712,-1.4712,-1.4712,-1.4712,-1.4712,-1.4703,-1.4726,-1.4766,-1.4794,-1.4902,-1.4957,-1.5004,-1.5052,-1.4952,-1.4794,-1.4754,-1.4813,-1.489,-1.5,-1.5078,-1.5146,-1.5224,-1.5284,-1.5284,-1.5284,-1.5245,-1.5234,-1.527,-1.5129,-1.5265,-1.5284,-1.5289,-1.5289,-1.5289,-1.5119,-1.51,-3.8505,-3.8083,-3.6817,-3.6083,-3.5595,-3.4284,-3.3753,-3.3726,-3.3726,-3.3726,-3.3726,-3.3707,-3.3726,-3.3707,-3.3368,-3.2535,-3.14,-3.0986,-3.0125,-2.9125,-2.8881,-2.8905,-2.8952,-2.8975,-2.8975,-2.8883,-2.8191,-2.7383,-2.6594,-2.5786,-2.4999,-2.4337,-2.419,-2.419,-2.419,-2.4171,-2.3804,-2.307,-2.2501,-2.1896,-2.107,-2.0611,-2.0152,-1.9913,-1.9803,-1.9693,-1.9378,-1.9286,-1.9286,-1.9286,-1.9286,-1.9286,-1.9286,-1.9286,-1.9286,-1.9268,-1.8831,-1.8831,-1.8922,-1.7986,-1.6413,-1.4946,-1.4488,-1.4488,-1.4488,-1.4488,-1.4499,-1.4511,-1.4492,-1.4515,-1.4556,-1.4578,-1.4629,-1.4701,-1.4712,-1.4712,-1.4712,-1.4712,-1.4712,-1.4712,-1.4712,-1.4712,-1.4712,-1.4712,-1.4712,-1.4722,-1.4744,-1.4744,-1.4744,-1.4794,-1.4821,-1.4902,-1.4911,-1.4774,-1.4714,-1.4776,-1.4785,-1.4876,-1.4944,-1.5004,-1.5146,-1.5255,-1.527,-1.5255,-1.5218,-1.5201,-1.5234,-1.527,-1.5284,-1.5284,-1.5284,-1.5284,-1.5284,-1.5275,-1.5275,-3.823,-3.7422,-3.6633,-3.5732,-3.4869,-3.4064,-3.3643,-3.3605,-3.3605,-3.3605,-3.3605,-3.3605,-3.3615,-3.355,-3.2939,-3.2036,-3.118,-3.0527,-2.968,-2.9028,-2.881,-2.8834,-2.8863,-2.8952,-2.8975,-2.8902,-2.8227,-2.7475,-2.6704,-2.5878,-2.509,-2.441,-2.419,-2.4208,-2.419,-2.419,-2.3785,-2.329,-2.296,-2.2557,-2.1969,-2.162,-2.1071,-2.0427,-2.0134,-1.9858,-1.9452,-1.9286,-1.9286,-1.9286,-1.9286,-1.9286,-1.9286,-1.9286,-1.9286,-1.9286,-1.9231,-1.9213,-1.9194,-1.839,-1.6853,-1.5038,-1.4488,-1.4488,-1.4488,-1.4488,-1.4488,-1.4488,-1.4579,-1.4731,-1.4706,-1.4674,-1.4596,-1.464,-1.468,-1.4701,-1.4712,-1.4701,-1.4683,-1.4701,-1.4701,-1.4701,-1.4683,-1.4672,-1.4683,-1.4712,-1.4732,-1.4722,-1.4712,-1.4744,-1.4755,-1.4764,-1.4754,-1.4743,-1.4724,-1.4755,-1.4736,-1.4755,-1.4794,-1.4883,-1.5047,-1.5164,-1.5204,-1.5212,-1.512,-1.512,-1.5176,-1.521,-1.525,-1.527,-1.5236,-1.527,-1.5279,-1.526,-1.5255,-3.82,-3.7363,-3.649,-3.5637,-3.4794,-3.398,-3.3605,-3.3605,-3.3605,-3.3577,-3.3605,-3.3605,-3.3605,-3.355,-3.2812,-3.1973,-3.1136,-3.0323,-2.9551,-2.8834,-2.8785,-2.8743,-2.8767,-2.8858,-2.8952,-2.892,-2.8828,-2.797,-2.6851,-2.63,-2.5603,-2.4355,-2.4133,-2.4151,-2.417,-2.4094,-2.4057,-2.3822,-2.327,-2.2923,-2.2703,-2.2135,-2.1476,-2.0631,-1.9968,-1.9528,-1.9378,-1.9286,-1.9286,-1.9286,-1.9286,-1.9286,-1.9286,-1.9286,-1.9286,-1.9286,-1.9286,-1.9286,-1.9231,-1.8867,-1.7638,-1.4946,-1.4488,-1.4488,-1.4488,-1.4488,-1.4488,-1.4616,-1.5031,-1.5325,-1.5319,-1.4835,-1.4607,-1.4556,-1.4589,-1.4651,-1.4672,-1.4651,-1.464,-1.4629,-1.4629,-1.4622,-1.4614,-1.4614,-1.4643,-1.4683,-1.4712,-1.4712,-1.4712,-1.4712,-1.4712,-1.4712,-1.4712,-1.4712,-1.4722,-1.4734,-1.4724,-1.4703,-1.4726,-1.4747,-1.4925,-1.5018,-1.5061,-1.5038,-1.4974,-1.5011,-1.5073,-1.5121,-1.5133,-1.5151,-1.518,-1.521,-1.5234,-1.5224,-1.521,-3.7882,-3.6742,-3.6236,-3.533,-3.4251,-3.3731,-3.352,-3.3491,-3.3509,-3.3509,-3.3491,-3.3491,-3.3509,-3.3473,-3.3057,-3.2311,-3.1028,-2.9857,-2.9105,-2.8717,-2.8687,-2.8712,-2.8718,-2.8785,-2.8858,-2.8929,-2.8975,-2.8077,-2.6976,-2.6463,-2.5709,-2.4261,-2.4075,-2.4074,-2.4094,-2.4034,-2.4054,-2.4001,-2.3671,-2.3433,-2.3381,-2.3088,-2.2191,-2.1054,-1.9991,-1.9292,-1.9277,-1.9277,-1.9292,-1.9289,-1.9286,-1.9286,-1.9286,-1.9286,-1.9286,-1.9286,-1.9286,-1.9286,-1.9286,-1.9103,-1.7876,-1.4836,-1.4524,-1.4488,-1.4488,-1.4488,-1.4799,-1.5129,-1.549,-1.5674,-1.5637,-1.497,-1.4573,-1.4499,-1.4522,-1.4585,-1.4596,-1.4589,-1.4578,-1.4585,-1.4596,-1.46,-1.4592,-1.4592,-1.4592,-1.4651,-1.4701,-1.4701,-1.4712,-1.4712,-1.4712,-1.4712,-1.4712,-1.4712,-1.4712,-1.4712,-1.4722,-1.4712,-1.4703,-1.4724,-1.4785,-1.485,-1.4883,-1.4868,-1.4841,-1.4841,-1.4911,-1.496,-1.503,-1.5061,-1.5114,-1.514,-1.5158,-1.5183,-1.517,-3.757,-3.6176,-3.6049,-3.5078,-3.3771,-3.3553,-3.3452,-3.3393,-3.3393,-3.3422,-3.3393,-3.3393,-3.3422,-3.3368,-3.3216,-3.2309,-3.0776,-2.9445,-2.8648,-2.863,-2.8612,-2.8637,-2.8669,-2.8712,-2.8767,-2.8863,-2.8905,-2.8109,-2.7116,-2.6493,-2.5756,-2.4476,-2.4034,-2.4014,-2.3996,-2.3976,-2.3996,-2.3979,-2.3903,-2.3886,-2.3964,-2.3855,-2.3068,-2.1606,-2.0089,-1.9319,-1.9282,-1.9282,-1.928,-1.9289,-1.9289,-1.9286,-1.9286,-1.9286,-1.9286,-1.9286,-1.9286,-1.9286,-1.9286,-1.9158,-1.8096,-1.5294,-1.5331,-1.4928,-1.4744,-1.4891,-1.5368,-1.5698,-1.601,-1.6078,-1.5986,-1.5398,-1.4848,-1.4573,-1.4488,-1.4488,-1.4499,-1.4545,-1.4545,-1.4522,-1.4533,-1.4556,-1.4567,-1.456,-1.4589,-1.46,-1.4651,-1.4672,-1.4691,-1.4701,-1.4701,-1.4691,-1.4691,-1.4672,-1.4654,-1.4701,-1.4701,-1.4701,-1.4701,-1.4701,-1.4701,-1.4754,-1.4794,-1.4764,-1.4753,-1.4774,-1.4775,-1.4823,-1.4885,-1.496,-1.4996,-1.5026,-1.5054,-1.5133,-1.5127,-3.7822,-3.6867,-3.6212,-3.5314,-3.4401,-3.3712,-3.3393,-3.3393,-3.3393,-3.3393,-3.3393,-3.3393,-3.3393,-3.3248,-3.2651,-3.1556,-3.026,-2.921,-2.8685,-2.8605,-2.8587,-2.8612,-2.8637,-2.8687,-2.8718,-2.8761,-2.8791,-2.8268,-2.7415,-2.6717,-2.5877,-2.5017,-2.4247,-2.3955,-2.3937,-2.3896,-2.3896,-2.3937,-2.3896,-2.3917,-2.3996,-2.3814,-2.3229,-2.1735,-2.0276,-1.9565,-1.9344,-1.9321,-1.9282,-1.928,-1.9292,-1.9289,-1.9289,-1.9289,-1.9289,-1.9286,-1.9286,-1.9286,-1.9286,-1.925,-1.9069,-1.8592,-1.8188,-1.6867,-1.5716,-1.5698,-1.6358,-1.6285,-1.6615,-1.6927,-1.7587,-1.6468,-1.546,-1.4891,-1.4671,-1.4763,-1.4774,-1.4915,-1.4878,-1.4885,-1.4768,-1.4522,-1.4533,-1.4545,-1.4556,-1.4556,-1.4596,-1.4618,-1.4618,-1.464,-1.4691,-1.468,-1.4651,-1.4632,-1.4614,-1.4654,-1.4683,-1.4672,-1.4661,-1.4661,-1.4672,-1.4701,-1.4712,-1.4712,-1.4712,-1.4732,-1.4724,-1.4724,-1.4794,-1.4886,-1.4883,-1.489,-1.495,-1.5034,-1.5066,-3.7849,-3.6971,-3.6191,-3.5362,-3.4534,-3.3737,-3.3393,-3.3393,-3.3393,-3.3393,-3.3393,-3.3393,-3.3393,-3.3284,-3.3049,-3.1926,-3.055,-2.959,-2.9029,-2.8739,-2.8587,-2.8587,-2.8587,-2.8637,-2.8619,-2.8662,-2.8651,-2.8337,-2.7588,-2.6745,-2.5976,-2.5117,-2.4275,-2.3876,-2.3876,-2.3837,-2.3837,-2.3858,-2.3837,-2.3837,-2.3864,-2.3628,-2.2809,-2.2081,-2.108,-2.0461,-2.0316,-1.9931,-1.9857,-1.9782,-1.9468,-1.9335,-1.9295,-1.9277,-1.9277,-1.9289,-1.9289,-1.9286,-1.9286,-1.9286,-1.925,-1.9268,-1.9286,-1.8684,-1.7638,-1.7674,-1.7734,-1.7367,-1.7275,-1.766,-1.7986,-1.7147,-1.6358,-1.5918,-1.5753,-1.6133,-1.6665,-1.6867,-1.6431,-1.5722,-1.5056,-1.4774,-1.4499,-1.4511,-1.4522,-1.454,-1.4552,-1.4552,-1.4545,-1.4585,-1.4637,-1.4607,-1.4596,-1.4589,-1.4581,-1.4622,-1.4661,-1.4651,-1.4622,-1.4622,-1.4651,-1.4661,-1.4701,-1.4712,-1.4712,-1.4712,-1.4712,-1.4732,-1.4764,-1.4803,-1.4823,-1.4832,-1.4877,-1.4921,-1.496,-3.786,-3.7142,-3.62,-3.5439,-3.4769,-3.381,-3.3393,-3.3393,-3.3393,-3.3393,-3.3393,-3.3393,-3.3393,-3.3339,-3.3049,-3.2306,-3.0966,-3.016,-2.9337,-2.8739,-2.8587,-2.8587,-2.8587,-2.8587,-2.8612,-2.8612,-2.8612,-2.8336,-2.7822,-2.704,-2.6168,-2.5419,-2.4505,-2.3904,-2.3871,-2.3795,-2.3795,-2.3795,-2.3795,-2.3816,-2.3676,-2.3189,-2.2733,-2.2546,-2.1839,-2.1313,-2.115,-2.0753,-2.0372,-2.017,-1.9822,-1.9435,-1.9305,-1.9251,-1.9232,-1.9227,-1.9259,-1.9289,-1.9286,-1.9286,-1.9286,-1.9286,-1.9286,-1.925,-1.9194,-1.8831,-1.8904,-1.8482,-1.8276,-1.8324,-1.8375,-1.7821,-1.7491,-1.7403,-1.7458,-1.7734,-1.8452,-1.862,-1.8115,-1.7146,-1.5806,-1.5142,-1.5032,-1.4499,-1.4499,-1.4511,-1.4529,-1.4529,-1.4511,-1.4511,-1.454,-1.4529,-1.4511,-1.4533,-1.4556,-1.4589,-1.4611,-1.4611,-1.46,-1.4589,-1.46,-1.4629,-1.464,-1.4659,-1.4712,-1.4712,-1.4712,-1.4712,-1.4743,-1.4744,-1.4773,-1.4793,-1.4803,-1.4832,-1.4859,-3.8171,-3.7902,-3.6435,-3.5747,-3.5421,-3.4045,-3.3393,-3.3393,-3.3393,-3.3393,-3.3393,-3.3393,-3.3393,-3.3284,-3.2723,-3.1908,-3.0985,-3.0278,-2.9463,-2.8739,-2.8587,-2.8587,-2.8587,-2.8587,-2.8587,-2.8587,-2.8587,-2.8576,-2.8202,-2.7568,-2.6801,-2.5927,-2.5095,-2.4502,-2.3789,-2.3753,-2.3795,-2.3795,-2.3795,-2.3795,-2.3687,-2.3107,-2.2695,-2.2282,-2.1753,-2.1378,-2.1435,-2.1169,-2.0872,-2.0463,-2.0352,-1.9895,-1.9348,-1.9104,-1.9053,-1.9102,-1.9182,-1.9286,-1.9271,-1.9256,-1.9271,-1.9271,-1.9286,-1.9286,-1.9286,-1.9289,-1.9216,-1.9234,-1.8963,-1.8843,-1.8919,-1.8962,-1.8959,-1.8831,-1.8684,-1.8775,-1.9274,-1.8912,-1.8535,-1.8236,-1.6778,-1.6119,-1.5767,-1.5056,-1.4488,-1.4488,-1.4506,-1.4506,-1.4488,-1.4488,-1.4964,-1.5093,-1.4653,-1.4584,-1.4706,-1.4722,-1.4585,-1.4596,-1.4567,-1.4556,-1.4567,-1.4585,-1.4533,-1.4563,-1.4629,-1.4701,-1.4712,-1.4712,-1.4712,-1.4722,-1.4732,-1.4732,-1.4722,-1.4753,-1.4774,-3.8192,-3.8047,-3.6472,-3.5802,-3.5602,-3.4099,-3.3393,-3.3393,-3.3393,-3.3393,-3.3393,-3.3393,-3.3393,-3.3284,-3.2977,-3.218,-3.1148,-3.0568,-2.9753,-2.8811,-2.8587,-2.8587,-2.8587,-2.8587,-2.8587,-2.8587,-2.8587,-2.8587,-2.8334,-2.7773,-2.6953,-2.6015,-2.5201,-2.4356,-2.3817,-2.366,-2.3689,-2.3732,-2.3707,-2.3642,-2.3508,-2.3187,-2.2856,-2.2741,-2.2387,-2.2205,-2.2081,-2.1728,-2.1576,-2.1281,-2.1107,-2.0425,-1.9849,-1.9561,-1.9417,-1.8789,-1.8843,-1.9014,-1.9227,-1.9196,-1.9193,-1.9274,-1.9289,-1.9286,-1.9286,-1.9274,-1.9227,-1.913,-1.9048,-1.9033,-1.9033,-1.9048,-1.9162,-1.9225,-1.9274,-1.9286,-1.9162,-1.8679,-1.8329,-1.8091,-1.7859,-1.7116,-1.6414,-1.5769,-1.5015,-1.4532,-1.452,-1.4502,-1.4507,-1.4488,-1.5166,-1.601,-1.535,-1.4683,-1.486,-1.4945,-1.4669,-1.4607,-1.4522,-1.4511,-1.454,-1.4529,-1.4517,-1.4522,-1.4618,-1.4661,-1.4701,-1.4712,-1.4712,-1.4712,-1.4712,-1.4712,-1.4712,-1.4712,-1.4743,-3.8192,-3.8047,-3.6472,-3.5802,-3.5657,-3.4081,-3.3393,-3.3393,-3.3393,-3.3393,-3.3393,-3.3393,-3.3393,-3.3302,-3.3049,-3.2216,-3.1003,-3.0785,-2.9862,-2.9011,-2.8587,-2.8587,-2.8587,-2.8587,-2.8587,-2.8587,-2.8587,-2.8587,-2.8381,-2.7915,-2.714,-2.6111,-2.5636,-2.4811,-2.4153,-2.3815,-2.3743,-2.354,-2.3445,-2.3376,-2.3353,-2.3194,-2.3038,-2.2982,-2.2993,-2.301,-2.2898,-2.2471,-2.2224,-2.1856,-2.159,-2.1025,-2.0573,-2.0187,-1.9681,-1.9087,-1.8894,-1.8796,-1.8878,-1.8895,-1.903,-1.913,-1.9048,-1.8893,-1.9227,-1.9196,-1.9132,-1.8999,-1.8842,-1.8807,-1.8825,-1.8825,-1.893,-1.9099,-1.9227,-1.9274,-1.9178,-1.8642,-1.8301,-1.8213,-1.7999,-1.7737,-1.7077,-1.646,-1.5699,-1.4806,-1.4534,-1.4587,-1.4508,-1.4483,-1.538,-1.6355,-1.6958,-1.6065,-1.5551,-1.5496,-1.5074,-1.4647,-1.4611,-1.4494,-1.4506,-1.4517,-1.4488,-1.4533,-1.4607,-1.4629,-1.464,-1.468,-1.4712,-1.4712,-1.4712,-1.4712,-1.4712,-1.4712,-1.4712,-3.8192,-3.8065,-3.649,-3.5838,-3.5693,-3.4099,-3.3411,-3.3393,-3.3393,-3.3393,-3.3393,-3.3393,-3.3393,-3.3266,-3.2712,-3.1952,-3.0948,-3.0206,-2.9437,-2.8851,-2.8587,-2.8587,-2.8562,-2.8543,-2.8587,-2.8543,-2.8587,-2.8587,-2.8474,-2.8121,-2.7504,-2.6916,-2.6196,-2.5797,-2.5085,-2.4294,-2.3728,-2.3395,-2.3164,-2.3133,-2.3116,-2.3017,-2.2935,-2.2764,-2.2738,-2.2738,-2.2738,-2.2556,-2.2372,-2.1953,-2.1884,-2.1814,-2.1441,-2.0845,-2.0157,-1.9282,-1.8987,-1.8737,-1.8461,-1.8548,-1.886,-1.8877,-1.8663,-1.8375,-1.8877,-1.8625,-1.8605,-1.8861,-1.866,-1.8585,-1.8641,-1.8715,-1.8697,-1.8753,-1.8877,-1.8946,-1.8824,-1.8565,-1.8277,-1.8256,-1.8113,-1.7902,-1.7572,-1.6906,-1.6212,-1.5338,-1.5334,-1.5371,-1.4563,-1.4545,-1.5567,-1.6694,-1.8229,-1.7954,-1.679,-1.6282,-1.5603,-1.5109,-1.4878,-1.4672,-1.4494,-1.4494,-1.4488,-1.4499,-1.4533,-1.4556,-1.4578,-1.4618,-1.464,-1.4691,-1.4712,-1.4712,-1.4712,-1.4712,-1.4712,-3.8192,-3.8083,-3.6997,-3.6236,-3.5747,-3.4624,-3.3864,-3.3429,-3.3393,-3.3393,-3.3393,-3.3393,-3.3393,-3.3207,-3.2811,-3.1853,-3.0805,-3.0435,-2.9448,-2.8738,-2.8448,-2.8466,-2.8448,-2.8422,-2.8518,-2.8378,-2.8466,-2.8466,-2.8255,-2.7982,-2.7637,-2.7093,-2.6574,-2.5796,-2.509,-2.4609,-2.3893,-2.3255,-2.2952,-2.285,-2.2807,-2.2651,-2.2552,-2.2487,-2.2477,-2.2477,-2.246,-2.246,-2.241,-2.2364,-2.2337,-2.23,-2.2192,-2.1475,-2.0508,-1.9395,-1.9148,-1.8648,-1.8114,-1.8208,-1.8548,-1.8624,-1.8252,-1.7992,-1.8452,-1.8373,-1.845,-1.8508,-1.8448,-1.8371,-1.8307,-1.8363,-1.8363,-1.8403,-1.8448,-1.8548,-1.8491,-1.8281,-1.8215,-1.8194,-1.8197,-1.8087,-1.7723,-1.7324,-1.6604,-1.5938,-1.6055,-1.6,-1.5189,-1.4598,-1.553,-1.6856,-1.8381,-1.8749,-1.7609,-1.6798,-1.6077,-1.5669,-1.5261,-1.4945,-1.4719,-1.4494,-1.4488,-1.4488,-1.4441,-1.4422,-1.4446,-1.4533,-1.4585,-1.4596,-1.4659,-1.4712,-1.4712,-1.4701,-1.4712,-3.8192,-3.8119,-3.7576,-3.6761,-3.5765,-3.4969,-3.4154,-3.3484,-3.3393,-3.3393,-3.3393,-3.3393,-3.3316,-3.3142,-3.2581,-3.1862,-3.0782,-3.01,-2.9296,-2.8696,-2.8316,-2.8219,-2.8138,-2.8138,-2.8156,-2.8065,-2.8165,-2.8183,-2.7964,-2.7683,-2.7439,-2.7082,-2.6602,-2.5973,-2.5575,-2.4879,-2.4153,-2.3353,-2.3022,-2.2733,-2.261,-2.2432,-2.2338,-2.231,-2.2338,-2.2338,-2.2338,-2.2338,-2.2415,-2.2476,-2.252,-2.2554,-2.2409,-2.1988,-2.1028,-2.0051,-1.9266,-1.8809,-1.815,-1.7975,-1.8208,-1.8252,-1.81,-1.7833,-1.7905,-1.8146,-1.8229,-1.831,-1.8229,-1.8159,-1.8087,-1.8172,-1.8172,-1.8197,-1.8035,-1.8107,-1.8146,-1.8044,-1.8087,-1.8108,-1.8113,-1.8095,-1.7975,-1.7618,-1.7203,-1.648,-1.6097,-1.6112,-1.5845,-1.5372,-1.5326,-1.68,-1.8466,-1.8431,-1.8122,-1.7355,-1.6679,-1.6494,-1.6015,-1.5356,-1.5052,-1.479,-1.436,-1.4114,-1.4101,-1.4193,-1.4232,-1.4232,-1.4338,-1.4483,-1.454,-1.4585,-1.4629,-1.4618,-1.4691,-3.8192,-3.8192,-3.8138,-3.7232,-3.5824,-3.4969,-3.419,-3.3447,-3.3393,-3.3364,-3.3316,-3.3334,-3.3147,-3.2751,-3.2115,-3.1479,-3.0771,-2.9653,-2.8899,-2.8754,-2.8135,-2.783,-2.7813,-2.7859,-2.7829,-2.7713,-2.7818,-2.7847,-2.7683,-2.7461,-2.7244,-2.7085,-2.6753,-2.6469,-2.6521,-2.5895,-2.4811,-2.3625,-2.3418,-2.2858,-2.2621,-2.244,-2.2327,-2.2327,-2.2327,-2.2327,-2.2327,-2.2327,-2.2349,-2.2377,-2.2405,-2.2394,-2.2326,-2.2309,-2.1712,-2.1,-2.023,-1.9241,-1.7997,-1.7862,-1.7861,-1.7927,-1.7833,-1.7811,-1.7789,-1.7878,-1.809,-1.8327,-1.8207,-1.8107,-1.8095,-1.8087,-1.8044,-1.7983,-1.7856,-1.7811,-1.7873,-1.7917,-1.7961,-1.8022,-1.8022,-1.8022,-1.8022,-1.789,-1.7656,-1.7095,-1.6386,-1.6168,-1.6307,-1.6324,-1.6218,-1.6768,-1.8388,-1.8366,-1.8143,-1.7735,-1.7294,-1.7135,-1.671,-1.5988,-1.5433,-1.5106,-1.4595,-1.3968,-1.3789,-1.3902,-1.3906,-1.3894,-1.406,-1.4232,-1.4338,-1.4399,-1.4458,-1.4556,-1.4651,-3.802,-3.7756,-3.8054,-3.7388,-3.6175,-3.5634,-3.4661,-3.3538,-3.3393,-3.3256,-3.3019,-3.2988,-3.2813,-3.2378,-3.1916,-3.1359,-3.0647,-2.985,-2.9209,-2.9086,-2.8185,-2.8028,-2.7944,-2.7749,-2.7552,-2.7474,-2.7522,-2.7522,-2.7352,-2.7213,-2.7053,-2.6891,-2.6757,-2.6404,-2.5896,-2.5287,-2.4489,-2.4015,-2.3342,-2.2716,-2.2936,-2.2615,-2.2344,-2.2344,-2.2327,-2.2327,-2.2327,-2.2327,-2.2327,-2.2327,-2.2327,-2.2327,-2.2327,-2.2327,-2.1972,-2.1228,-2.045,-1.9326,-1.8228,-1.7811,-1.7789,-1.7789,-1.7789,-1.7789,-1.7805,-1.7789,-1.8099,-1.8501,-1.8597,-1.8608,-1.8688,-1.8138,-1.7946,-1.7939,-1.7839,-1.7811,-1.7811,-1.7833,-1.7856,-1.7917,-1.7917,-1.7939,-1.7961,-1.7939,-1.7736,-1.7731,-1.713,-1.7208,-1.7361,-1.7499,-1.7483,-1.7432,-1.8095,-1.8184,-1.8093,-1.782,-1.7563,-1.7342,-1.7006,-1.6495,-1.5993,-1.5708,-1.5081,-1.4604,-1.407,-1.3638,-1.3733,-1.3826,-1.3862,-1.3973,-1.4177,-1.4291,-1.435,-1.4511,-1.4691,-3.7685,-3.7358,-3.7613,-3.7113,-3.6167,-3.5982,-3.5004,-3.3562,-3.3149,-3.2862,-3.2666,-3.2601,-3.2435,-3.2109,-3.1808,-3.1428,-3.0739,-3.0035,-2.9639,-2.9452,-2.8299,-2.7992,-2.7889,-2.7659,-2.7233,-2.7132,-2.7164,-2.7195,-2.7021,-2.7021,-2.6923,-2.6758,-2.6691,-2.6505,-2.6031,-2.5642,-2.522,-2.4831,-2.4171,-2.3562,-2.3376,-2.297,-2.2581,-2.2412,-2.2327,-2.2327,-2.2327,-2.2327,-2.2327,-2.2327,-2.2327,-2.2327,-2.2327,-2.2243,-2.204,-2.1481,-2.0703,-1.9495,-1.8262,-1.7789,-1.7789,-1.7789,-1.7789,-1.8059,-1.8335,-1.8538,-1.8792,-1.9104,-1.9232,-1.9307,-1.9222,-1.8555,-1.8155,-1.8144,-1.794,-1.7873,-1.7789,-1.7811,-1.7811,-1.7833,-1.7873,-1.7878,-1.79,-1.7878,-1.7815,-1.7893,-1.7915,-1.8087,-1.8151,-1.8108,-1.8087,-1.7961,-1.7917,-1.7992,-1.8082,-1.8076,-1.7786,-1.7532,-1.7265,-1.6996,-1.705,-1.6822,-1.6022,-1.5468,-1.5658,-1.5383,-1.4122,-1.3802,-1.4003,-1.4121,-1.4186,-1.4257,-1.4247,-1.4375,-1.4556,-3.7228,-3.69,-3.69,-3.6443,-3.5832,-3.5864,-3.496,-3.3354,-3.2633,-3.2317,-3.2265,-3.2265,-3.2074,-3.175,-3.1657,-3.1473,-3.1019,-3.0387,-3.018,-2.9638,-2.856,-2.8166,-2.7691,-2.725,-2.6943,-2.6791,-2.6791,-2.6923,-2.6725,-2.6791,-2.6758,-2.6691,-2.6708,-2.6607,-2.6488,-2.6353,-2.6048,-2.5625,-2.4983,-2.4391,-2.3985,-2.3562,-2.3105,-2.275,-2.2412,-2.2344,-2.2327,-2.2327,-2.2327,-2.2327,-2.2327,-2.2327,-2.2327,-2.2327,-2.2293,-2.1938,-2.116,-1.979,-1.8211,-1.7822,-1.7789,-1.7856,-1.8302,-1.8836,-1.9343,-1.9587,-1.9908,-1.9976,-2.0061,-2.0061,-1.9934,-1.9275,-1.8657,-1.8403,-1.8082,-1.7941,-1.7822,-1.7789,-1.7789,-1.7811,-1.7811,-1.7811,-1.7833,-1.7811,-1.7833,-1.7833,-1.7895,-1.7961,-1.8005,-1.7939,-1.7917,-1.7895,-1.7833,-1.7839,-1.7905,-1.8014,-1.7967,-1.7683,-1.7799,-1.765,-1.777,-1.7736,-1.7158,-1.6955,-1.7687,-1.7104,-1.5055,-1.4262,-1.4313,-1.438,-1.4396,-1.4436,-1.4485,-1.4213,-1.4295,-3.6821,-3.6533,-3.6799,-3.6304,-3.5248,-3.4321,-3.3682,-3.3318,-3.2616,-3.2179,-3.186,-3.1842,-3.1694,-3.1368,-3.1346,-3.1291,-3.0959,-3.0615,-3.0598,-2.9939,-2.8873,-2.8501,-2.7994,-2.7402,-2.6894,-2.6708,-2.6708,-2.6708,-2.6708,-2.6708,-2.6708,-2.6708,-2.6708,-2.6708,-2.6708,-2.6708,-2.6522,-2.6184,-2.5507,-2.505,-2.4729,-2.4391,-2.3782,-2.3156,-2.2615,-2.2479,-2.2327,-2.2327,-2.2327,-2.2327,-2.2327,-2.2327,-2.2327,-2.2276,-2.2158,-2.1295,-2.0839,-2.0179,-1.8295,-1.7822,-1.7991,-1.8667,-1.9672,-2.017,-2.0559,-2.072,-2.1059,-2.0957,-2.0856,-2.0856,-2.0957,-2.05,-1.9722,-1.9147,-1.8606,-1.789,-1.7789,-1.7789,-1.7789,-1.7789,-1.7789,-1.7789,-1.7789,-1.7789,-1.7811,-1.7789,-1.7811,-1.7856,-1.7895,-1.7833,-1.7811,-1.7789,-1.7789,-1.7794,-1.7833,-1.7922,-1.7944,-1.791,-1.7961,-1.7961,-1.7915,-1.7881,-1.7944,-1.8,-1.8022,-1.6955,-1.5243,-1.4899,-1.5002,-1.4693,-1.4658,-1.469,-1.4663,-1.4538,-1.4442,-3.5532,-3.5197,-3.5411,-3.5111,-3.4357,-3.3168,-3.2792,-3.2789,-3.2169,-3.1694,-3.1524,-3.1524,-3.1406,-3.123,-3.123,-3.1173,-3.114,-3.0869,-3.0801,-3.0497,-2.9161,-2.8856,-2.8349,-2.7554,-2.686,-2.6708,-2.6708,-2.6708,-2.6708,-2.6708,-2.6708,-2.6708,-2.6708,-2.6708,-2.6708,-2.6708,-2.6708,-2.6404,-2.5998,-2.5592,-2.5355,-2.5135,-2.4425,-2.3596,-2.3004,-2.2784,-2.2361,-2.2344,-2.2327,-2.2327,-2.2327,-2.2327,-2.2327,-2.2293,-2.2226,-2.1583,-2.1549,-2.1109,-2.0094,-1.9824,-1.9672,-1.9959,-2.1133,-2.1431,-2.1539,-2.1634,-2.1735,-2.1718,-2.1667,-2.1667,-2.1837,-2.1803,-2.0906,-2.0044,-1.8978,-1.7873,-1.7789,-1.7789,-1.7789,-1.7789,-1.7789,-1.7789,-1.7789,-1.7789,-1.7789,-1.7789,-1.7789,-1.7811,-1.7833,-1.7811,-1.7811,-1.7789,-1.7789,-1.7811,-1.7811,-1.7833,-1.7833,-1.7856,-1.7878,-1.7878,-1.7922,-1.7917,-1.7895,-1.7873,-1.7895,-1.6863,-1.6001,-1.5767,-1.5718,-1.5376,-1.5308,-1.5622,-1.5626,-1.5332,-1.5224,-3.3744,-3.344,-3.3339,-3.3422,-3.3203,-3.25,-3.2235,-3.2161,-3.1523,-3.119,-3.123,-3.119,-3.123,-3.119,-3.119,-3.119,-3.1173,-3.1072,-3.1004,-3.1089,-2.955,-2.8941,-2.8484,-2.752,-2.6826,-2.6708,-2.6708,-2.6708,-2.6708,-2.6708,-2.6708,-2.6708,-2.6708,-2.6708,-2.6708,-2.6708,-2.6708,-2.6607,-2.6454,-2.6234,-2.5879,-2.5541,-2.5067,-2.4002,-2.368,-2.3511,-2.2699,-2.235,-2.2327,-2.2327,-2.2327,-2.2327,-2.2327,-2.2327,-2.2215,-2.2198,-2.2124,-2.1972,-2.1667,-2.1532,-2.1735,-2.1904,-2.231,-2.2192,-2.2107,-2.209,-2.2107,-2.2107,-2.2023,-2.2006,-2.2124,-2.2107,-2.1498,-2.0839,-1.9993,-1.8724,-1.7856,-1.7839,-1.7789,-1.7789,-1.7789,-1.7789,-1.7789,-1.7789,-1.7789,-1.7789,-1.7789,-1.7789,-1.7789,-1.7789,-1.7789,-1.7789,-1.7789,-1.7789,-1.7749,-1.7789,-1.7766,-1.7789,-1.7789,-1.7811,-1.7856,-1.7833,-1.7789,-1.7766,-1.7704,-1.7766,-1.7265,-1.6712,-1.6194,-1.607,-1.614,-1.6693,-1.6627,-1.6257,-1.6298,-3.3473,-3.3339,-3.2797,-3.256,-3.2459,-3.1765,-3.1478,-3.1461,-3.1292,-3.119,-3.119,-3.119,-3.119,-3.119,-3.119,-3.119,-3.119,-3.119,-3.119,-3.0768,-2.9702,-2.9076,-2.8774,-2.7655,-2.6894,-2.6708,-2.6708,-2.6708,-2.6708,-2.6708,-2.6708,-2.6708,-2.6708,-2.6708,-2.6708,-2.6708,-2.6708,-2.6708,-2.6657,-2.6623,-2.6404,-2.6302,-2.5964,-2.5236,-2.4898,-2.4239,-2.341,-2.2564,-2.2429,-2.2327,-2.2327,-2.2327,-2.2327,-2.2327,-2.2327,-2.2327,-2.2327,-2.2327,-2.2327,-2.2327,-2.2327,-2.2327,-2.2327,-2.2327,-2.231,-2.2327,-2.2327,-2.2327,-2.2327,-2.2327,-2.231,-2.2226,-2.209,-2.1566,-2.1075,-1.9621,-1.8166,-1.7957,-1.789,-1.7856,-1.7856,-1.7789,-1.7789,-1.7789,-1.7789,-1.7789,-1.7789,-1.7789,-1.7789,-1.7789,-1.7789,-1.7789,-1.7766,-1.7766,-1.7726,-1.7635,-1.7589,-1.7629,-1.7635,-1.7698,-1.7789,-1.7789,-1.7789,-1.7635,-1.7566,-1.7519,-1.7313,-1.6848,-1.6478,-1.6522,-1.6652,-1.7046,-1.7433,-1.7219,-1.7456,-3.2425,-3.2374,-3.1985,-3.1799,-3.1732,-3.136,-3.119,-3.119,-3.119,-3.119,-3.119,-3.119,-3.119,-3.119,-3.119,-3.119,-3.119,-3.119,-3.119,-3.0784,-3.0108,-2.9397,-2.867,-2.8027,-2.7317,-2.6979,-2.6759,-2.6708,-2.6759,-2.6708,-2.6708,-2.6708,-2.6708,-2.6708,-2.6708,-2.6708,-2.6708,-2.6708,-2.6708,-2.6708,-2.6708,-2.6623,-2.6319,-2.5778,-2.5558,-2.4983,-2.3934,-2.3021,-2.2649,-2.253,-2.253,-2.2344,-2.2327,-2.2327,-2.2327,-2.2327,-2.2327,-2.2327,-2.2327,-2.2327,-2.2327,-2.2327,-2.2327,-2.2327,-2.2327,-2.2327,-2.2327,-2.2327,-2.2327,-2.2327,-2.2327,-2.2276,-2.2226,-2.1887,-2.1786,-2.1059,-1.9705,-1.8853,-1.8758,-1.864,-1.8369,-1.7789,-1.7789,-1.7789,-1.7789,-1.7743,-1.7766,-1.7721,-1.7743,-1.7704,-1.7743,-1.7681,-1.7589,-1.7698,-1.7749,-1.7566,-1.7337,-1.7401,-1.7448,-1.7612,-1.7704,-1.7766,-1.7766,-1.7635,-1.7408,-1.7068,-1.6824,-1.6675,-1.6878,-1.6998,-1.7121,-1.7266,-1.7603,-1.785,-1.781,-3.1241,-3.119,-3.1207,-3.1207,-3.119,-3.119,-3.119,-3.119,-3.119,-3.119,-3.119,-3.119,-3.119,-3.119,-3.119,-3.119,-3.119,-3.1151,-3.1151,-3.0948,-3.0302,-2.9711,-2.9256,-2.882,-2.806,-2.7452,-2.7131,-2.7012,-2.6979,-2.6826,-2.6708,-2.6708,-2.6708,-2.6708,-2.6708,-2.6708,-2.6708,-2.6708,-2.6708,-2.6708,-2.6708,-2.6691,-2.6336,-2.6218,-2.6184,-2.5879,-2.4628,-2.3883,-2.3376,-2.2801,-2.2654,-2.2355,-2.2254,-2.2254,-2.2282,-2.2282,-2.2282,-2.2282,-2.2327,-2.2327,-2.2327,-2.2327,-2.2327,-2.2299,-2.2299,-2.2282,-2.2282,-2.2299,-2.2299,-2.2282,-2.2282,-2.2282,-2.2276,-2.226,-2.226,-2.2203,-2.0955,-1.9816,-1.9656,-1.9453,-1.8713,-1.8051,-1.7737,-1.7737,-1.7788,-1.7748,-1.7658,-1.7635,-1.7612,-1.7549,-1.7526,-1.7384,-1.7216,-1.7384,-1.7479,-1.7361,-1.7043,-1.7142,-1.724,-1.7455,-1.7658,-1.7743,-1.7766,-1.7721,-1.7448,-1.6942,-1.6815,-1.674,-1.7028,-1.7261,-1.7346,-1.7326,-1.7323,-1.7542,-1.7566,-3.119,-3.119,-3.119,-3.119,-3.119,-3.119,-3.119,-3.119,-3.119,-3.119,-3.119,-3.119,-3.119,-3.119,-3.119,-3.119,-3.1151,-3.1112,-3.1072,-3.0897,-3.032,-2.9861,-2.9425,-2.9013,-2.8766,-2.8347,-2.7891,-2.7638,-2.7571,-2.7097,-2.6759,-2.686,-2.681,-2.6793,-2.6759,-2.6776,-2.6826,-2.6826,-2.6742,-2.6708,-2.6708,-2.6691,-2.6674,-2.659,-2.6573,-2.6116,-2.5609,-2.5761,-2.4797,-2.3718,-2.2726,-2.2332,-2.2135,-2.218,-2.2225,-2.2209,-2.2237,-2.2282,-2.2282,-2.2299,-2.2327,-2.2327,-2.2299,-2.2282,-2.2237,-2.2135,-2.2163,-2.2225,-2.2225,-2.2265,-2.2265,-2.2265,-2.2248,-2.2265,-2.231,-2.2118,-2.1429,-2.095,-2.0715,-1.9974,-1.9045,-1.8286,-1.7533,-1.7681,-1.7959,-1.7795,-1.7455,-1.7408,-1.7264,-1.7288,-1.7296,-1.7052,-1.6815,-1.6596,-1.649,-1.6799,-1.6686,-1.6825,-1.7018,-1.7216,-1.7455,-1.7743,-1.7743,-1.7425,-1.7191,-1.6815,-1.6738,-1.6686,-1.6876,-1.7085,-1.7296,-1.7351,-1.7288,-1.715,-1.7191]},{"header":{"parameterUnit":"m.s-1","parameterCategory":1,"la1":31.0,"la2":29.5877,"lo1":-88.7671,"lo2":-86.6584,"dy":0.0162,"dx":0.0185,"nx":115,"ny":88,"refTime":"2026-05-14T00:00:00:Z","depth":0,"parameterNumber":3,"parameterNumberName":"V-component_of_WINDS"},"data":[0.0,0.0,0.0,0.0,0.0,0.0,0.0,0.0,0.0,0.0,0.0,0.0,0.0,0.0,0.0,0.0,0.0,0.0,0.0,0.0,0.0,0.0,0.0,0.0,0.0,0.0,0.0,0.0,0.0,0.0,0.0,0.0,0.0,0.0,0.0,0.0,0.0,0.0,0.0,0.0,0.0,0.0,0.0,0.0,0.0,0.0,0.0,0.0,0.0,0.0,0.0,0.0,0.0,0.0,0.0,0.0,0.0,0.0,0.0,0.0,0.0,0.0,0.0,0.0,0.0,0.0,0.0,0.0,0.0,0.0,0.0,0.0,0.0,0.0,0.0,0.0,0.0,0.0,0.0,0.0,0.0,0.0,0.0,0.0,0.0,0.0,0.0,0.0,0.0,0.0,0.0,0.0,0.0,0.0,0.0,0.0,0.0,0.0,0.0,0.0,0.0,0.0,0.0,0.0,0.0,0.0,0.0,0.0,0.0,0.0,0.0,0.0,0.0,0.0,0.0,0.0,0.0,0.0,0.0,0.0,0.0,0.0,0.0,0.0,0.0,0.0,0.0,0.0,0.0,0.0,0.0,0.0,0.0,0.0,0.0,0.0,0.0,0.0,0.0,0.0,0.0,0.0,0.0,0.0,0.0,0.0,0.0,0.0,0.0,0.0,0.0,0.0,0.0,0.0,0.0,0.0,0.0,0.0,0.0,0.0,0.0,0.0,0.0,0.0,0.0,0.0,0.0,0.0,0.0,0.0,0.0,0.0,0.0,0.0,0.0,0.0,0.0,0.0,0.0,0.0,0.0,0.0,0.0,0.0,0.0,0.0,0.0,0.0,0.0,0.0,0.0,0.0,0.0,0.0,0.0,0.0,0.0,0.0,0.0,0.0,0.0,0.0,0.0,0.0,0.0,0.0,0.0,0.0,0.0,0.0,0.0,0.0,0.0,0.0,0.0,0.0,0.0,0.0,0.0,0.0,0.0,0.0,0.0,0.0,0.0,0.0,0.0,0.0,0.0,0.0,0.0,0.0,0.0,0.0,0.0,0.0,0.0,0.0,0.0,0.0,0.0,0.0,0.0,0.0,0.0,0.0,0.0,0.0,0.0,0.0,0.0,0.0,0.0,0.0,0.0,0.0,0.0,0.0,0.0,0.0,0.0,0.0,0.0,0.0,0.0,0.0,0.0,0.0,0.0,0.0,0.0,0.0,0.0,0.0,0.0,0.0,0.0,0.0,0.0,0.0,0.0,0.0,0.0,0.0,0.0,0.0,0.0,0.0,0.0,0.0,0.0,0.0,0.0,0.0,0.0,0.0,0.0,0.0,0.0,0.0,0.0,0.0,0.0,0.0,0.0,0.0,0.0,0.0,0.0,0.0,0.0,0.0,0.0,0.0,0.0,0.0,0.0,0.0,0.0,0.0,0.0,0.0,0.0,0.0,0.0,0.0,0.0,0.0,0.0,0.0,0.0,0.0,0.0,0.0,0.0,0.0,0.0,0.0,0.0,0.0,0.0,0.0,0.0,0.0,0.0,0.0,0.0,0.0,0.0,0.0,0.0,0.0,0.0,0.0,0.0,0.0,0.0,0.0,0.0,0.0,0.0,0.0,0.0,0.0,0.0,0.0,0.0,0.0,0.0,0.0,0.0,0.0,0.0,0.0,0.0,0.0,0.0,0.0,0.0,0.0,0.0,0.0,0.0,0.0,0.0,0.0,0.0,0.0,0.0,0.0,0.0,0.0,0.0,0.0,0.0,0.0,0.0,0.0,0.0,0.0,0.0,0.0,0.0,0.0,0.0,0.0,0.0,0.0,0.0,0.0,0.0,0.0,0.0,0.0,0.0,0.0,0.0,0.0,0.0,0.0,0.0,0.0,0.0,0.0,0.0,0.0,0.0,0.0,0.0,0.0,0.0,0.0,0.0,0.0,0.0,0.0,0.0,0.0,0.0,0.0,0.0,0.0,0.0,0.0,0.0,0.0,0.0,0.0,0.0,0.0,0.0,0.0,0.0,0.0,0.0,0.0,0.0,0.0,0.0,0.0,0.0,0.0,0.0,0.0,0.0,0.0,0.0,0.0,0.0,0.0,0.0,0.0,0.0,0.0,0.0,0.0,0.0,0.0,0.0,0.0,0.0,0.0,0.0,0.0,0.0,0.0,0.0,0.0,0.0,0.0,0.0,0.0,0.0,0.0,0.0,0.0,0.0,0.0,0.0,0.0,0.0,0.0,0.0,0.0,0.0,0.0,0.0,0.0,0.0,0.0,0.0,0.0,0.0,0.0,0.0,0.0,0.0,0.0,0.0,0.0,0.0,0.0,0.0,0.0,0.0,0.0,0.0,0.0,0.0,0.0,0.0,0.0,0.0,0.0,0.0,0.0,0.0,0.0,0.0,0.0,0.0,0.0,0.0,0.0,0.0,0.0,0.0,0.0,0.0,0.0,0.0,0.0,0.0,0.0,0.0,0.0,0.0,0.0,0.0,0.0,0.0,0.0,0.0,0.0,0.0,0.0,0.0,0.0,0.0,0.0,0.0,0.0,0.0,0.0,0.0,0.0,0.0,0.0,0.0,0.0,0.0,0.0,0.0,0.0,0.0,0.0,0.0,0.0,0.0,0.0,0.0,0.0,0.0,0.0,0.0,0.0,0.0,0.0,0.0,0.0,0.0,0.0,0.0,0.0,0.0,0.0,0.0,0.0,0.0,0.0,0.0,0.0,0.0,0.0,0.0,0.0,0.0,0.0,0.0,0.0,0.0,0.0,0.0,0.0,0.0,0.0,0.0,0.0,0.0,0.0,0.0,0.0,0.0,0.0,0.0,0.0,0.0,0.0,0.0,0.0,0.0,0.0,0.0,0.0,0.0,0.0,0.0,0.0,0.0,0.0,0.0,0.0,0.0,0.0,0.0,0.0,0.0,0.0,0.0,0.0,0.0,0.0,0.0,0.0,0.0,0.0,0.0,0.0,0.0,0.0,0.0,0.0,0.0,0.0,0.0,0.0,0.0,0.0,0.0,0.0,0.0,0.0,0.0,0.0,0.0,0.0,0.0,0.0,0.0,0.0,0.0,0.0,0.0,0.0,0.0,0.0,0.0,0.0,0.0,0.0,0.0,0.0,0.0,0.0,0.0,0.0,0.0,0.0,0.0,0.0,0.0,0.0,0.0,0.0,0.0,0.0,0.0,0.0,0.0,0.0,0.0,0.0,0.0,0.0,0.0,0.0,0.0,0.0,0.0,0.0,0.0,0.0,0.0,0.0,0.0,0.0,0.0,0.0,0.0,0.0,0.0,0.0,0.0,0.0,0.0,0.0,0.0,0.0,0.0,0.0,0.0,0.0,0.0,0.0,0.0,0.0,0.0,0.0,0.0,0.0,0.0,0.0,0.0,0.0,0.0,0.0,0.0,0.0,0.0,0.0,0.0,0.0,0.0,0.0,0.0,0.0,0.0,0.0,0.0,0.0,0.0,0.0,0.0,0.0,0.0,0.0,0.0,0.0,0.0,0.0,0.0,0.0,0.0,0.0,0.0,0.0,0.0,0.0,0.0,0.0,0.0,0.0,0.0,0.0,0.0,0.0,0.0,0.0,0.0,0.0,0.0,0.0,0.0,0.0,0.0,0.0,0.0,0.0,0.0,0.0,0.0,0.0,0.0,0.0,0.0,0.0,0.0,0.0,0.0,0.0,0.0,0.0,0.0,0.0,0.0,0.0,0.0,0.0,0.0,0.0,0.0,0.0,0.0,0.0,0.0,0.0,0.0,0.0,0.0,0.0,0.0,0.0,0.0,0.0,0.0,0.0,0.0,0.0,0.0,0.0,0.0,0.0,0.0,0.0,0.0,0.0,0.0,0.0,0.0,0.0,0.0,0.0,0.0,0.0,0.0,0.0,0.0,0.0,0.0,0.0,0.0,0.0,0.0,0.0,0.0,0.0,0.0,0.0,0.0,0.0,0.0,0.0,0.0,0.0,0.0,0.0,0.0,0.0,0.0,0.0,0.0,0.0,0.0,0.0,0.0,0.0,0.0,0.0,0.0,0.0,0.0,0.0,0.0,0.0,0.0,0.0,0.0,0.0,0.0,0.0,0.0,0.0,0.0,0.0,0.0,0.0,0.0,0.0,0.0,0.0,0.0,0.0,0.0,0.0,0.0,0.0,0.0,0.0,0.0,0.0,0.0,0.0,0.0,0.0,0.0,0.0,0.0,0.0,0.0,0.0,0.0,0.0,0.0,0.0,0.0,0.0,0.0,0.0,0.0,0.0,0.0,0.0,0.0,0.0,0.0,0.0,0.2391,0.0,0.0,0.0,0.0,0.0,0.0,0.0,0.0,0.0,0.0,0.0,0.0,0.0,0.0,0.0,0.0,0.0,0.0,0.0,0.0,0.0,0.0,0.0,0.0,0.0,0.0,0.0,0.0,0.0,0.0,0.0,0.0,0.0,0.0,0.0,0.0,0.0,0.0,0.0,0.0,0.0,0.0,0.0,0.0,0.0,0.0,0.0,0.0,0.0,0.0,0.0,0.0,0.0,0.0,0.0,0.0,0.0,0.0,0.0,0.0,0.0,0.0,0.0,0.0,0.0,0.0,0.0,0.0,0.0,0.0,0.0,0.0,0.0,0.0,0.0,0.0,0.0,0.0,0.0,0.0,0.0,0.0,0.0,0.0,0.0,0.0,0.0,0.0,0.0,0.0,0.0,0.0,0.0,0.0,0.0,0.0,0.0,0.0,0.0,0.0,0.0,0.0,0.0,0.0,0.0,0.0,0.0,0.0,0.0,0.0,0.1492,0.1761,0.1643,0.1805,0.2306,0.0,0.0,0.0,0.0,0.0,0.0,0.0,0.0,0.0,0.0,0.0,0.0,0.0,0.0,0.0,0.0,0.0,0.0,0.0,0.0,0.0,0.0,0.0,0.0,0.0,0.0,0.0,0.0,0.0,0.0,0.0,0.0,0.0,0.0,0.0,0.0,0.0,0.0,0.0,0.0,0.0,0.0,0.0,0.0,0.0,0.0,0.0,0.0,0.0,0.0,0.0,0.0,0.0,0.0,0.0,0.0,0.0,0.0,0.0,0.0,0.0,0.0,0.0,0.0,0.0,0.0,0.0,0.0,0.0,0.0,0.0,0.0,0.0,0.0,0.0,0.0,0.0,0.0,0.0,0.0,0.0,0.0,0.0,0.0,0.0,0.0,0.0,0.0,0.0,0.0,0.0,0.0,0.0,0.0,0.0,0.0,0.0,0.0,0.0,0.0,0.0,0.0,0.0,0.0,0.0,0.0,0.0,0.0,0.0,0.0,0.0,0.0,0.1721,0.1905,0.2249,0.0,0.0,0.0,0.0,0.0,0.0,0.0,0.0,0.0,0.0,0.0,0.0,0.0,0.0,0.0,0.0,0.0,0.0,0.0,0.0,0.0,0.0,0.0,0.0,0.0,0.0,0.0,0.0,0.0,0.0,0.0,0.0,0.0,0.0,0.0,0.0,0.0,0.0,0.0,0.0,0.0,0.0,0.0,0.0,0.0,0.0,0.0,0.0,0.0,0.0,0.0,0.0,0.0,0.0,0.0,0.0,0.0,0.0,0.0,0.0,0.0,0.0,0.0,0.0,0.0,0.0,0.0,0.0,0.0,0.0,0.0,0.0,0.0,0.0,0.0,0.0,0.0,0.0,0.0,0.0,0.0,0.0,0.0,0.0,0.0,0.0,0.0,0.0,0.0,0.0,0.0,0.0,0.0,0.0,0.0,0.0,0.0,0.0,0.0,0.0,0.0,0.0,0.0,0.0,0.0,0.0,0.0,0.0,0.0,0.0,0.1793,0.2037,0.2125,0.0,0.2476,0.0,0.0,0.0,0.0,0.0,0.0,0.0,0.0,0.0,0.0,0.0,0.0,0.0,0.0,0.0,0.0,0.0,0.0,0.0,0.0,0.0,0.0,0.0,0.0,0.0,0.0,0.0,0.0,0.0,0.0,0.0,0.0,0.0,0.0,0.0,0.0,0.0,0.0,0.0,0.0,0.0,0.0,0.0,0.0,0.0,0.0,0.0,0.0,0.0,0.0,0.0,0.0,0.0,0.0,0.0,0.0,0.0,0.0,0.0,0.0,0.0,0.0,0.0,0.0,0.0,0.0,0.0,0.0,0.0,0.0,0.0,0.0,0.0,0.0,0.0,0.0,0.0,0.0,0.0,0.0,0.0,0.0,0.0,0.0,0.0,0.0,0.0,0.0,0.0,0.0,0.0,0.0,0.0,0.0,0.0,0.0,0.0,0.0,0.0,0.0,0.0,0.0,0.0,0.0,0.0,0.0,0.0,0.0,0.0,0.0,0.0,0.2202,0.2446,0.2544,0.0,0.0,0.0,0.0,0.0,0.0,0.0,0.0,0.0,0.0,0.0,0.0,0.0,0.0,0.0,0.0,0.0,0.0,0.0,0.0,0.0,0.0,0.0,0.0,0.0,0.0,0.0,0.0,0.0,0.0,0.0,0.0,0.0,0.0,0.0,0.0,0.0,0.0,0.0,0.0,0.0,0.0,0.0,0.0,0.0,0.0,0.0,0.0,0.0,0.0,0.0,0.0,0.0,0.0,0.0,0.0,0.0,0.0,0.0,0.0,0.0,0.0,0.0,0.0,0.0,0.0,0.0,0.0,0.0,0.0,0.0,0.0,0.0,0.0,0.0,0.0,0.0,0.0,0.0,0.0,0.0,0.0,0.0,0.0,0.0,0.0,0.0,0.0,0.0,0.0,0.0,0.0,0.0,0.0,0.0,0.0,0.0,0.0,0.0,0.0,0.0,0.0,0.0,0.0,0.0,0.0,0.0,0.0,0.0,0.0,0.1747,0.0,0.2393,0.265,0.2706,0.2504,0.0,0.0,0.0,0.0,0.0,0.0,0.0,0.0,0.0,0.0,0.0,0.0,0.0,0.0,0.0,0.0,0.0,0.0,0.0,0.0,0.0,0.0,0.0,0.0,0.0,0.0,0.0,0.0,0.0,0.0,0.0,0.0,0.0,0.0,0.0,0.0,0.0,0.0,0.0,0.0,0.0,0.0,0.0,0.0,0.0,0.0,0.0,0.0,0.0,0.0,0.0,0.0,0.0,0.0,0.0,0.0,0.0,0.0,0.0,0.0,0.0,0.0,0.0,0.0,0.0,0.0,0.0,0.0,0.0,0.0,0.0,0.0,0.0,0.0,0.0,0.0,0.0,0.0,0.0,0.0,0.0,0.0,0.0,0.0,0.0,0.0,0.0,0.0,0.0,0.0,0.0,0.0,0.0,0.0,0.0,0.0,0.0,0.0,0.0,0.0,0.0,0.0,0.0,0.0,0.0,0.0,0.0,0.0,0.0,0.168,0.2029,0.2656,0.2737,0.2698,0.0,0.0,0.0,0.0,0.0,0.0,0.0,0.0,0.0,0.0,0.0,0.0,0.0,0.0,0.0,0.0,0.0,0.0,0.0,0.0,0.0,0.0,0.0,0.0,0.0,0.0,0.0,0.0,0.0,0.0,0.0,0.0,0.0,0.0,0.0,0.0,0.0,0.0,0.0,0.0,0.0,0.0,0.0,0.0,0.0,0.0,0.0,0.0,0.0,0.0,0.0,0.0,0.0,0.0,0.0,0.0,0.0,0.0,0.0,0.0,0.0,0.0,0.0,0.0,0.0,0.0,0.0,0.0,0.0,0.0,0.0,0.0,0.0,0.0,0.0,0.0,0.0,0.0,0.0,0.0,0.0,0.0,0.0,0.0,0.0,0.0,0.0,0.0,0.0,0.0,0.0,0.0,0.0,0.0,0.0,0.0,0.0,0.0,0.0,0.0,0.0,0.0,0.0,0.0,0.0,0.0,0.0,0.0,0.0,0.1472,0.1741,0.2248,0.2963,0.2638,0.2601,0.0,0.0,0.0,0.0,0.0,0.0,0.0,0.0,0.0,0.0,0.0,0.0,0.0,0.0,0.0,0.0,0.0,0.0,0.0,0.0,0.0,0.0,0.0,0.0,0.0,0.0,0.0,0.0,0.0,0.0,0.0,0.0,0.0,0.0,0.0,0.0,0.0,0.0,0.0,0.0,0.0,0.0,0.0,0.0,0.0,0.0,0.0,0.0,0.0,0.0,0.0,0.0,0.0,0.0,0.0,0.0,0.0,0.0,0.0,0.0,0.0,0.0,0.0,0.0,0.0,0.0,0.0,0.0,0.0,0.0,0.0,0.0,0.0,0.0,0.0,0.0,0.0,0.0,0.0,0.0,0.0,0.0,0.0,0.0,0.0,0.0,0.0,0.0,0.0,0.0,0.0,0.0,0.0,0.0,0.0,0.0,0.0,0.0,0.0,0.0,0.0,0.0,0.0,0.0,0.0,0.0,0.0,0.0,0.0,0.1469,0.0,0.2283,0.0,0.2419,0.2384,0.0,0.0,0.0,0.0,0.0,0.0,0.0,0.0,0.0,0.0,0.0,0.0,0.0,0.0,0.0,0.0,0.0,0.0,0.0,0.0,0.0,0.0,0.0,0.0,0.0,0.0,0.0,0.0,0.0,0.0,0.0,0.0,0.0,0.0,0.0,0.0,0.0,0.0,0.0,0.0,0.0,0.0,0.0,0.0,0.0,0.0,0.0,0.0,0.0,0.0,0.0,0.0,0.0,0.0,0.0,0.0,0.0,0.0,0.0,0.0,0.0,0.0,0.0,0.0,0.0,0.0,0.0,0.0,0.0,0.0,0.0,0.0,0.0,0.0,0.0,0.0,0.0,0.0,0.0,0.0,0.0,0.0,0.0,0.0,0.0,0.0,0.0,0.0,0.0,0.0,0.0,0.0,0.0,0.0,0.0,0.0,0.0,0.0,0.0,0.0,0.0,0.0,0.0,0.0,0.0,0.0,0.0,0.0,0.0,0.1609,0.1861,0.2097,0.2314,0.2178,0.2038,0.0,0.0,0.0,0.0,0.0,0.0,0.0,0.0,0.0,0.0,0.0,0.0,0.0,0.0,0.0,0.0,0.0,0.0,0.0,0.0,0.0,0.0,0.0,0.0,0.0,0.0,0.0,0.0,0.0,0.0,0.0,0.0,0.0,0.0,0.0,0.0,0.0,0.0,0.0,0.0,0.0,0.0,0.0,0.0,0.0,0.0,0.0,0.0,0.0,0.0,0.0,0.0,0.0,0.0,0.0,0.0,0.0,0.0,0.0,0.0,0.0,0.0,0.0,0.0,0.0,0.0,0.0,0.0,0.0,0.0,0.0,0.0,0.0,0.0,0.0,0.0,0.0,0.0,0.0,0.0,0.0,0.0,0.0,0.0,0.0,0.0,0.0,0.0,0.0,0.0,0.0,0.0,0.0,0.0,0.0,0.0,0.0,0.0,0.0,0.0,0.0,0.0,0.0,0.0,0.0,0.0,0.0,0.0,0.0,0.159,0.1688,0.2035,0.2598,0.2056,0.1857,0.0,0.0,0.0,0.0,0.0,0.0,0.0,0.0,0.0,0.0,0.0,0.0,0.0,0.0,0.0,0.0,0.0,0.0,0.0,0.0,0.0,0.0,0.0,0.0,0.0,0.0,0.0,0.0,0.0,0.0,0.0,0.0,0.0,0.0,0.0,0.0,0.0,0.0,0.0,0.0,0.0,0.0,0.0,0.0,0.0,0.0,0.0,0.0,0.0,0.0,0.0,0.0,0.0,0.0,0.0,0.0,0.0,0.0,0.0,0.0,0.0,0.0,0.0,0.0,0.0,0.0,0.0,0.0,0.0,0.0,0.0,0.0,0.0,0.0,0.0,0.0,0.0,0.0,0.0,0.0,0.0,0.0,0.0,0.0,0.0,0.0,0.0,0.0,0.0,0.0,0.0,0.0,0.0,0.0,0.0,0.0,0.0,0.0,0.0,0.0,0.0,0.0,0.0,0.0,0.0,0.0,0.0,0.0,0.0,0.1869,0.1816,0.2067,0.2664,0.1998,0.1795,0.2121,0.0,0.0,0.0,0.0,0.0,0.0,0.0,0.0,0.0,0.0,0.0,0.0,0.0,0.0,0.0,0.0,0.0,0.0,0.0,0.0,0.0,0.0,0.0,0.0,0.0,0.0,0.0,0.0,0.0,0.0,0.0,0.0,0.0,0.0,0.0,0.0,0.0,0.0,0.0,0.0,0.0,0.0,0.0,0.0,0.0,0.0,0.0,0.0,0.0,0.0,0.0,0.0,0.0,0.0,0.0,0.0,0.0,0.0,0.0,0.0,0.0,0.0,0.0,0.0,0.0,0.0,0.0,0.0,0.0,0.0,0.0,0.0,0.0,0.0,0.0,0.0,0.0,0.0,0.0,0.0,0.0,0.0,0.0,0.0,0.0,0.0,0.0,0.0,0.0,0.0,0.0,0.0,0.0,0.0,0.0,0.0,0.0,0.0,0.0,0.0,0.0,0.0,0.0,0.0,0.0,0.0,0.0,0.0,0.2281,0.2197,0.2276,0.2513,0.1991,0.1883,0.0,0.0,0.0,0.0,0.0,0.0,0.0,0.0,0.0,0.0,0.0,0.0,0.0,0.0,0.0,0.0,0.0,0.0,0.0,0.0,0.0,0.0,0.0,0.0,0.0,0.0,0.0,0.0,0.0,0.0,0.0,0.0,0.0,0.0,0.0,0.0,0.0,0.0,0.0,0.0,0.0,0.0,0.0,0.0,0.0,0.0,0.0,0.0,0.0,0.0,0.0,0.0,0.0,0.0,0.0,0.0,0.0,0.0,0.0,0.0,0.0,0.0,0.0,0.0,0.0,0.0,0.0,0.0,0.0,0.0,0.0,0.0,0.0,0.0,0.0,0.0,0.0,0.0,0.0,0.0,0.0,0.0,0.0,0.0,0.0,0.0,0.0,0.0,0.0,0.0,0.0,0.0,0.0,0.0,0.0,0.0,0.0,0.0,0.0,0.0,0.0,0.0,0.0,0.0,0.0,0.0,0.0,0.0,0.0,0.2245,0.2429,0.2573,0.2643,0.2318,0.2215,0.0,0.0,0.0,0.0,0.0,0.0,0.0,0.0,0.0,0.0,0.0,0.0,0.0,0.0,0.0,0.0,0.0,0.0,0.0,0.0,0.0,0.0,0.0,0.0,0.0,0.0,0.0,0.0,0.0,0.0,0.0,0.0,0.0,0.0,0.0,0.0,0.0,0.0,0.0,0.0,0.0,0.0,0.0,0.0,0.0,0.0,0.0,0.0,0.0,0.0,0.0,0.0,0.0,0.0,0.0,0.0,0.0,0.0,0.0,0.0,0.0,0.0,0.0,0.0,0.0,0.0,0.0,0.0,0.0,0.0,0.0,0.0,0.0,0.0,0.0,0.0,0.0,0.0,0.0,0.0,0.0,0.0,0.0,0.0,0.0,0.0,0.0,0.0,0.0,0.0,0.0,0.0,0.0,0.0,0.0,0.0,0.0,0.0,0.0,0.0,0.0,0.0,0.0,0.0,0.0,0.0,0.0,0.0,0.2254,0.2625,0.2745,0.2835,0.2927,0.2589,0.2386,0.0,0.0,0.0,0.0,0.0,0.0,0.0,0.0,0.0,0.0,0.0,0.0,0.0,0.0,0.0,0.0,0.0,0.0,0.0,0.0,0.0,0.0,0.0,0.0,0.0,0.0,0.0,0.0,0.0,0.0,0.0,0.0,0.0,0.0,0.0,0.0,0.0,0.0,0.0,0.0,0.0,0.0,0.0,0.0,0.0,0.0,0.0,0.0,0.0,0.0,0.0,0.0,0.0,0.0,0.0,0.0,0.0,0.0,0.0,0.0,0.0,0.0,0.0,0.0,0.0,0.0,0.0,0.0,0.0,0.0,0.0,0.0,0.0,0.0,0.0,0.0,0.0,0.0,0.0,0.0,0.0,0.0,0.0,0.0,0.0,0.0,0.0,0.0,0.0,0.0,0.0,0.0,0.0,0.0,0.0,0.0,0.0,0.0,0.0,0.0,0.0,0.0,0.0,0.0,0.0,0.0,0.0,0.0,0.2534,0.3101,0.2997,0.3036,0.3278,0.2803,0.2506,0.0,0.0,0.0,0.0,0.0,0.0,0.0,0.0,0.0,0.0,0.0,0.0,0.0,0.0,0.0,0.0,0.0,0.0,0.0,0.0,0.0,0.0,0.0,0.0,0.0,0.0,0.0,0.0,0.0,0.0,0.0,0.0,0.0,0.0,0.0,0.0,0.0,0.0,0.0,0.0,0.0,0.0,0.0,0.0,0.0,0.0,0.0,0.0,0.0,0.0,0.0,0.0,0.0,0.0,0.0,0.0,0.0,0.0,0.0,0.0,0.0,0.0,0.0,0.0,0.0,0.0,0.0,0.0,0.0,0.0,0.0,0.0,0.0,0.0,0.0,0.0,0.0,0.0,0.0,0.0,0.0,0.0,0.0,0.0,0.0,0.0,0.0,0.0,0.0,0.0,0.0,0.0,0.0,0.0,0.0,0.0,0.0,0.0,0.0,0.0,0.0,0.0,0.0,0.0,0.0,0.0,0.0,0.0,0.256,0.2644,0.2968,0.3195,0.3285,0.2936,0.2789,0.0,0.0,0.0,0.0,0.0,0.0,0.0,0.0,0.0,0.0,0.0,0.0,0.0,0.0,0.0,0.0,0.0,0.0,0.0,0.0,0.0,0.0,0.0,0.0,0.0,0.0,0.0,0.0,0.0,0.0,0.0,0.0,0.0,0.0,0.0,0.0,0.0,0.0,0.0,0.0,0.0,0.0,0.0,0.0,0.0,0.0,0.0,0.0,0.0,0.0,0.0,0.0,0.0,0.0,0.0,0.0,0.0,0.0,0.0,0.0,0.0,0.0,0.0,0.0,0.0,0.0,0.0,0.0,0.0,0.0,0.0,0.0,0.0,0.0,0.0,0.0,0.0,0.0,0.0,0.0,0.0,0.0,0.0,0.0,0.0,0.0,0.0,0.0,0.0,0.0,0.0,0.0,0.0,0.0,0.0,0.0,0.0,0.0,0.0,0.0,0.0,0.0,0.0,0.0,0.0,0.0,0.0,0.0,0.2782,0.288,0.3062,0.3429,0.385,0.3251,0.2944,0.0,0.0,0.0,0.0,0.0,0.0,0.0,0.0,0.0,0.0,0.0,0.0,0.0,0.0,0.0,0.0,0.0,0.0,0.0,0.0,0.0,0.0,0.0,0.0,0.0,0.0,0.0,0.0,0.0,0.0,0.0,0.0,0.0,0.0,0.0,0.0,0.0,0.0,0.0,0.0,0.0,0.0,0.0,0.0,0.0,0.0,0.0,0.0,0.0,0.0,0.0,0.0,0.0,0.0,0.0,0.0,0.0,0.0,0.0,0.0,0.0,0.0,0.0,0.0,0.0,0.0,0.0,0.0,0.0,0.0,0.0,0.0,0.0,0.0,0.0,0.0,0.0,0.0,0.0,0.0,0.0,0.0,0.0,0.0,0.0,0.0,0.0,0.0,0.0,0.0,0.0,0.0,0.0,0.0,0.0,0.0,0.0,0.0,0.0,0.0,0.0,0.0,0.0,0.0,0.0,0.0,0.0,0.2693,0.3042,0.3259,0.3232,0.3648,0.4523,0.3554,0.3096,0.3274,0.0,0.0,0.0,0.0,0.0,0.0,0.0,0.0,0.0,0.0,0.0,0.0,0.0,0.0,0.0,0.0,0.0,0.0,0.0,0.0,0.0,0.0,0.0,0.0,0.0,0.0,0.0,0.0,0.0,0.0,0.0,0.0,0.0,0.0,0.0,0.0,0.0,0.0,-0.1806,-0.0836,0.0,0.0,0.0,0.0,0.0,0.0,0.0,0.0,0.006,0.0,0.0,0.0,0.0,0.0,0.0,0.0,0.0,0.0,0.0,0.0,0.0,0.0,0.0,0.0,0.0,0.0,0.0,0.0,0.0,0.0,0.0,0.0,0.0,0.0,0.0,0.0,0.0,0.0,0.0,0.0,0.0,0.0,0.0,0.0,0.0,0.0,0.0,0.0,0.0,0.0,0.0,0.0,0.0,0.0,0.0,0.0,0.0,0.0,0.0,0.0,0.0,0.0,0.0,0.0,0.0,0.2441,0.274,0.2991,0.3112,0.3118,0.3612,0.45,0.3487,0.3307,0.4077,0.0,0.0,0.0,0.0,0.0,0.0,0.0,0.0,0.0,0.0,0.0,0.0,0.0,0.0,0.0,0.0,0.0,0.0,0.0,0.0,0.0,0.0,0.0,0.0,0.0,0.0,0.0,0.0,0.0,0.0,0.0,0.0,0.0,0.0,0.0,0.0,0.0,0.0,0.0,-0.1197,-0.0571,0.0,0.0,0.0,0.0,0.0,0.0,0.0,0.0,0.0,0.0,0.0,0.0,0.0,0.0,0.0,0.0,0.0,0.0,0.0,0.0,0.0,0.0,0.0,0.0,0.0,0.0,0.0,0.0,0.0,0.0,0.0,0.0,0.0,0.0,0.0,0.0,0.0,0.0,0.0,0.0,0.0,0.0,0.0,0.0,0.0,0.0,0.0,0.0,0.0,0.0,0.0,0.0,0.0,0.0,0.0,0.0,0.0,0.0,0.0,0.0,0.0,0.0,0.0,0.0,0.2488,0.2709,0.29,0.311,0.312,0.3586,0.4595,0.3596,0.355,0.0,0.0,0.0,0.0,0.0,0.0,0.0,0.0,0.0,0.0,0.0,0.0,0.0,0.0,0.0,0.0,0.0,0.0,0.0,0.0,0.0,0.0,0.0,0.0,0.0,0.0,0.0,0.0,0.0,0.0,0.0,0.0,0.0,0.0,0.0,0.0,0.0,0.0,0.0,0.0,-0.0824,-0.0727,-0.0909,0.0,0.0,0.0,0.0,0.0,0.0,0.0658,0.036,0.0,0.0,0.0,0.0,0.0,0.0,0.0,0.0,0.0,0.0,0.0,0.0,0.0,0.0,0.0,0.0,0.0,0.0,0.0,0.0,0.0,0.0,0.0,0.0,0.0,0.0,0.0,0.0,0.0,0.0,0.0,0.0,0.0,0.0,0.0,0.0,0.0,0.0,0.0,0.0,0.0,0.0,0.0,0.0,0.0,0.0,0.0,0.0,0.0,0.0,0.0,0.0,0.0,0.0,0.0,0.2462,0.2637,0.2839,0.3151,0.3164,0.362,0.464,0.3727,0.3648,0.0,0.0,0.0,0.0,0.0,0.0,0.0,0.0,0.0,0.0,0.0,0.0,0.0,0.0,0.0,0.0,0.0,0.0,0.0,0.0,0.0,0.0,0.0,0.0,0.0,0.0,0.0,0.0,0.0,0.0,0.0,0.0,0.0,0.0,0.0,0.0,0.0,0.0,0.0,0.0,0.0,-0.0609,-0.1389,-0.0535,0.0,0.0,0.0,0.0,0.0888,0.0888,0.0,0.0,0.0,0.0,0.0,0.0,0.0,0.0,0.0,0.0,0.0,0.0,0.0,0.0,0.0,0.0,0.0,0.0,0.0,0.0,0.0,0.0,0.0,0.0,0.0,0.0,0.0,0.0,0.0,0.0,0.0,0.0,0.0,0.0,0.0,0.0,0.0,0.0,0.0,0.0,0.0,0.0,0.0,0.0,0.0,0.0,0.0,0.0,0.0,0.0,0.0,0.0,0.0,0.0,0.0,0.0,0.2455,0.2637,0.289,0.3256,0.3324,0.3783,0.4568,0.3641,0.3406,0.0,0.0,0.0,0.0,0.0,0.0,0.0,0.0,0.0,0.0,0.0,0.0,0.0,0.0,0.0,0.0,0.0,0.0,0.0,0.0,0.0,0.0,0.0,0.0,0.0,0.0,0.0,0.0,0.0,0.0,0.0,0.0,0.0,0.0,0.0,0.0,0.0,0.0,0.0,0.0,0.0,-0.0174,-0.0512,0.0227,0.06,0.0,0.0,0.0888,0.0888,0.0888,0.0,0.0,0.0,0.0,0.0,0.0,0.0,0.0,0.0,0.0,0.0,0.0,0.0,0.0,0.0,0.0,0.0,0.0,0.0,0.0,0.0,0.0,0.0,0.0,0.0,0.0,0.0,0.0,0.0,0.0,0.0,0.0,0.0,0.0,0.0,0.0,0.0,0.0,0.0,0.0,0.0,0.0,0.0,0.0,0.0,0.0,0.0,0.0,0.0,0.0,0.0,0.0,0.0,0.0,0.0,0.1728,0.2579,0.2596,0.2812,0.3286,0.3309,0.3671,0.4396,0.3671,0.3496,0.0,0.0,0.0,0.0,0.0,0.0,0.0,0.0,0.0,0.0,0.0,0.0,0.0,0.0,0.0,0.0,0.0,0.0,0.0,0.0,0.0,0.0,0.0,0.0,0.0,0.0,0.0,0.0,0.0,0.0,0.0,0.0,0.0,0.0,0.0,0.0,0.0,0.0,0.0,0.0,0.0,0.0,0.0309,0.067,0.0,0.0,0.0,0.0888,0.0888,0.0,0.0,0.0,0.0,0.0,0.0,0.0,0.0,0.0,0.0,0.0,0.0,0.0,0.0,0.0,0.0,0.0,0.0,0.0,0.0,0.0,0.0,0.0,0.0,0.0,0.0,0.0,0.0,0.0,0.0,0.0,0.0,0.0,0.0,0.0,0.0,0.0,0.0,0.0,0.0,0.0,0.0,0.0,0.0,0.0,0.0,0.0,0.0,0.0,0.0,0.0,0.0,0.0,0.0,0.0,0.0,0.0,0.2652,0.2603,0.2801,0.3381,0.3363,0.3682,0.4233,0.3878,0.0,0.0,0.0,0.0,0.0,0.0,0.0,0.0,0.0,0.0,0.0,0.0,0.0,0.0,0.0,0.0,0.0,0.0,0.0,0.0,0.0,0.0,0.0,0.0,0.0,0.0,0.0,0.0,0.0,0.0,0.0,0.0,0.0,0.0,0.0,0.0,0.0,0.0,0.0,0.0,0.0,0.0,0.0277,0.067,0.0762,0.0688,0.0,0.0,0.0751,0.0784,0.0796,0.0818,0.0,0.0,0.0,0.0,0.0,0.0,0.0,0.0,0.0,0.0,0.0,0.0,0.0,0.0,0.0,0.0,0.0,0.0,0.0,0.0,0.0,0.0,0.0,0.0,0.0,0.0,0.0,0.0,0.0,0.0,0.0,0.0,0.0,0.0,0.0,0.0,0.0,0.0,0.0,0.0,0.0,0.0,0.0,0.0,0.0,0.0,0.0,0.0,0.0,0.0,0.0,0.0,0.0,0.0,0.0,0.2642,0.2673,0.2994,0.3537,0.3565,0.3806,0.4213,0.4284,0.4009,0.0,0.0,0.0,0.0,0.0,0.0,0.0,0.0,0.0,0.0,0.0,0.0,0.0,0.0,0.0,0.0,0.0,0.0,0.0,0.0,0.0,0.0,0.0,0.0,0.0,0.0,0.0,0.0,0.0,0.0,0.0,0.0,0.0,0.0,0.0,0.0,0.0,0.0,0.0,0.0,0.0,0.0,0.0222,0.0413,0.0443,0.0,0.0,0.0311,0.0502,0.0524,0.0615,0.0854,0.0,0.0,0.0,0.0,0.0,0.0,0.0,0.0,0.0,0.0,0.0,0.0,0.0,0.0,0.0,0.0,0.0,0.0,0.0,0.0,0.0,0.0,0.0,0.0,0.0,0.0,0.0,0.0,0.0,0.0,0.0,0.0,0.0,0.0,0.0,0.0,0.0,0.0,0.0,0.0,0.0,0.0,0.0,0.0,0.0,0.0,0.0,0.0,0.0,0.0,0.0,0.0,0.0,0.1879,0.2702,0.2771,0.3069,0.3595,0.3487,0.3544,0.3821,0.4205,0.3992,0.0,0.0,0.0,0.0,0.0,0.0,0.0,0.0,0.0,0.0,0.0,0.0,0.0,0.0,0.0,0.0,0.0,0.0,0.0,0.0,0.0,0.0,0.0,0.0,0.0,0.0,0.0,0.0,0.0,0.0,0.0,0.0,0.0,0.0,0.0,0.0,0.0,0.0,0.0,0.0,0.0,0.0232,0.0261,0.0291,0.0,0.0,0.0211,0.0211,0.03,0.0424,0.0513,0.0581,0.0549,0.0,0.0,0.0,0.0,0.0,0.0,0.0,0.0,0.0,0.0,0.0,0.0,0.0,0.0,0.0,0.0,0.0,0.0,0.0,0.0,0.0,0.0,0.0,0.0,0.0,0.0,0.0,0.0,0.0,0.0,0.0,0.0,0.0,0.0,0.0,0.0,0.0,0.0,0.0,0.0,0.0,0.0,0.0,0.0,0.0,0.0,0.0,0.0,0.0,0.0,0.0,0.0,0.1964,0.2673,0.2832,0.3127,0.3615,0.3429,0.3398,0.3625,0.404,0.3884,0.0,0.0,0.0,0.0,0.0,0.0,0.0,0.0,0.0,0.0,0.0,0.0,0.0,0.0,0.0,0.0,0.0,0.0,0.0,0.0,0.0,0.0,0.0,0.0,0.0,0.0,0.0,0.0,0.0,0.0,0.0,0.0,0.0,0.0,0.0,0.0,0.0,0.0,0.0,0.0,0.0,0.0365,0.0359,0.0295,0.0245,0.0256,0.0222,0.0211,0.0211,0.0322,0.039,0.0346,0.0,0.0,0.0,0.0,0.0,0.0,0.0,0.0,0.0,0.0,0.0,0.0,0.0,0.0,0.0,0.0,0.0,0.0,0.0,0.0,0.0,0.0,0.0,0.0,0.0,0.0,0.0,0.0,0.0,0.0,0.3298,0.0,0.0,0.0,0.0,0.0,0.0,0.0,0.0,0.0,0.0,0.0,0.0,0.0,0.0,0.0,0.0,0.0,0.0,0.0,0.0,0.0,0.0,0.0,0.2699,0.2835,0.3127,0.3598,0.3471,0.3435,0.3582,0.3817,0.367,0.3135,0.0,0.0,0.0,0.0,0.0,0.0,0.0,0.0,0.0,0.0,0.0,0.0,0.0,0.0,0.0,0.0,0.0,0.0,0.0,0.0,0.0,0.0,0.0,0.0,0.0,0.0,0.0,0.0,0.0,0.0,0.0,0.0,0.0,0.0,0.0,0.0,0.0,0.0,0.0,0.031,0.0348,0.0466,0.0381,0.0311,0.0368,0.0281,0.0214,0.0214,0.0214,0.0222,0.0,0.0,0.0,0.0,0.0,0.0,0.0,0.0,0.0,0.0,0.0,0.0,0.0,0.0,0.0,0.0,0.0,0.0,0.0,0.0,0.0,0.0,0.0,0.0,0.0,0.0,0.0,0.4792,0.4356,0.0,0.0,0.0,0.0,0.0,0.0,0.0,0.0,0.0,0.0,0.0,0.4474,0.4427,0.0,0.0,0.0,0.0,0.0,0.0,0.0,0.0,0.0,0.0,0.0,0.0,0.2239,0.2798,0.3075,0.3292,0.3503,0.3317,0.3166,0.3132,0.3556,0.3649,0.3428,0.0,0.0,0.0,0.0,0.0,0.0,0.0,0.0,0.0,0.0,0.0,0.0,0.0,0.0,0.0,0.0,0.0,0.0,0.0,0.0,0.0,0.0,0.0,0.0,0.0,0.0,0.0,0.0,0.0,0.0,0.0,0.0,0.0,0.0,0.0,0.0,0.0,0.0242,0.0296,0.0341,0.0364,0.0362,0.0335,0.03,0.0,0.0,0.0,0.0,0.0,0.0,0.0,0.0,0.0,0.0,0.0,0.0,0.0,0.0,0.0282,0.0366,0.0312,0.0235,0.0123,0.0,0.0,0.0,0.0,0.0,0.0,0.0,0.0,0.0,0.0,0.0,0.0,0.0,0.0,0.5798,0.0,0.5344,0.0,0.0,0.0,0.0,0.0,0.0,0.0,0.0,0.5228,0.5386,0.4978,0.4982,0.4616,0.0,0.3625,0.3095,0.0,0.0,0.0,0.0,0.0,0.0,0.0,0.0,0.2399,0.2882,0.3178,0.3366,0.3481,0.327,0.3131,0.3018,0.3398,0.356,0.3422,0.3019,0.2632,0.0,0.0,0.0,0.0,0.0,0.0,0.0,0.0,0.0,0.0,0.0,0.0,0.0,0.0,0.0,0.0,0.0,0.0,0.0,0.0,0.0,0.0,0.0,0.0,0.0,0.0,0.0,0.0,0.0,0.0,0.0,0.0,0.0,0.0486,0.0373,0.0328,0.0427,0.0438,0.0406,0.0344,0.0,0.0,0.0,0.0,0.0,0.0,0.0,0.0508,0.0507,0.0516,0.0477,0.0268,0.0211,0.0211,0.0211,0.0,0.0,0.0365,0.035,0.028,0.0099,-0.0053,-0.0222,-0.0568,-0.0684,-0.0823,0.0,0.0,0.0,0.0,0.0,0.0,0.0,0.0,0.6693,0.668,0.0,0.6384,0.0,0.0,0.0,0.0,0.0,0.529,0.0,0.0,0.571,0.5844,0.5199,0.5414,0.5085,0.4353,0.4442,0.4166,0.3488,0.274,0.0,0.0,0.0,0.0,0.0,0.0,0.2457,0.2941,0.3204,0.3361,0.3468,0.3371,0.3279,0.3215,0.3442,0.3429,0.3141,0.3197,0.3009,0.2614,0.1978,0.0,0.0,0.0,0.0,0.0,0.0,0.0,0.0,0.0,0.0,0.0,0.0,0.0,0.0,0.0,0.0,0.0,0.0,0.0,0.0,0.0004,0.0,0.0,0.0,0.0,0.0,0.0,0.0,0.0,0.0,0.0,0.0606,0.0548,0.0566,0.0676,0.0,0.0,0.0,0.0,0.056,0.1028,0.111,0.1107,0.1104,0.0876,0.0702,0.0702,0.0,0.0,0.0351,0.0261,0.0211,0.0222,0.0216,0.0233,0.0272,0.0251,0.0168,0.004,0.0,-0.0116,-0.0409,-0.0568,-0.067,0.9059,0.0,0.0,0.0,0.0,0.7755,0.8103,0.8433,0.8484,0.813,0.7542,0.7462,0.0,0.0,0.0,0.0,0.0,0.0,0.65,0.6335,0.6446,0.6492,0.651,0.5794,0.5374,0.5169,0.4717,0.4333,0.4086,0.3673,0.3079,0.2223,0.0,0.0,0.0,0.0,0.3066,0.3438,0.3544,0.3574,0.3527,0.3292,0.3331,0.3689,0.3832,0.3889,0.3817,0.3658,0.3312,0.2758,0.2465,0.0,0.0,0.0,0.0,0.0,0.0,0.0,0.0,0.0,0.0,0.0,0.0,0.0,0.0,0.0,0.0,0.0,0.0,0.0,0.0519,0.0201,0.0,0.0,0.0,0.0,0.0,0.0,0.0,0.0,0.0,0.0,0.061,0.0572,0.0577,0.0,0.0,0.0493,0.047,0.0426,0.056,0.1038,0.0,0.0,0.0,0.0947,0.0845,0.0818,0.0738,0.0655,0.0606,0.0458,0.0346,0.0347,0.0278,0.0219,0.021,0.0215,0.0189,0.0135,0.0028,-0.0109,-0.026,-0.0474,-0.0706,1.0514,0.9189,0.8851,0.8732,0.8929,0.9057,0.9265,0.9579,0.9466,0.9185,0.8791,0.8677,0.8163,0.7361,0.7014,0.0,0.0,0.0,0.709,0.6919,0.6827,0.6915,0.7002,0.6187,0.5737,0.5608,0.5005,0.4662,0.4483,0.4308,0.379,0.3066,0.0,0.0,0.2755,0.3092,0.3444,0.377,0.3765,0.3689,0.3536,0.339,0.345,0.3733,0.4102,0.417,0.393,0.3878,0.3565,0.2995,0.2776,0.24,0.0,0.0,0.0,0.0,0.0,0.0,0.0,0.0,0.0,0.0,0.0,0.0,0.0,0.0,0.0,0.0,0.0916,0.1194,0.1189,0.0634,0.0,0.0,0.0,0.0,0.0,0.0,0.0,0.0719,0.0742,0.0726,0.0649,0.0644,0.066,0.0728,0.0696,0.0709,0.0744,0.0,0.077,0.1037,0.1111,0.1111,0.111,0.1047,0.0952,0.093,0.0812,0.0747,0.0698,0.0613,0.0521,0.0516,0.0453,0.0273,-0.0109,0.004,0.0209,0.0142,-0.0013,-0.0161,-0.0271,-0.0524,-0.0751,1.1777,1.1483,1.0929,1.0732,1.0665,1.0334,1.0207,1.0167,0.99,0.9907,1.0094,0.9833,0.9552,0.917,0.8329,0.0,0.6957,0.7362,0.7258,0.6835,0.7004,0.7047,0.6977,0.6426,0.6007,0.5831,0.5349,0.4995,0.4816,0.4586,0.4337,0.4057,0.3677,0.346,0.3404,0.3494,0.3676,0.3919,0.3913,0.3803,0.3598,0.3671,0.3649,0.3565,0.4226,0.4273,0.3721,0.3921,0.3811,0.3232,0.2953,0.2589,0.2146,0.0,0.0,0.0,0.0,0.0,0.0,0.0,0.0,0.0,0.0,0.0,0.0,0.0,0.0,0.0,0.1288,0.0,0.1836,0.1231,0.0,0.0,0.0,0.114,0.0547,0.1034,0.1232,0.0809,0.0,0.0,0.0719,0.0,0.0744,0.088,0.0961,0.1019,0.11,0.1096,0.1111,0.111,0.1111,0.1111,0.1111,0.1104,0.1027,0.0916,0.0894,0.0849,0.0723,0.0693,0.0693,0.0684,0.0697,0.0405,-0.0571,-0.0207,0.0161,0.0,-0.013,-0.0246,-0.0346,-0.059,-0.0797,1.2573,1.2398,1.2037,1.163,1.1223,1.1142,1.0989,1.0782,1.0708,1.0468,1.0114,1.0047,0.9846,0.9508,0.8783,0.8317,0.8146,0.7767,0.7429,0.7152,0.6819,0.6597,0.6376,0.5786,0.5492,0.5441,0.5198,0.506,0.5003,0.465,0.4457,0.4365,0.4195,0.3951,0.3657,0.3782,0.3987,0.4191,0.4121,0.3845,0.3483,0.3552,0.3723,0.3941,0.4244,0.432,0.4137,0.3949,0.3684,0.3297,0.2979,0.2667,0.2345,0.1871,0.0,0.0,0.0,0.0,0.0,0.0,0.0,0.0,0.0,0.0262,0.0874,0.0,0.1486,0.0,0.2003,0.1813,0.1619,0.1612,0.0,0.0,0.1299,0.1231,0.1155,0.1298,0.1366,0.1232,0.1027,0.0894,0.0849,0.0803,0.0812,0.0886,0.096,0.1017,0.1097,0.1111,0.1111,0.1111,0.1111,0.1111,0.1111,0.1111,0.1068,0.0914,0.0894,0.0854,0.0718,0.0698,0.0698,0.0698,0.0698,0.0375,-0.0339,-0.0444,-0.0394,-0.0262,-0.0247,-0.024,-0.0204,-0.052,-0.079,1.2748,1.2538,1.2371,1.2111,1.1804,1.1683,1.153,1.1369,1.1109,1.0808,1.0501,1.0374,1.0154,0.988,0.9451,0.9204,0.9091,0.8675,0.83,0.7862,0.7478,0.7135,0.6668,0.6041,0.5727,0.5668,0.5354,0.5202,0.5186,0.4918,0.4743,0.461,0.4483,0.4256,0.3992,0.4081,0.4179,0.4312,0.4033,0.3781,0.3509,0.3595,0.3719,0.3881,0.43,0.4364,0.409,0.4031,0.3788,0.3325,0.3115,0.2881,0.2577,0.2287,0.2034,0.0,0.0,0.0,0.0,0.0,0.0,0.0,0.0,0.0,0.0,0.0,0.1937,0.0,0.2212,0.2057,0.183,0.1892,0.1896,0.1783,0.1476,0.1319,0.1405,0.141,0.141,0.141,0.1208,0.1027,0.0916,0.0888,0.0892,0.085,0.0898,0.0996,0.1089,0.1111,0.1111,0.1111,0.1111,0.1111,0.1111,0.1087,0.1037,0.0917,0.0873,0.0824,0.0737,0.0698,0.0698,0.0698,0.0698,0.0473,-0.0247,-0.0496,-0.0521,-0.0402,-0.0348,-0.0366,-0.0348,-0.0586,-0.0781,1.2652,1.2412,1.2338,1.2305,1.2285,1.2031,1.1904,1.183,1.1329,1.1062,1.0975,1.0728,1.0454,1.0174,1.0045,0.9906,0.9682,0.9617,0.9172,0.8587,0.8384,0.7965,0.7295,0.6574,0.6209,0.6154,0.5567,0.5301,0.5293,0.5169,0.4999,0.4836,0.4594,0.4421,0.4313,0.4288,0.432,0.4312,0.3878,0.3663,0.3617,0.3621,0.3626,0.3663,0.4322,0.44,0.384,0.4125,0.4024,0.3409,0.3356,0.3204,0.2861,0.2831,0.2596,0.0,0.1895,0.0,0.0,0.0,0.0,0.0,0.0,0.0,0.0,0.2683,0.2381,0.2144,0.2202,0.2231,0.2192,0.211,0.203,0.192,0.161,0.141,0.141,0.141,0.141,0.141,0.1341,0.1208,0.1007,0.0982,0.0981,0.0903,0.0932,0.1005,0.1061,0.1097,0.1111,0.1111,0.1111,0.1111,0.1106,0.1058,0.0969,0.0906,0.0847,0.0762,0.0709,0.0698,0.0698,0.0698,0.0698,0.0451,-0.0247,-0.0406,-0.0406,-0.0422,-0.0443,-0.0486,-0.0539,-0.0663,-0.073,1.3093,1.2993,1.2512,1.2305,1.2298,1.2245,1.2091,1.1864,1.175,1.1436,1.0995,1.0935,1.0748,1.0481,0.9895,0.9605,0.9493,0.8989,0.8561,0.8293,0.8054,0.7723,0.7419,0.6579,0.6209,0.6154,0.5567,0.5301,0.5297,0.5169,0.5064,0.5023,0.4706,0.4481,0.4441,0.0,0.0,0.0,0.3923,0.3702,0.369,0.3426,0.3434,0.3649,0.3874,0.0,0.3903,0.4151,0.4082,0.3655,0.363,0.0,0.0,0.0,0.0,0.0,0.0,0.0,0.0,0.0,0.0,0.0,0.268,0.2379,0.1948,0.2286,0.24,0.2221,0.2345,0.2386,0.2233,0.2328,0.2162,0.1588,0.1433,0.141,0.141,0.141,0.141,0.141,0.1341,0.1277,0.1239,0.1199,0.1184,0.1191,0.1192,0.1104,0.0962,0.1018,0.1108,0.1111,0.1111,0.1111,0.1111,0.1058,0.0967,0.0905,0.0845,0.0762,0.0711,0.0698,0.0698,0.0698,0.0698,0.0473,-0.0247,-0.0406,-0.0406,-0.0451,-0.0496,-0.048,-0.045,-0.0634,-0.075,1.312,0.0,1.2492,1.2305,0.0,1.2305,1.2218,1.2078,1.1931,1.1617,1.1202,1.1056,1.0909,1.0762,1.0296,1.004,1.004,0.9716,0.9255,0.8857,0.8609,0.8244,0.7649,0.7079,0.6748,0.6647,0.6327,0.6218,0.6164,0.5842,0.5584,0.5492,0.4907,0.4586,0.4497,0.4365,0.432,0.4316,0.4012,0.3834,0.3862,0.3705,0.3675,0.3836,0.0,0.0,0.0,0.0,0.0,0.0,0.0,0.0,0.0,0.0,0.0,0.2908,0.2902,0.3,0.3184,0.2997,0.2973,0.3184,0.2947,0.268,0.2412,0.2524,0.2545,0.2461,0.2471,0.2444,0.23,0.2369,0.2321,0.1979,0.1607,0.141,0.141,0.141,0.141,0.141,0.1366,0.1361,0.1349,0.1276,0.1276,0.13,0.1269,0.1166,0.097,0.1,0.111,0.1111,0.1111,0.1111,0.1106,0.1059,0.101,0.0939,0.0864,0.0787,0.0706,0.0698,0.0698,0.0698,0.0698,0.0496,0.0022,-0.027,-0.0406,-0.0451,-0.0473,-0.049,-0.0466,-0.0625,-0.0768,1.3106,1.2882,1.2505,1.2345,1.2305,1.2305,1.2305,1.2285,0.0,0.0,0.0,1.1202,1.1042,1.0969,1.0688,1.0618,1.0618,1.0618,1.0231,0.9697,0.9556,0.8981,0.8122,0.7829,0.7533,0.7246,0.7139,0.7133,0.7085,0.6588,0.6284,0.6062,0.5494,0.5035,0.4773,0.4629,0.453,0.4526,0.427,0.4181,0.425,0.4178,0.4106,0.4106,0.4543,0.4641,0.4334,0.4671,0.4719,0.4402,0.4301,0.4152,0.3861,0.3694,0.3536,0.3366,0.3326,0.3305,0.322,0.3241,0.3247,0.3208,0.339,0.3445,0.3338,0.3045,0.2862,0.286,0.2735,0.2646,0.2586,0.2446,0.2402,0.2461,0.1953,0.1566,0.1435,0.1453,0.1483,0.1472,0.1483,0.1485,0.1476,0.1421,0.138,0.1416,0.1376,0.125,0.1079,0.1078,0.1143,0.1211,0.1143,0.1111,0.1136,0.1058,0.102,0.1009,0.0881,0.0786,0.0714,0.0698,0.0698,0.0698,0.0698,0.0586,0.0315,-0.0022,-0.0315,-0.0337,-0.0428,-0.0473,-0.0493,-0.0617,-0.0768,1.3407,1.312,1.2812,1.2532,1.2305,1.2305,1.2305,1.2298,1.2251,1.2078,1.179,1.1496,1.1223,1.0975,1.0752,1.0618,1.0618,1.0618,1.0561,0.0,1.0131,0.9781,0.9376,0.8626,0.8074,0.7783,0.7348,0.7133,0.7085,0.7031,0.6956,0.6897,0.6634,0.6297,0.5881,0.5639,0.5524,0.548,0.4929,0.4791,0.5182,0.4808,0.4598,0.4622,0.4748,0.4647,0.4305,0.4887,0.5046,0.4668,0.4577,0.4467,0.4385,0.3925,0.3736,0.387,0.3883,0.3688,0.3251,0.3482,0.3501,0.3293,0.4059,0.4387,0.3925,0.3599,0.3425,0.3465,0.334,0.3272,0.3227,0.269,0.2411,0.2473,0.2422,0.21,0.1519,0.1623,0.1734,0.1737,0.1764,0.1732,0.1721,0.1628,0.1646,0.1791,0.164,0.1486,0.146,0.1262,0.1243,0.141,0.1276,0.1179,0.1238,0.1123,0.1058,0.1017,0.0917,0.0819,0.0722,0.0704,0.07,0.0698,0.0698,0.0676,0.0586,0.0247,-0.0022,-0.0135,-0.027,-0.0383,-0.0406,-0.0487,-0.0655,1.3474,1.318,1.2956,1.2579,1.2305,1.2305,1.2305,1.2305,1.2305,1.2231,1.2064,1.163,1.1349,1.1196,1.0826,1.0618,1.0618,1.0618,1.0618,1.0548,1.0414,1.0114,0.9699,0.931,0.8837,0.8387,0.8156,0.8055,0.7996,0.767,0.7557,0.7492,0.7039,0.6575,0.6116,0.5985,0.5952,0.5996,0.5508,0.5371,0.5533,0.5431,0.5288,0.5161,0.5221,0.5151,0.4863,0.5141,0.5217,0.5016,0.4916,0.4784,0.4552,0.4373,0.4217,0.4016,0.3998,0.3931,0.376,0.4086,0.4253,0.408,0.4527,0.4715,0.446,0.4041,0.3775,0.3704,0.3591,0.3514,0.346,0.301,0.2717,0.2695,0.2463,0.2174,0.1957,0.1923,0.1948,0.1971,0.1865,0.1841,0.1907,0.178,0.177,0.1957,0.1838,0.1755,0.1849,0.1744,0.168,0.1814,0.1747,0.1579,0.1509,0.1383,0.1326,0.1322,0.1195,0.1014,0.0837,0.0748,0.0704,0.0698,0.0698,0.0698,0.0698,0.0428,0.0202,0.0067,-0.009,-0.0202,-0.0247,-0.0337,-0.0606,1.3527,1.3186,1.2953,1.2639,1.2311,1.2305,1.2305,1.2305,1.2305,1.2305,1.2225,1.169,1.143,1.1363,1.0822,1.0618,1.0618,1.0618,1.0618,1.0618,1.0618,1.0254,0.9726,0.9686,0.9379,0.8864,0.8804,0.8804,0.8752,0.8315,0.809,0.8059,0.7406,0.6841,0.6505,0.6384,0.6361,0.6428,0.6161,0.599,0.599,0.6037,0.5929,0.5671,0.5689,0.5571,0.5336,0.5309,0.5309,0.5309,0.5189,0.5028,0.4761,0.4791,0.4618,0.4257,0.4202,0.4235,0.4346,0.4611,0.478,0.478,0.478,0.478,0.4756,0.4435,0.4159,0.4042,0.3923,0.379,0.3725,0.353,0.3301,0.312,0.2508,0.2148,0.2213,0.2162,0.2114,0.2093,0.1982,0.1914,0.1963,0.1932,0.1899,0.1968,0.1965,0.1991,0.209,0.2114,0.2114,0.2114,0.2114,0.1963,0.1685,0.1574,0.1527,0.1523,0.1383,0.1187,0.0994,0.0844,0.0729,0.0698,0.0698,0.0698,0.0676,0.0541,0.036,0.0247,0.009,-0.0045,-0.0112,-0.027,-0.0516,1.3714,1.3247,1.3166,1.2832,1.2325,1.2305,1.2305,1.2305,1.2305,1.2305,1.2245,1.169,1.143,1.1349,1.0822,1.0631,1.0561,1.0618,1.0618,1.0618,1.0618,1.0247,0.9733,0.9686,0.9379,0.8871,0.8818,0.8804,0.8804,0.8699,0.8699,0.8633,0.8095,0.7765,0.7635,0.7172,0.6927,0.6937,0.6894,0.6894,0.6875,0.6659,0.6414,0.6129,0.583,0.5571,0.5342,0.5309,0.5309,0.5309,0.5284,0.5239,0.5111,0.4922,0.4808,0.4803,0.4746,0.472,0.4757,0.4794,0.478,0.478,0.478,0.478,0.478,0.4744,0.472,0.464,0.4494,0.44,0.4387,0.4231,0.4013,0.3721,0.2885,0.2103,0.2145,0.2101,0.2114,0.2114,0.2077,0.2087,0.2069,0.202,0.1993,0.2012,0.2023,0.2074,0.207,0.2114,0.2114,0.2114,0.2114,0.2006,0.1746,0.1552,0.1478,0.1401,0.1294,0.1243,0.1195,0.0976,0.0721,0.0833,0.0766,0.0766,0.0698,0.0541,0.0427,0.0405,0.0292,0.0112,-0.0045,-0.0247,-0.0495,1.3748,1.3213,1.3206,1.2859,1.2338,1.2305,1.2305,1.2305,1.2305,1.2305,1.2258,1.187,1.159,1.1403,1.0995,1.0722,1.0631,1.0618,1.0618,1.0618,1.0618,1.0334,0.996,0.976,0.9459,0.9072,0.8898,0.8804,0.8804,0.8804,0.8804,0.8791,0.8557,0.8227,0.7895,0.7636,0.7344,0.6985,0.6972,0.6972,0.6965,0.6907,0.6707,0.642,0.6126,0.5832,0.5551,0.5377,0.5309,0.5309,0.5309,0.5277,0.5207,0.5119,0.5023,0.489,0.4838,0.478,0.478,0.478,0.478,0.478,0.478,0.478,0.478,0.478,0.478,0.478,0.4722,0.4684,0.4652,0.4614,0.4447,0.4075,0.3788,0.3298,0.2181,0.2114,0.2114,0.2114,0.2247,0.2281,0.2145,0.2074,0.2044,0.2047,0.2093,0.2111,0.2114,0.2114,0.2114,0.2114,0.2114,0.2065,0.1943,0.185,0.1739,0.1676,0.1546,0.1473,0.1438,0.13,0.1123,0.11,0.1078,0.1031,0.0962,0.0764,0.0584,0.0584,0.045,0.027,0.009,-0.018,-0.0406,1.3741,1.3227,1.3039,1.2712,1.2311,1.2305,1.2305,1.2305,1.2305,1.2305,1.2285,1.2078,1.1824,1.1523,1.1162,1.0875,1.0688,1.0665,1.0618,1.0618,1.0618,1.0401,1.0114,0.9907,0.9599,0.9203,0.9031,0.8891,0.8818,0.8804,0.8804,0.8798,0.8731,0.8437,0.7976,0.7815,0.7548,0.7025,0.6972,0.6972,0.6972,0.6972,0.688,0.66,0.6398,0.6109,0.569,0.5438,0.5309,0.5309,0.5309,0.5277,0.5239,0.5277,0.5176,0.4922,0.4864,0.4838,0.4812,0.478,0.478,0.478,0.478,0.478,0.478,0.478,0.478,0.478,0.478,0.478,0.478,0.478,0.464,0.4371,0.4608,0.4188,0.3068,0.251,0.2217,0.2447,0.2577,0.2477,0.2247,0.2145,0.2106,0.2109,0.2111,0.2114,0.2114,0.2114,0.2114,0.2114,0.2114,0.2114,0.2109,0.2015,0.2004,0.1851,0.1673,0.1606,0.1653,0.1533,0.1413,0.1254,0.1366,0.1366,0.1208,0.0987,0.0808,0.0806,0.0672,0.0404,0.0269,-0.0022,-0.0225,1.3748,1.3153,1.2585,1.2351,1.2305,1.2305,1.2305,1.2305,1.2305,1.2305,1.2305,1.2278,1.2118,1.1817,1.1269,1.0989,1.0929,1.0681,1.0618,1.0618,1.0618,1.0401,1.0127,1.0094,0.98,0.9283,0.9218,0.9004,0.8818,0.8804,0.8804,0.8798,0.8571,0.8257,0.7936,0.7675,0.7348,0.7061,0.6972,0.6972,0.6972,0.6972,0.6887,0.6633,0.6525,0.6256,0.5778,0.5444,0.5322,0.5316,0.5316,0.5309,0.5309,0.5309,0.5182,0.4953,0.4915,0.4864,0.4806,0.478,0.478,0.478,0.478,0.478,0.478,0.478,0.478,0.478,0.478,0.478,0.478,0.478,0.478,0.4742,0.4748,0.4716,0.4614,0.3171,0.2676,0.3101,0.3006,0.2742,0.254,0.2245,0.2181,0.215,0.2114,0.2114,0.2114,0.2114,0.2114,0.2114,0.2114,0.2114,0.2106,0.2047,0.191,0.1786,0.174,0.1634,0.1601,0.156,0.1472,0.1413,0.141,0.1388,0.1363,0.1252,0.1072,0.0961,0.0781,0.0558,0.0471,0.0314,0.0135,1.3454,1.2879,1.2478,1.2305,1.2305,1.2305,1.2305,1.2305,1.2305,1.2305,1.2305,1.2305,1.2245,1.2118,1.1536,1.1169,1.0975,1.0695,1.0618,1.0618,1.0618,1.0501,1.0394,1.0214,1.0027,0.978,0.9419,0.9037,0.8838,0.8804,0.8804,0.8798,0.8704,0.8417,0.7996,0.7822,0.7528,0.7032,0.6972,0.6972,0.6972,0.6972,0.6967,0.6867,0.6693,0.646,0.6279,0.5812,0.5558,0.5558,0.5384,0.5309,0.5309,0.5277,0.5207,0.5081,0.4979,0.4864,0.4806,0.478,0.478,0.478,0.478,0.478,0.478,0.478,0.478,0.478,0.478,0.478,0.478,0.478,0.478,0.478,0.478,0.478,0.471,0.4183,0.3788,0.3658,0.3364,0.327,0.3233,0.2937,0.2606,0.254,0.2347,0.2217,0.2114,0.2114,0.2114,0.2114,0.2114,0.2114,0.2114,0.2047,0.1957,0.1894,0.1802,0.1721,0.1669,0.1711,0.1642,0.1528,0.1464,0.1449,0.1444,0.1392,0.1221,0.1078,0.0914,0.0834,0.0738,0.0566,0.0453,1.3353,1.2886,1.2572,1.2385,1.2311,1.2305,1.2305,1.2305,1.2305,1.2305,1.2305,1.2305,1.2305,1.2204,1.1683,1.1329,1.1096,1.0748,1.0618,1.0618,1.0618,1.0618,1.0528,1.0354,1.02,1.0033,0.9462,0.9077,0.8958,0.8851,0.8811,0.8804,0.8804,0.8564,0.8136,0.7983,0.7623,0.7248,0.7081,0.6972,0.6972,0.6972,0.6972,0.6994,0.6827,0.668,0.6593,0.6286,0.6032,0.5838,0.5491,0.5364,0.5531,0.5432,0.5346,0.532,0.519,0.5015,0.4824,0.478,0.4844,0.494,0.4876,0.478,0.478,0.478,0.478,0.478,0.478,0.478,0.478,0.478,0.478,0.478,0.478,0.478,0.478,0.478,0.4543,0.4145,0.3853,0.3788,0.3788,0.3392,0.3064,0.2867,0.261,0.2414,0.2183,0.2114,0.2114,0.2114,0.2114,0.2114,0.2114,0.2085,0.2032,0.1968,0.1908,0.1824,0.1778,0.1797,0.1786,0.1664,0.1588,0.1564,0.1536,0.1482,0.1398,0.1273,0.1209,0.1164,0.0994,0.0811,0.0672,1.3467,1.316,1.295,1.2572,1.2358,1.2318,1.2305,1.2305,1.2305,1.2305,1.2305,1.2305,1.2305,1.2191,1.173,1.1436,1.1296,1.0842,1.0651,1.0561,1.0618,1.0618,1.0618,1.0528,1.0367,1.0094,0.9475,0.9196,0.9192,0.8938,0.8804,0.8804,0.8804,0.8644,0.8414,0.809,0.7796,0.7455,0.7188,0.6999,0.6972,0.6972,0.6972,0.6972,0.6952,0.6867,0.6627,0.6827,0.6673,0.6203,0.5672,0.5611,0.6008,0.5858,0.5684,0.5622,0.5587,0.531,0.4881,0.4812,0.4966,0.5157,0.5004,0.4844,0.4838,0.4812,0.4812,0.4812,0.4806,0.4806,0.4812,0.478,0.478,0.478,0.478,0.478,0.478,0.478,0.478,0.4678,0.4339,0.4075,0.3918,0.3695,0.3429,0.313,0.2933,0.2673,0.2247,0.2147,0.2114,0.2114,0.2344,0.261,0.2344,0.2106,0.2069,0.2037,0.1992,0.1949,0.1916,0.1919,0.1957,0.1868,0.1895,0.1871,0.1766,0.1734,0.1654,0.1543,0.1523,0.144,0.126,0.1029,0.0815,1.3474,1.318,1.2879,1.2775,1.2579,1.2392,1.2305,1.2305,1.2305,1.2305,1.2305,1.2305,1.2305,1.2225,1.1897,1.1617,1.1396,1.1022,1.0755,1.0651,1.0618,1.0618,1.0618,1.0618,1.0463,1.01,0.9733,0.9432,0.9163,0.8951,0.8804,0.8804,0.8804,0.8651,0.8397,0.827,0.7996,0.7515,0.7375,0.7235,0.6999,0.6972,0.6972,0.6972,0.6972,0.6967,0.6901,0.6974,0.6793,0.6505,0.6129,0.6008,0.6142,0.6109,0.6062,0.6005,0.5727,0.5497,0.5171,0.4998,0.5062,0.5214,0.5182,0.5062,0.496,0.4928,0.4928,0.489,0.489,0.4864,0.4812,0.478,0.4812,0.478,0.478,0.478,0.478,0.478,0.478,0.478,0.4672,0.4576,0.4447,0.4221,0.3918,0.3681,0.336,0.2874,0.2441,0.2311,0.2245,0.215,0.2676,0.3167,0.2904,0.261,0.2436,0.2331,0.2223,0.2052,0.1999,0.1994,0.2034,0.2063,0.2098,0.2079,0.1983,0.1908,0.1841,0.1762,0.1667,0.1573,0.1453,0.1285,0.1115,1.3634,1.334,1.3046,1.2923,1.2788,1.2425,1.2305,1.2305,1.2305,1.2305,1.2305,1.2305,1.2305,1.2225,1.1891,1.161,1.1396,1.1015,1.0735,1.0581,1.0618,1.0618,1.0618,1.0618,1.0544,1.0241,0.9873,0.9593,0.9392,0.9011,0.8804,0.8804,0.8804,0.8724,0.853,0.8417,0.8116,0.7695,0.7567,0.7321,0.7081,0.6972,0.6972,0.6972,0.6972,0.6972,0.6972,0.6972,0.6934,0.6734,0.6512,0.6404,0.6492,0.6424,0.6357,0.6317,0.6096,0.581,0.5377,0.5151,0.5151,0.5284,0.5309,0.5246,0.5119,0.5119,0.5081,0.4953,0.4922,0.4928,0.4864,0.4838,0.4838,0.478,0.478,0.478,0.478,0.478,0.478,0.478,0.478,0.478,0.4716,0.4614,0.4344,0.414,0.3784,0.3204,0.2772,0.251,0.2414,0.2676,0.3495,0.3658,0.3425,0.3167,0.2874,0.2666,0.2461,0.2252,0.2107,0.2071,0.2093,0.209,0.2114,0.2114,0.2034,0.1996,0.194,0.187,0.1814,0.1793,0.1723,0.1653,0.1467,1.3921,1.3559,1.3333,1.3033,1.2842,1.2445,1.2305,1.2305,1.2305,1.2305,1.2305,1.2305,1.2305,1.2178,1.1817,1.1557,1.1343,1.0962,1.0732,1.0658,1.0624,1.0624,1.0618,1.0618,1.0534,1.0504,0.9987,0.9719,0.9606,0.9132,0.8818,0.8811,0.8804,0.8804,0.8724,0.8524,0.8277,0.7969,0.7669,0.7381,0.7088,0.6979,0.6972,0.6972,0.6972,0.6972,0.6972,0.6972,0.6972,0.6939,0.674,0.6713,0.6894,0.6754,0.6613,0.6607,0.66,0.6192,0.5631,0.5458,0.5357,0.5297,0.5309,0.5309,0.5277,0.5246,0.5214,0.5055,0.5023,0.4985,0.4922,0.489,0.4896,0.4812,0.478,0.478,0.478,0.478,0.478,0.478,0.478,0.478,0.478,0.4742,0.4576,0.4377,0.4178,0.3686,0.3298,0.3039,0.2779,0.3208,0.3858,0.4253,0.4016,0.3621,0.336,0.3105,0.2845,0.2547,0.2214,0.2114,0.2114,0.2114,0.2181,0.2181,0.2103,0.2055,0.2044,0.2031,0.2015,0.2037,0.1961,0.1858,0.1802,1.4041,1.3921,1.3427,1.3166,1.3013,1.2538,1.2305,1.2305,1.2305,1.2305,1.2305,1.2305,1.2305,1.2285,1.2131,1.1844,1.1456,1.1243,1.0929,1.0665,1.0744,1.0688,1.0618,1.0618,1.0618,1.0494,1.0167,0.9886,0.9673,0.9292,0.9005,0.8811,0.8804,0.8804,0.8784,0.8724,0.8544,0.8263,0.7963,0.7662,0.7368,0.7141,0.6979,0.6972,0.6985,0.6985,0.6979,0.6972,0.6972,0.6972,0.6961,0.6934,0.6959,0.6892,0.688,0.686,0.6707,0.6633,0.6486,0.6132,0.5786,0.5363,0.5309,0.5309,0.5309,0.5309,0.5246,0.5182,0.5144,0.5081,0.4985,0.4985,0.4928,0.4812,0.478,0.478,0.478,0.478,0.478,0.478,0.478,0.478,0.478,0.478,0.4742,0.4608,0.4409,0.4242,0.3923,0.3626,0.3429,0.3303,0.3728,0.4382,0.4581,0.4178,0.3816,0.3532,0.3274,0.2944,0.2513,0.2114,0.2114,0.2114,0.238,0.2447,0.2214,0.2093,0.2111,0.2114,0.2081,0.2081,0.2081,0.2024,0.2021,1.4015,1.3861,1.34,1.3133,1.3044,1.2648,1.2452,1.2526,1.2526,1.2526,1.2526,1.2519,1.2526,1.2519,1.231,1.2084,1.1662,1.1431,1.1114,1.0889,1.087,1.0807,1.0681,1.0618,1.0618,1.0584,1.0261,0.9967,0.9679,0.9385,0.9037,0.8858,0.8804,0.8804,0.8804,0.8798,0.8664,0.8397,0.819,0.7969,0.7669,0.7502,0.7335,0.7248,0.7208,0.7168,0.7005,0.6972,0.6972,0.6972,0.6972,0.6972,0.6972,0.6972,0.6972,0.6965,0.6854,0.6854,0.6887,0.6546,0.6014,0.5477,0.5309,0.5309,0.5309,0.5309,0.5277,0.5246,0.5239,0.5176,0.5119,0.5055,0.4966,0.4812,0.478,0.478,0.478,0.478,0.478,0.478,0.478,0.478,0.478,0.478,0.478,0.4748,0.4614,0.4614,0.4614,0.4312,0.4075,0.3923,0.3891,0.4517,0.471,0.4377,0.4274,0.4021,0.3761,0.3429,0.2841,0.2314,0.2214,0.2314,0.2547,0.2646,0.2447,0.2214,0.2114,0.2114,0.2114,0.2114,0.2114,0.2181,0.2181,1.3915,1.3621,1.3333,1.3182,1.3037,1.2736,1.2746,1.29,1.29,1.29,1.29,1.29,1.282,1.2879,1.2398,1.2137,1.1969,1.1489,1.1245,1.1143,1.1059,1.0996,1.0863,1.0681,1.0618,1.0591,1.0274,1.0,0.9719,0.9419,0.907,0.8884,0.8804,0.8811,0.8804,0.8804,0.8716,0.8535,0.847,0.8266,0.7996,0.7869,0.7721,0.7435,0.7328,0.7228,0.7032,0.6972,0.6972,0.6972,0.6972,0.6972,0.6972,0.6972,0.6972,0.6972,0.6952,0.6945,0.6939,0.6693,0.6176,0.551,0.5309,0.5309,0.5309,0.5309,0.5309,0.5309,0.5342,0.5325,0.528,0.5196,0.5062,0.4934,0.4876,0.4812,0.478,0.4812,0.4806,0.4812,0.4812,0.4812,0.4806,0.4838,0.4806,0.478,0.4716,0.4748,0.478,0.4614,0.4511,0.4549,0.4581,0.4684,0.4678,0.4511,0.4576,0.4511,0.4312,0.3918,0.3233,0.2742,0.251,0.258,0.3076,0.3076,0.2676,0.2477,0.2347,0.2214,0.2311,0.2214,0.2147,0.2281,0.2314,1.3998,1.3784,1.3552,1.3324,1.3182,1.2959,1.29,1.29,1.29,1.2973,1.29,1.29,1.29,1.2879,1.2513,1.2193,1.203,1.164,1.1417,1.1213,1.1122,1.1178,1.1115,1.0933,1.0681,1.0598,1.0564,1.018,0.9773,0.9573,0.9319,0.8864,0.8903,0.891,0.8857,0.9008,0.8995,0.8729,0.87,0.857,0.8319,0.8166,0.7923,0.756,0.7268,0.7108,0.7005,0.6972,0.6972,0.6972,0.6972,0.6972,0.6972,0.6972,0.6972,0.6972,0.6972,0.6972,0.6952,0.6867,0.642,0.5477,0.5309,0.5309,0.5309,0.5309,0.5309,0.5356,0.5471,0.5578,0.5538,0.5326,0.5208,0.5119,0.5023,0.4902,0.4838,0.4902,0.4934,0.4966,0.4966,0.4928,0.489,0.489,0.4864,0.4806,0.478,0.478,0.478,0.478,0.478,0.478,0.478,0.478,0.4748,0.4646,0.4678,0.4742,0.4608,0.4473,0.3756,0.3364,0.3167,0.3368,0.3803,0.3569,0.3204,0.2973,0.2907,0.2706,0.254,0.2477,0.2447,0.2513,0.2477,1.4069,1.3829,1.3729,1.3474,1.3234,1.3117,1.3119,1.3193,1.32,1.32,1.3193,1.3193,1.32,1.3185,1.2855,1.2565,1.2144,1.1761,1.1538,1.1457,1.1373,1.131,1.124,1.1122,1.0933,1.0744,1.0618,1.0288,0.9885,0.9697,0.9484,0.895,0.9001,0.9061,0.9008,0.9166,0.9113,0.9033,0.8968,0.8878,0.8684,0.8575,0.8242,0.7767,0.7375,0.707,0.7112,0.7112,0.707,0.7021,0.6972,0.6972,0.6972,0.6972,0.6972,0.6972,0.6972,0.6972,0.6972,0.6906,0.6506,0.5437,0.5322,0.5309,0.5309,0.5309,0.5423,0.5544,0.5638,0.5705,0.5691,0.5412,0.5304,0.5277,0.5214,0.5093,0.5062,0.5023,0.5055,0.5093,0.5062,0.4992,0.4953,0.4953,0.4953,0.4902,0.4812,0.4812,0.478,0.478,0.478,0.478,0.478,0.478,0.478,0.478,0.4748,0.478,0.4742,0.4678,0.4415,0.4118,0.3918,0.4123,0.4291,0.4221,0.3891,0.3695,0.3401,0.3167,0.3006,0.2874,0.2775,0.2746,0.2709,1.4234,1.3887,1.3838,1.3641,1.3388,1.3302,1.3346,1.3492,1.3492,1.3419,1.3492,1.3492,1.3419,1.3397,1.3252,1.289,1.2356,1.1897,1.1575,1.1567,1.156,1.1498,1.1365,1.131,1.1115,1.0863,1.0807,1.037,1.0071,0.984,0.9694,0.9212,0.9166,0.9218,0.9211,0.9263,0.9211,0.9145,0.9235,0.9169,0.902,0.8978,0.874,0.8132,0.7561,0.7223,0.7209,0.7209,0.716,0.7021,0.7021,0.6972,0.6972,0.6972,0.6972,0.6972,0.6972,0.6972,0.6972,0.6926,0.6587,0.5605,0.5618,0.547,0.5403,0.5457,0.5631,0.5752,0.5867,0.5852,0.5818,0.5605,0.5404,0.5304,0.5309,0.5309,0.5277,0.5151,0.5151,0.5214,0.5182,0.5119,0.5087,0.5049,0.5023,0.4992,0.4902,0.4838,0.4844,0.4812,0.4812,0.4844,0.4844,0.4838,0.4832,0.4812,0.4812,0.4812,0.4812,0.4812,0.4812,0.4581,0.4382,0.4549,0.4652,0.4517,0.4447,0.4285,0.3988,0.3695,0.3462,0.3331,0.32,0.301,0.294,1.4613,1.4429,1.4173,1.4,1.3812,1.3535,1.3492,1.3492,1.3492,1.3492,1.3492,1.3492,1.3492,1.3433,1.3192,1.2669,1.2226,1.1802,1.1589,1.163,1.1622,1.156,1.1498,1.1373,1.124,1.1185,1.1052,1.078,1.0387,1.0189,0.9869,0.9603,0.9429,0.9316,0.9309,0.9413,0.9413,0.9309,0.9413,0.9361,0.9211,0.9141,0.8975,0.8343,0.7783,0.751,0.7377,0.7272,0.7209,0.716,0.707,0.7021,0.7021,0.7021,0.7021,0.6972,0.6972,0.6972,0.6972,0.6959,0.6941,0.6767,0.662,0.6139,0.5759,0.5752,0.5994,0.5967,0.6088,0.6203,0.6445,0.6035,0.5665,0.5457,0.5376,0.541,0.5377,0.5392,0.5378,0.5418,0.5339,0.5214,0.5182,0.5151,0.5119,0.5119,0.5062,0.4998,0.4998,0.4934,0.4844,0.4876,0.4902,0.4896,0.489,0.4832,0.4806,0.4838,0.487,0.487,0.4838,0.4812,0.478,0.478,0.478,0.4716,0.4678,0.4678,0.4452,0.4058,0.3918,0.3816,0.3658,0.3471,0.3237,1.4814,1.475,1.4439,1.4197,1.3953,1.3631,1.3492,1.3492,1.3492,1.3492,1.3492,1.3492,1.3492,1.3448,1.3353,1.2899,1.2343,1.1955,1.1728,1.1611,1.1622,1.1622,1.1622,1.1498,1.149,1.1435,1.1358,1.1091,1.059,1.0333,1.0102,0.9831,0.9624,0.9465,0.9465,0.951,0.951,0.9458,0.951,0.951,0.928,0.9188,0.887,0.8587,0.825,0.8008,0.7951,0.7701,0.7622,0.7544,0.7327,0.7181,0.7118,0.7112,0.7112,0.7021,0.7021,0.6972,0.6972,0.6972,0.6959,0.6965,0.6972,0.68,0.642,0.6433,0.6498,0.6364,0.633,0.6471,0.6546,0.6283,0.5994,0.5833,0.5773,0.5872,0.6065,0.6139,0.6021,0.58,0.5517,0.5377,0.5277,0.5246,0.5214,0.5221,0.5189,0.5189,0.5151,0.5093,0.5004,0.503,0.5062,0.5023,0.4985,0.4928,0.487,0.4902,0.4928,0.4928,0.4902,0.487,0.4812,0.478,0.478,0.478,0.478,0.4716,0.4549,0.442,0.4285,0.4183,0.4091,0.3928,0.3695,1.5105,1.5006,1.4626,1.4318,1.4048,1.366,1.3492,1.3492,1.3492,1.3492,1.3492,1.3492,1.3492,1.347,1.3353,1.3053,1.2511,1.2109,1.1853,1.1611,1.1622,1.1622,1.1622,1.1622,1.156,1.156,1.156,1.1305,1.0959,1.0651,1.0308,1.0077,0.9838,0.9658,0.9584,0.9614,0.9614,0.9614,0.9614,0.9562,0.9386,0.9076,0.8955,0.9109,0.8824,0.8719,0.8653,0.8437,0.8128,0.7894,0.7659,0.7412,0.7314,0.7293,0.7286,0.7189,0.7105,0.7021,0.6972,0.6972,0.6972,0.6972,0.6972,0.6959,0.6939,0.6854,0.688,0.6727,0.6833,0.676,0.6734,0.6486,0.6366,0.6377,0.6398,0.6498,0.6807,0.6916,0.6818,0.6453,0.591,0.5624,0.5583,0.5277,0.5277,0.5246,0.5252,0.5252,0.5246,0.5246,0.5221,0.5252,0.5246,0.5182,0.5119,0.5023,0.496,0.496,0.4992,0.5023,0.4992,0.4966,0.4934,0.494,0.478,0.478,0.478,0.478,0.4684,0.4614,0.4587,0.4523,0.442,0.4323,0.4156,1.5325,1.5313,1.4721,1.4443,1.4311,1.3755,1.3492,1.3492,1.3492,1.3492,1.3492,1.3492,1.3492,1.3448,1.3221,1.2892,1.2519,1.2233,1.1904,1.1611,1.1622,1.1622,1.1622,1.1622,1.1622,1.1622,1.1622,1.1545,1.1323,1.1068,1.0828,1.0541,1.0203,0.9899,0.9732,0.9718,0.9614,0.9614,0.9614,0.9614,0.957,0.9336,0.9517,0.9688,0.9628,0.9462,0.9431,0.9259,0.8913,0.8164,0.7966,0.7687,0.7476,0.767,0.7795,0.7621,0.7363,0.6972,0.7014,0.7056,0.7014,0.7014,0.6972,0.6972,0.6972,0.7021,0.6994,0.7001,0.7279,0.7375,0.7121,0.6949,0.6901,0.6854,0.68,0.6834,0.7063,0.7931,0.782,0.7368,0.6907,0.6349,0.6013,0.5629,0.5309,0.5309,0.5316,0.5316,0.5309,0.5309,0.5484,0.5531,0.5369,0.5272,0.528,0.5177,0.5093,0.5062,0.5087,0.5119,0.5087,0.5093,0.5182,0.5157,0.4966,0.4812,0.478,0.478,0.478,0.4748,0.4716,0.4716,0.4748,0.4652,0.4517,1.5431,1.5372,1.4735,1.4465,1.4384,1.3777,1.3492,1.3492,1.3492,1.3492,1.3492,1.3492,1.3492,1.3448,1.3323,1.3001,1.2584,1.235,1.2021,1.1641,1.1622,1.1622,1.1622,1.1622,1.1622,1.1622,1.1622,1.1622,1.152,1.1291,1.1027,1.1043,1.0762,1.0401,1.0171,1.0043,0.9873,0.9769,0.988,1.0035,1.01,1.0202,1.0416,1.0665,1.0499,1.0473,1.0414,1.0248,0.9833,0.9198,0.8959,0.8565,0.8272,0.8253,0.8342,0.8316,0.8144,0.7682,0.7189,0.7273,0.7224,0.7063,0.7021,0.6972,0.6972,0.7063,0.7189,0.7391,0.7599,0.769,0.769,0.7599,0.7308,0.714,0.7063,0.6972,0.7308,0.8513,0.889,0.8388,0.7858,0.7265,0.6715,0.6331,0.5953,0.5688,0.561,0.5494,0.5424,0.5309,0.5558,0.5867,0.5625,0.5344,0.5372,0.5366,0.5267,0.5208,0.5214,0.5246,0.5221,0.5252,0.5284,0.5214,0.4998,0.487,0.4812,0.478,0.478,0.478,0.478,0.478,0.478,0.478,0.4684,1.5431,1.5372,1.4735,1.4465,1.4406,1.377,1.3492,1.3492,1.3492,1.3492,1.3492,1.3492,1.3492,1.3455,1.3353,1.3016,1.2526,1.2438,1.2065,1.1721,1.1622,1.1622,1.1622,1.1622,1.1622,1.1622,1.1622,1.1622,1.1611,1.1563,1.159,1.1557,1.1615,1.1307,1.1007,1.0853,1.0633,1.0174,1.0438,1.0592,1.0643,1.0939,1.1174,1.1334,1.1401,1.141,1.1416,1.1265,1.0839,1.0018,0.9896,0.9582,0.9159,0.9253,0.923,0.9206,0.9113,0.8865,0.8258,0.7972,0.7592,0.7391,0.7599,0.7874,0.7189,0.7273,0.744,0.7773,0.8095,0.8226,0.8234,0.8136,0.7938,0.7523,0.7189,0.7063,0.7266,0.8594,0.9426,0.9081,0.8585,0.8177,0.7648,0.7157,0.6704,0.6209,0.5946,0.5709,0.5533,0.5379,0.5712,0.6115,0.6172,0.5887,0.5699,0.5678,0.5524,0.544,0.5426,0.5347,0.5316,0.5284,0.5309,0.5182,0.503,0.4966,0.4934,0.4876,0.478,0.478,0.478,0.478,0.478,0.478,0.478,1.5431,1.5379,1.4743,1.4479,1.4421,1.3777,1.3499,1.3492,1.3492,1.3492,1.3492,1.3492,1.3492,1.344,1.33,1.2991,1.2504,1.2204,1.1968,1.1803,1.1622,1.1622,1.1685,1.1677,1.1622,1.1677,1.1622,1.1622,1.1794,1.2227,1.2174,1.2054,1.2495,1.2513,1.2235,1.1718,1.1318,1.0971,1.1049,1.1158,1.115,1.1351,1.156,1.1977,1.2026,1.2026,1.2026,1.1994,1.1461,1.0412,1.0556,1.0522,1.0169,1.028,1.0215,1.0038,1.0095,0.9858,0.9457,0.8748,0.8054,0.7964,0.8407,0.9062,0.8013,0.8537,0.8626,0.8152,0.8553,0.8716,0.8643,0.848,0.8521,0.8349,0.8013,0.7799,0.8088,0.8805,0.9515,0.9554,0.9279,0.8828,0.857,0.8109,0.7474,0.699,0.6156,0.59,0.5663,0.5547,0.5937,0.6325,0.668,0.6579,0.6236,0.6088,0.595,0.5875,0.5823,0.5595,0.5347,0.5347,0.5309,0.5277,0.5182,0.5119,0.5055,0.4998,0.4934,0.4844,0.478,0.478,0.478,0.478,0.478,1.5431,1.5387,1.4948,1.464,1.4443,1.3989,1.3682,1.3506,1.3492,1.3492,1.3492,1.3492,1.3492,1.3585,1.3927,1.3685,1.3155,1.3076,1.2652,1.2125,1.1856,1.1864,1.1856,1.1919,1.174,1.1973,1.1864,1.1864,1.2212,1.2826,1.333,1.3508,1.354,1.3215,1.2922,1.2404,1.1783,1.1531,1.1569,1.1769,1.181,1.2107,1.2372,1.2529,1.2588,1.2588,1.2578,1.2578,1.1978,1.1518,1.1443,1.1301,1.1125,1.1239,1.1019,1.0695,1.0778,1.0551,1.0145,0.9478,0.8748,0.8586,0.935,0.9922,0.895,0.911,0.8999,0.8878,0.9047,0.9159,0.9328,0.9306,0.9306,0.9226,0.9047,0.8748,0.8869,0.9466,0.9634,0.9674,0.9625,0.9415,0.9226,0.9019,0.8369,0.7688,0.6815,0.6062,0.583,0.6047,0.6552,0.7025,0.7426,0.7291,0.6936,0.6702,0.6455,0.637,0.6282,0.6076,0.5798,0.5347,0.5309,0.5309,0.5435,0.5428,0.5365,0.5182,0.5093,0.5062,0.494,0.478,0.478,0.4812,0.478,1.5431,1.5401,1.5182,1.4853,1.445,1.4128,1.3799,1.3528,1.3492,1.3492,1.3492,1.3492,1.363,1.3897,1.4166,1.4437,1.4028,1.3876,1.3428,1.3002,1.2607,1.249,1.2528,1.2528,1.2536,1.2642,1.2466,1.2474,1.2818,1.3502,1.3906,1.4173,1.4369,1.4176,1.3886,1.3159,1.2439,1.2157,1.2241,1.2407,1.2469,1.2627,1.2832,1.2881,1.2832,1.2832,1.2832,1.2832,1.2618,1.2267,1.2227,1.2246,1.2104,1.1938,1.1656,1.1402,1.1123,1.0859,1.0321,0.9913,0.9478,0.935,0.9725,1.0244,1.0079,0.9597,0.9439,0.9279,0.9439,0.9655,0.9872,0.9713,0.9713,0.9625,0.9843,0.9628,0.9597,0.995,0.9872,0.9832,0.9783,0.9774,0.9709,0.9466,0.8955,0.8397,0.7808,0.6881,0.6082,0.6525,0.7517,0.7968,0.8415,0.811,0.7693,0.7501,0.7339,0.7129,0.7005,0.6757,0.6428,0.5938,0.5802,0.6137,0.6168,0.5952,0.5859,0.5859,0.5648,0.5379,0.5221,0.5093,0.4966,0.4998,0.4844,1.5431,1.5431,1.5409,1.5043,1.4565,1.4128,1.3814,1.3514,1.3492,1.3564,1.363,1.3637,1.3985,1.4411,1.4636,1.4847,1.4925,1.4543,1.4173,1.4024,1.342,1.3424,1.3415,1.3363,1.3199,1.3442,1.3268,1.3208,1.3502,1.3992,1.441,1.4706,1.4906,1.5052,1.5235,1.4875,1.4253,1.3572,1.3384,1.3064,1.2929,1.289,1.2891,1.2891,1.2891,1.2891,1.2891,1.2891,1.2774,1.2725,1.2676,1.2735,1.2696,1.2686,1.2472,1.2064,1.168,1.1165,1.0391,1.0312,1.0157,1.004,1.0244,1.0283,1.0322,1.0166,1.0028,0.9796,0.9937,1.0037,0.9979,0.9872,0.995,1.0019,1.0205,1.0283,1.0215,1.0137,1.0059,0.999,0.999,0.999,0.999,0.9865,0.9437,0.8994,0.8621,0.7886,0.6922,0.7225,0.8353,0.8776,0.9168,0.8859,0.8508,0.8412,0.8249,0.799,0.7792,0.7583,0.7156,0.6647,0.669,0.7002,0.6837,0.6557,0.6595,0.6665,0.626,0.5859,0.5648,0.5491,0.5334,0.5119,0.4902,1.5748,1.6221,1.5665,1.5487,1.5449,1.4669,1.4004,1.355,1.3492,1.3775,1.4186,1.4258,1.4609,1.5184,1.5739,1.5892,1.5784,1.5539,1.5205,1.5061,1.4206,1.4127,1.4162,1.3986,1.3812,1.3923,1.3872,1.3872,1.4163,1.4469,1.4765,1.5059,1.5216,1.5244,1.4951,1.46,1.4068,1.3795,1.3477,1.3115,1.3242,1.3057,1.29,1.29,1.2891,1.2891,1.2891,1.2891,1.2891,1.2891,1.2891,1.2891,1.2891,1.2891,1.2686,1.2256,1.1807,1.1214,1.0577,1.0283,1.0322,1.0322,1.0322,1.0322,1.0332,1.0322,1.0292,1.0414,1.0522,1.0582,1.0519,1.0262,1.0205,1.0098,1.0196,1.0283,1.0283,1.0244,1.0205,1.0137,1.0137,1.0098,1.0059,1.0098,0.9781,0.9627,0.9301,0.9198,0.8468,0.863,0.9345,0.9563,0.9774,0.9567,0.9318,0.908,0.8853,0.8552,0.8525,0.8496,0.8018,0.7535,0.7396,0.7603,0.7403,0.7175,0.7035,0.6893,0.6686,0.6405,0.6238,0.592,0.5617,0.5246,0.4844,1.6386,1.7025,1.655,1.6427,1.6482,1.5552,1.4858,1.4506,1.4328,1.4545,1.4887,1.5029,1.5384,1.6097,1.6558,1.7064,1.6777,1.6478,1.6345,1.6158,1.5047,1.5041,1.4985,1.4629,1.4556,1.4579,1.4519,1.446,1.4824,1.4824,1.5001,1.5294,1.541,1.5303,1.5029,1.4805,1.4561,1.4336,1.3955,1.3603,1.3496,1.3262,1.3037,1.2939,1.2891,1.2891,1.2891,1.2891,1.2891,1.2891,1.2891,1.2891,1.2891,1.2842,1.2725,1.2402,1.1953,1.1312,1.0596,1.0322,1.0322,1.0322,1.0322,1.0479,1.0586,1.0703,1.085,1.0974,1.1103,1.1091,1.1042,1.0713,1.0429,1.037,1.0254,1.0371,1.0322,1.0283,1.0283,1.0244,1.0215,1.0166,1.0127,1.0166,1.0079,1.0021,0.9981,0.9872,0.9753,0.9832,0.9872,1.0059,1.0137,0.9922,0.9716,0.9561,0.9358,0.9127,0.9132,0.918,0.9161,0.8757,0.8474,0.8268,0.8326,0.8179,0.743,0.7071,0.702,0.7002,0.6958,0.6535,0.5974,0.5554,0.5119,1.7261,1.7997,1.7997,1.7775,1.738,1.6534,1.6209,1.6268,1.5828,1.5675,1.5737,1.5737,1.6167,1.6793,1.701,1.7267,1.7639,1.7368,1.7337,1.7025,1.6076,1.6098,1.5827,1.5496,1.5166,1.5235,1.5235,1.5001,1.5352,1.5235,1.5294,1.541,1.542,1.5361,1.5293,1.5215,1.5039,1.4795,1.4424,1.4082,1.3848,1.3603,1.334,1.3135,1.2939,1.29,1.2891,1.2891,1.2891,1.2891,1.2891,1.2891,1.2891,1.2891,1.2871,1.2666,1.2217,1.1426,1.0567,1.0342,1.0322,1.0361,1.0566,1.093,1.1224,1.1309,1.1494,1.1533,1.1582,1.1582,1.1567,1.1185,1.0771,1.0625,1.0439,1.041,1.0342,1.0322,1.0322,1.0283,1.0283,1.0283,1.0244,1.0283,1.0244,1.0244,1.0176,1.0059,0.998,1.0098,1.0137,1.0176,1.0244,1.0196,1.0079,0.9883,0.9806,0.9551,0.9664,0.9733,0.9799,0.9781,0.9413,0.9254,0.9503,0.9142,0.8005,0.7583,0.757,0.7526,0.7454,0.7158,0.6601,0.6106,0.5703,1.8158,1.8816,1.8247,1.8101,1.8154,1.7393,1.6793,1.634,1.5908,1.5956,1.6585,1.6576,1.6941,1.7657,1.7735,1.7794,1.7784,1.7676,1.7666,1.7285,1.667,1.6455,1.6162,1.582,1.5527,1.542,1.542,1.542,1.542,1.542,1.542,1.542,1.542,1.542,1.542,1.542,1.5312,1.5117,1.4727,1.4463,1.4277,1.4082,1.373,1.3369,1.3057,1.2978,1.2891,1.2891,1.2891,1.2891,1.2891,1.2891,1.2891,1.2861,1.2793,1.2295,1.2031,1.165,1.0616,1.0342,1.044,1.0832,1.1357,1.1704,1.193,1.1963,1.2158,1.21,1.2041,1.2041,1.21,1.1836,1.1387,1.1055,1.0742,1.0381,1.0322,1.0322,1.0322,1.0322,1.0322,1.0322,1.0322,1.0322,1.0283,1.0322,1.0283,1.0205,1.0176,1.0244,1.0283,1.0322,1.0322,1.0273,1.0244,1.0088,1.0049,1.003,1.0059,1.0059,0.9981,0.9962,1.0049,1.0029,0.999,0.9254,0.8233,0.8048,0.8103,0.7936,0.7835,0.7566,0.7271,0.6857,0.6506,1.8497,1.921,1.8729,1.8669,1.8751,1.8197,1.762,1.7251,1.6836,1.6941,1.7295,1.7295,1.7588,1.794,1.794,1.7998,1.7978,1.7822,1.7783,1.7607,1.6836,1.666,1.6367,1.5908,1.5508,1.542,1.542,1.542,1.542,1.542,1.542,1.542,1.542,1.542,1.542,1.542,1.542,1.5244,1.501,1.4775,1.4639,1.4512,1.4102,1.3623,1.3281,1.3154,1.291,1.29,1.2891,1.2891,1.2891,1.2891,1.2891,1.2871,1.2832,1.2461,1.2441,1.2187,1.1602,1.1445,1.1357,1.1523,1.2263,1.2373,1.2498,1.249,1.2549,1.2539,1.251,1.251,1.2607,1.2588,1.207,1.1572,1.0957,1.0371,1.0322,1.0322,1.0322,1.0322,1.0322,1.0322,1.0322,1.0322,1.0322,1.0322,1.0322,1.0283,1.0244,1.0283,1.0283,1.0322,1.0322,1.0283,1.0283,1.0244,1.0244,1.0205,1.0166,1.0166,1.0088,1.0137,1.0176,1.0215,1.0176,0.9541,0.8961,0.874,0.8668,0.8479,0.8398,0.8394,0.8221,0.7897,0.7591,1.8609,1.9307,1.9248,1.9102,1.917,1.8669,1.8424,1.8475,1.8017,1.8008,1.794,1.8008,1.794,1.8008,1.8008,1.8008,1.7998,1.7939,1.79,1.7949,1.7061,1.6709,1.6445,1.5889,1.5488,1.542,1.542,1.542,1.542,1.542,1.542,1.542,1.542,1.542,1.542,1.542,1.542,1.5361,1.5273,1.5146,1.4941,1.4746,1.4473,1.3857,1.3672,1.3574,1.3105,1.2969,1.2891,1.2891,1.2891,1.2891,1.2891,1.2891,1.289,1.288,1.2773,1.2686,1.251,1.2432,1.2549,1.2646,1.2881,1.2812,1.2764,1.2754,1.2764,1.2764,1.2715,1.2705,1.2773,1.2764,1.2412,1.2031,1.1543,1.0811,1.0361,1.0351,1.0322,1.0322,1.0322,1.0322,1.0322,1.0322,1.0322,1.0322,1.0322,1.0322,1.0322,1.0322,1.0322,1.0322,1.0322,1.0322,1.0351,1.0322,1.0361,1.0322,1.0322,1.0283,1.0205,1.0244,1.0322,1.0361,1.0428,1.0361,1.0018,0.9648,0.9256,0.8999,0.8993,0.9205,0.9122,0.8781,0.862,1.9131,1.9248,1.8936,1.8799,1.874,1.834,1.8174,1.8164,1.8066,1.8008,1.8008,1.8008,1.8008,1.8008,1.8008,1.8008,1.8008,1.8008,1.8008,1.7764,1.7148,1.6787,1.6529,1.5967,1.5527,1.542,1.542,1.542,1.542,1.542,1.542,1.542,1.542,1.542,1.542,1.542,1.542,1.542,1.5391,1.5371,1.5244,1.5186,1.499,1.457,1.4375,1.3994,1.3516,1.3027,1.2949,1.2891,1.2891,1.2891,1.2891,1.2891,1.2891,1.2891,1.2891,1.2891,1.2891,1.2891,1.2891,1.2891,1.2891,1.2891,1.2881,1.2891,1.2891,1.2891,1.2891,1.2891,1.2881,1.2832,1.2754,1.2451,1.2168,1.1328,1.0488,1.042,1.0381,1.0361,1.0361,1.0322,1.0322,1.0322,1.0322,1.0322,1.0322,1.0322,1.0322,1.0322,1.0322,1.0322,1.0361,1.0361,1.039,1.0544,1.0621,1.0592,1.0544,1.0477,1.0322,1.0322,1.0322,1.0544,1.0659,1.0736,1.0661,1.0223,0.9852,0.9587,0.9517,0.9693,0.9763,0.9545,0.9478,1.8721,1.8691,1.8467,1.8359,1.832,1.8105,1.8008,1.8008,1.8008,1.8008,1.8008,1.8008,1.8008,1.8008,1.8008,1.8008,1.8008,1.8008,1.8008,1.7773,1.7383,1.6973,1.6553,1.6182,1.5771,1.5576,1.5449,1.542,1.5449,1.542,1.542,1.542,1.542,1.542,1.542,1.542,1.542,1.542,1.542,1.542,1.542,1.5371,1.5195,1.4883,1.4756,1.4424,1.3818,1.3291,1.3076,1.3008,1.3008,1.29,1.2891,1.2891,1.2891,1.2891,1.2891,1.2891,1.2891,1.2891,1.2891,1.2891,1.2891,1.2891,1.2891,1.2891,1.2891,1.2891,1.2891,1.2891,1.2891,1.2861,1.2832,1.2637,1.2578,1.2158,1.1377,1.094,1.083,1.0762,1.0605,1.0322,1.0322,1.0322,1.0322,1.04,1.0361,1.0438,1.04,1.0428,1.04,1.0467,1.0621,1.0477,1.0351,1.0659,1.0992,1.0926,1.085,1.0582,1.0428,1.0361,1.0361,1.0544,1.0878,1.1404,1.1242,1.0829,1.0547,1.0315,1.0186,1.0171,1.0214,1.0254,1.0128,1.8037,1.8008,1.8018,1.8018,1.8008,1.8008,1.8008,1.8008,1.8008,1.8008,1.8008,1.8008,1.8008,1.8008,1.8008,1.8008,1.8008,1.8076,1.8076,1.7958,1.7671,1.7327,1.7061,1.6723,1.6282,1.585,1.5664,1.5596,1.5576,1.5488,1.542,1.542,1.542,1.542,1.542,1.542,1.542,1.542,1.542,1.542,1.542,1.541,1.5205,1.5137,1.5117,1.4941,1.4219,1.3789,1.3496,1.3164,1.3145,1.3037,1.2978,1.2978,1.2929,1.2929,1.2929,1.2929,1.2891,1.2891,1.2891,1.2891,1.2891,1.2939,1.2939,1.2929,1.2929,1.2939,1.2939,1.2929,1.2929,1.2929,1.2861,1.2852,1.2852,1.2949,1.222,1.1614,1.1463,1.1345,1.1023,1.0686,1.0448,1.0448,1.0478,1.0507,1.0505,1.0544,1.0582,1.0649,1.0687,1.0916,1.118,1.0916,1.0764,1.0954,1.1442,1.1292,1.1142,1.0802,1.0505,1.04,1.0361,1.0438,1.085,1.159,1.1774,1.1505,1.1217,1.0891,1.0682,1.0565,1.072,1.0697,1.0659,1.8008,1.8008,1.8008,1.8008,1.8008,1.8008,1.8008,1.8008,1.8008,1.8008,1.8008,1.8008,1.8008,1.8008,1.8008,1.8008,1.8076,1.8144,1.8212,1.82,1.7949,1.7765,1.7506,1.709,1.6776,1.6449,1.6184,1.5957,1.5918,1.5644,1.5449,1.5508,1.5478,1.5469,1.5449,1.5459,1.5488,1.5488,1.5439,1.542,1.542,1.541,1.54,1.5352,1.5342,1.5078,1.4785,1.4873,1.4316,1.3763,1.3254,1.3154,1.3104,1.3065,1.3027,1.3017,1.2968,1.2929,1.2929,1.2939,1.2891,1.2891,1.2939,1.2929,1.2968,1.3104,1.3055,1.3027,1.3027,1.292,1.292,1.292,1.291,1.292,1.2881,1.3094,1.2876,1.265,1.2509,1.23,1.2017,1.1537,1.1009,1.0995,1.0952,1.0958,1.0802,1.0878,1.1105,1.1067,1.1019,1.1394,1.1774,1.2113,1.2258,1.1763,1.1957,1.1726,1.1479,1.118,1.0802,1.04,1.04,1.0888,1.1217,1.1774,1.1884,1.1957,1.1653,1.1308,1.1019,1.0895,1.1067,1.1244,1.1217]}]]